<?xml version="1.0" encoding="UTF-8" standalone="no" ?>
<gpx xmlns="http://www.topografix.com/GPX/1/1" xmlns:xsi="http://www.w3.org/2001/XMLSchema-instance" xsi:schemaLocation="http://www.topografix.com/GPX/1/1 http://www.topografix.com/GPX/1/1/gpx.xsd" version="1.1" creator="VisuGPX - https://www.visugpx.com">
  <metadata>
    <name>Boucle à Dommartin </name>
  </metadata>
  <trk>
    <name><![CDATA[P+S le 6 août 2022]]></name>
    <trkseg>
      <trkpt lat="45.83409" lon="4.70991">
        <ele>303.37271</ele>
        <time>2022-08-06T14:35:11.000Z</time>
      </trkpt>
      <trkpt lat="45.83413" lon="4.70991">
        <ele>303.57959</ele>
        <time>2022-08-06T14:35:12.000Z</time>
      </trkpt>
      <trkpt lat="45.83417" lon="4.70991">
        <ele>303.73584</ele>
        <time>2022-08-06T14:35:13.000Z</time>
      </trkpt>
      <trkpt lat="45.83421" lon="4.70991">
        <ele>304.08307</ele>
        <time>2022-08-06T14:35:14.000Z</time>
      </trkpt>
      <trkpt lat="45.83427" lon="4.70992">
        <ele>304.15533</ele>
        <time>2022-08-06T14:35:15.000Z</time>
      </trkpt>
      <trkpt lat="45.83434" lon="4.70994">
        <ele>303.99768</ele>
        <time>2022-08-06T14:35:16.000Z</time>
      </trkpt>
      <trkpt lat="45.83439" lon="4.70994">
        <ele>303.78238</ele>
        <time>2022-08-06T14:35:17.000Z</time>
      </trkpt>
      <trkpt lat="45.83445" lon="4.70994">
        <ele>303.62708</ele>
        <time>2022-08-06T14:35:18.000Z</time>
      </trkpt>
      <trkpt lat="45.8345" lon="4.70993">
        <ele>303.49133</ele>
        <time>2022-08-06T14:35:19.000Z</time>
      </trkpt>
      <trkpt lat="45.83456" lon="4.70992">
        <ele>303.35654</ele>
        <time>2022-08-06T14:35:20.000Z</time>
      </trkpt>
      <trkpt lat="45.83463" lon="4.70992">
        <ele>303.2695</ele>
        <time>2022-08-06T14:35:21.000Z</time>
      </trkpt>
      <trkpt lat="45.8347" lon="4.70994">
        <ele>303.1561</ele>
        <time>2022-08-06T14:35:22.000Z</time>
      </trkpt>
      <trkpt lat="45.83477" lon="4.70992">
        <ele>303.08331</ele>
        <time>2022-08-06T14:35:23.000Z</time>
      </trkpt>
      <trkpt lat="45.83483" lon="4.70991">
        <ele>303.02695</ele>
        <time>2022-08-06T14:35:24.000Z</time>
      </trkpt>
      <trkpt lat="45.83489" lon="4.70991">
        <ele>302.92902</ele>
        <time>2022-08-06T14:35:25.000Z</time>
      </trkpt>
      <trkpt lat="45.83494" lon="4.70993">
        <ele>302.83453</ele>
        <time>2022-08-06T14:35:26.000Z</time>
      </trkpt>
      <trkpt lat="45.83499" lon="4.70994">
        <ele>302.74585</ele>
        <time>2022-08-06T14:35:27.000Z</time>
      </trkpt>
      <trkpt lat="45.83506" lon="4.70996">
        <ele>302.66513</ele>
        <time>2022-08-06T14:35:28.000Z</time>
      </trkpt>
      <trkpt lat="45.83512" lon="4.70999">
        <ele>302.59131</ele>
        <time>2022-08-06T14:35:29.000Z</time>
      </trkpt>
      <trkpt lat="45.83523" lon="4.71006">
        <ele>302.6011</ele>
        <time>2022-08-06T14:35:30.000Z</time>
      </trkpt>
      <trkpt lat="45.83539" lon="4.71014">
        <ele>302.38644</ele>
        <time>2022-08-06T14:35:31.000Z</time>
      </trkpt>
      <trkpt lat="45.83545" lon="4.71016">
        <ele>302.17499</ele>
        <time>2022-08-06T14:35:32.000Z</time>
      </trkpt>
      <trkpt lat="45.83547" lon="4.71018">
        <ele>302.00729</ele>
        <time>2022-08-06T14:35:33.000Z</time>
      </trkpt>
      <trkpt lat="45.83546" lon="4.71023">
        <ele>301.84192</ele>
        <time>2022-08-06T14:35:34.000Z</time>
      </trkpt>
      <trkpt lat="45.83551" lon="4.71024">
        <ele>301.71603</ele>
        <time>2022-08-06T14:35:35.000Z</time>
      </trkpt>
      <trkpt lat="45.83553" lon="4.71022">
        <ele>301.62286</ele>
        <time>2022-08-06T14:35:36.000Z</time>
      </trkpt>
      <trkpt lat="45.83552" lon="4.71019">
        <ele>301.50571</ele>
        <time>2022-08-06T14:35:37.000Z</time>
      </trkpt>
      <trkpt lat="45.83551" lon="4.71017">
        <ele>301.36334</ele>
        <time>2022-08-06T14:35:38.000Z</time>
      </trkpt>
      <trkpt lat="45.83549" lon="4.71016">
        <ele>301.16827</ele>
        <time>2022-08-06T14:35:39.000Z</time>
      </trkpt>
      <trkpt lat="45.83547" lon="4.71014">
        <ele>300.87781</ele>
        <time>2022-08-06T14:35:41.000Z</time>
      </trkpt>
      <trkpt lat="45.83545" lon="4.71014">
        <ele>300.6915</ele>
        <time>2022-08-06T14:35:46.000Z</time>
      </trkpt>
      <trkpt lat="45.83547" lon="4.71019">
        <ele>300.59943</ele>
        <time>2022-08-06T14:36:59.000Z</time>
      </trkpt>
      <trkpt lat="45.83549" lon="4.71021">
        <ele>300.48419</ele>
        <time>2022-08-06T14:37:00.000Z</time>
      </trkpt>
      <trkpt lat="45.83553" lon="4.71025">
        <ele>300.25589</ele>
        <time>2022-08-06T14:37:01.000Z</time>
      </trkpt>
      <trkpt lat="45.83556" lon="4.71027">
        <ele>300.06885</ele>
        <time>2022-08-06T14:37:02.000Z</time>
      </trkpt>
      <trkpt lat="45.83558" lon="4.71029">
        <ele>299.90671</ele>
        <time>2022-08-06T14:37:03.000Z</time>
      </trkpt>
      <trkpt lat="45.83561" lon="4.7103">
        <ele>299.7514</ele>
        <time>2022-08-06T14:37:04.000Z</time>
      </trkpt>
      <trkpt lat="45.83563" lon="4.71033">
        <ele>299.57297</ele>
        <time>2022-08-06T14:37:05.000Z</time>
      </trkpt>
      <trkpt lat="45.83565" lon="4.71035">
        <ele>299.41058</ele>
        <time>2022-08-06T14:37:06.000Z</time>
      </trkpt>
      <trkpt lat="45.83567" lon="4.71038">
        <ele>299.1571</ele>
        <time>2022-08-06T14:37:07.000Z</time>
      </trkpt>
      <trkpt lat="45.8357" lon="4.7104">
        <ele>299.07135</ele>
        <time>2022-08-06T14:37:08.000Z</time>
      </trkpt>
      <trkpt lat="45.83572" lon="4.71043">
        <ele>298.95587</ele>
        <time>2022-08-06T14:37:09.000Z</time>
      </trkpt>
      <trkpt lat="45.83575" lon="4.71045">
        <ele>298.79663</ele>
        <time>2022-08-06T14:37:10.000Z</time>
      </trkpt>
      <trkpt lat="45.83577" lon="4.71047">
        <ele>298.65051</ele>
        <time>2022-08-06T14:37:11.000Z</time>
      </trkpt>
      <trkpt lat="45.83581" lon="4.71049">
        <ele>298.50787</ele>
        <time>2022-08-06T14:37:12.000Z</time>
      </trkpt>
      <trkpt lat="45.83584" lon="4.71051">
        <ele>298.39337</ele>
        <time>2022-08-06T14:37:13.000Z</time>
      </trkpt>
      <trkpt lat="45.83588" lon="4.71052">
        <ele>298.36957</ele>
        <time>2022-08-06T14:37:14.000Z</time>
      </trkpt>
      <trkpt lat="45.83591" lon="4.71055">
        <ele>298.2457</ele>
        <time>2022-08-06T14:37:15.000Z</time>
      </trkpt>
      <trkpt lat="45.83595" lon="4.71058">
        <ele>298.14078</ele>
        <time>2022-08-06T14:37:16.000Z</time>
      </trkpt>
      <trkpt lat="45.83599" lon="4.7106">
        <ele>298.12674</ele>
        <time>2022-08-06T14:37:17.000Z</time>
      </trkpt>
      <trkpt lat="45.83603" lon="4.71063">
        <ele>298.02954</ele>
        <time>2022-08-06T14:37:18.000Z</time>
      </trkpt>
      <trkpt lat="45.83607" lon="4.71066">
        <ele>297.85626</ele>
        <time>2022-08-06T14:37:19.000Z</time>
      </trkpt>
      <trkpt lat="45.83611" lon="4.71069">
        <ele>297.6698</ele>
        <time>2022-08-06T14:37:20.000Z</time>
      </trkpt>
      <trkpt lat="45.83615" lon="4.71074">
        <ele>297.57733</ele>
        <time>2022-08-06T14:37:21.000Z</time>
      </trkpt>
      <trkpt lat="45.83619" lon="4.71078">
        <ele>297.49329</ele>
        <time>2022-08-06T14:37:22.000Z</time>
      </trkpt>
      <trkpt lat="45.83623" lon="4.71081">
        <ele>297.36749</ele>
        <time>2022-08-06T14:37:23.000Z</time>
      </trkpt>
      <trkpt lat="45.83627" lon="4.71085">
        <ele>297.29993</ele>
        <time>2022-08-06T14:37:24.000Z</time>
      </trkpt>
      <trkpt lat="45.83631" lon="4.71089">
        <ele>297.24432</ele>
        <time>2022-08-06T14:37:25.000Z</time>
      </trkpt>
      <trkpt lat="45.83636" lon="4.71095">
        <ele>297.1601</ele>
        <time>2022-08-06T14:37:26.000Z</time>
      </trkpt>
      <trkpt lat="45.8364" lon="4.71099">
        <ele>297.11377</ele>
        <time>2022-08-06T14:37:27.000Z</time>
      </trkpt>
      <trkpt lat="45.83644" lon="4.71103">
        <ele>297.07623</ele>
        <time>2022-08-06T14:37:28.000Z</time>
      </trkpt>
      <trkpt lat="45.83649" lon="4.71106">
        <ele>297.0274</ele>
        <time>2022-08-06T14:37:29.000Z</time>
      </trkpt>
      <trkpt lat="45.83655" lon="4.7111">
        <ele>296.95343</ele>
        <time>2022-08-06T14:37:30.000Z</time>
      </trkpt>
      <trkpt lat="45.8366" lon="4.71115">
        <ele>296.75681</ele>
        <time>2022-08-06T14:37:31.000Z</time>
      </trkpt>
      <trkpt lat="45.8367" lon="4.71127">
        <ele>296.55701</ele>
        <time>2022-08-06T14:37:33.000Z</time>
      </trkpt>
      <trkpt lat="45.83674" lon="4.71131">
        <ele>296.36209</ele>
        <time>2022-08-06T14:37:34.000Z</time>
      </trkpt>
      <trkpt lat="45.8368" lon="4.71134">
        <ele>296.15155</ele>
        <time>2022-08-06T14:37:35.000Z</time>
      </trkpt>
      <trkpt lat="45.83685" lon="4.71138">
        <ele>296.09387</ele>
        <time>2022-08-06T14:37:36.000Z</time>
      </trkpt>
      <trkpt lat="45.83689" lon="4.71143">
        <ele>296.02533</ele>
        <time>2022-08-06T14:37:37.000Z</time>
      </trkpt>
      <trkpt lat="45.83693" lon="4.71144">
        <ele>295.97458</ele>
        <time>2022-08-06T14:37:38.000Z</time>
      </trkpt>
      <trkpt lat="45.83695" lon="4.71147">
        <ele>295.89313</ele>
        <time>2022-08-06T14:37:39.000Z</time>
      </trkpt>
      <trkpt lat="45.83696" lon="4.7115">
        <ele>295.82745</ele>
        <time>2022-08-06T14:37:40.000Z</time>
      </trkpt>
      <trkpt lat="45.83695" lon="4.71155">
        <ele>295.81143</ele>
        <time>2022-08-06T14:37:41.000Z</time>
      </trkpt>
      <trkpt lat="45.83693" lon="4.71159">
        <ele>295.85605</ele>
        <time>2022-08-06T14:37:42.000Z</time>
      </trkpt>
      <trkpt lat="45.83692" lon="4.71163">
        <ele>295.8941</ele>
        <time>2022-08-06T14:37:43.000Z</time>
      </trkpt>
      <trkpt lat="45.8369" lon="4.71171">
        <ele>295.94312</ele>
        <time>2022-08-06T14:37:44.000Z</time>
      </trkpt>
      <trkpt lat="45.83689" lon="4.71181">
        <ele>295.77826</ele>
        <time>2022-08-06T14:37:45.000Z</time>
      </trkpt>
      <trkpt lat="45.83687" lon="4.71187">
        <ele>295.68893</ele>
        <time>2022-08-06T14:37:46.000Z</time>
      </trkpt>
      <trkpt lat="45.83684" lon="4.71193">
        <ele>295.59918</ele>
        <time>2022-08-06T14:37:47.000Z</time>
      </trkpt>
      <trkpt lat="45.83683" lon="4.71199">
        <ele>295.47162</ele>
        <time>2022-08-06T14:37:48.000Z</time>
      </trkpt>
      <trkpt lat="45.8368" lon="4.71205">
        <ele>295.30106</ele>
        <time>2022-08-06T14:37:49.000Z</time>
      </trkpt>
      <trkpt lat="45.83678" lon="4.71212">
        <ele>295.14743</ele>
        <time>2022-08-06T14:37:50.000Z</time>
      </trkpt>
      <trkpt lat="45.83678" lon="4.71218">
        <ele>295.04126</ele>
        <time>2022-08-06T14:37:51.000Z</time>
      </trkpt>
      <trkpt lat="45.83676" lon="4.71223">
        <ele>294.9794</ele>
        <time>2022-08-06T14:37:52.000Z</time>
      </trkpt>
      <trkpt lat="45.83675" lon="4.71233">
        <ele>294.92188</ele>
        <time>2022-08-06T14:37:53.000Z</time>
      </trkpt>
      <trkpt lat="45.83674" lon="4.71239">
        <ele>294.81549</ele>
        <time>2022-08-06T14:37:54.000Z</time>
      </trkpt>
      <trkpt lat="45.83674" lon="4.71248">
        <ele>294.7861</ele>
        <time>2022-08-06T14:37:56.000Z</time>
      </trkpt>
      <trkpt lat="45.83673" lon="4.71253">
        <ele>294.71588</ele>
        <time>2022-08-06T14:37:57.000Z</time>
      </trkpt>
      <trkpt lat="45.83669" lon="4.71265">
        <ele>294.86102</ele>
        <time>2022-08-06T14:37:59.000Z</time>
      </trkpt>
      <trkpt lat="45.83667" lon="4.71272">
        <ele>295.03204</ele>
        <time>2022-08-06T14:38:00.000Z</time>
      </trkpt>
      <trkpt lat="45.83667" lon="4.71279">
        <ele>295.17343</ele>
        <time>2022-08-06T14:38:01.000Z</time>
      </trkpt>
      <trkpt lat="45.83666" lon="4.71286">
        <ele>295.31833</ele>
        <time>2022-08-06T14:38:02.000Z</time>
      </trkpt>
      <trkpt lat="45.83664" lon="4.71294">
        <ele>295.46201</ele>
        <time>2022-08-06T14:38:03.000Z</time>
      </trkpt>
      <trkpt lat="45.83662" lon="4.71301">
        <ele>295.43527</ele>
        <time>2022-08-06T14:38:04.000Z</time>
      </trkpt>
      <trkpt lat="45.83661" lon="4.71307">
        <ele>295.39838</ele>
        <time>2022-08-06T14:38:05.000Z</time>
      </trkpt>
      <trkpt lat="45.83659" lon="4.71312">
        <ele>295.37854</ele>
        <time>2022-08-06T14:38:06.000Z</time>
      </trkpt>
      <trkpt lat="45.83658" lon="4.71319">
        <ele>295.53687</ele>
        <time>2022-08-06T14:38:07.000Z</time>
      </trkpt>
      <trkpt lat="45.83657" lon="4.71325">
        <ele>295.64914</ele>
        <time>2022-08-06T14:38:08.000Z</time>
      </trkpt>
      <trkpt lat="45.83653" lon="4.71335">
        <ele>295.7258</ele>
        <time>2022-08-06T14:38:10.000Z</time>
      </trkpt>
      <trkpt lat="45.83651" lon="4.71341">
        <ele>295.83743</ele>
        <time>2022-08-06T14:38:11.000Z</time>
      </trkpt>
      <trkpt lat="45.83649" lon="4.71347">
        <ele>296.00543</ele>
        <time>2022-08-06T14:38:12.000Z</time>
      </trkpt>
      <trkpt lat="45.83649" lon="4.71354">
        <ele>295.9996</ele>
        <time>2022-08-06T14:38:13.000Z</time>
      </trkpt>
      <trkpt lat="45.83648" lon="4.71359">
        <ele>295.96933</ele>
        <time>2022-08-06T14:38:14.000Z</time>
      </trkpt>
      <trkpt lat="45.83647" lon="4.71363">
        <ele>295.94925</ele>
        <time>2022-08-06T14:38:15.000Z</time>
      </trkpt>
      <trkpt lat="45.83647" lon="4.71368">
        <ele>295.9079</ele>
        <time>2022-08-06T14:38:16.000Z</time>
      </trkpt>
      <trkpt lat="45.83646" lon="4.71375">
        <ele>295.89069</ele>
        <time>2022-08-06T14:38:17.000Z</time>
      </trkpt>
      <trkpt lat="45.83646" lon="4.71381">
        <ele>295.77496</ele>
        <time>2022-08-06T14:38:18.000Z</time>
      </trkpt>
      <trkpt lat="45.83645" lon="4.71388">
        <ele>295.66324</ele>
        <time>2022-08-06T14:38:19.000Z</time>
      </trkpt>
      <trkpt lat="45.83643" lon="4.71394">
        <ele>295.35941</ele>
        <time>2022-08-06T14:38:20.000Z</time>
      </trkpt>
      <trkpt lat="45.83642" lon="4.714">
        <ele>295.03668</ele>
        <time>2022-08-06T14:38:21.000Z</time>
      </trkpt>
      <trkpt lat="45.8364" lon="4.71407">
        <ele>294.6684</ele>
        <time>2022-08-06T14:38:22.000Z</time>
      </trkpt>
      <trkpt lat="45.83639" lon="4.71413">
        <ele>294.27463</ele>
        <time>2022-08-06T14:38:23.000Z</time>
      </trkpt>
      <trkpt lat="45.83637" lon="4.71419">
        <ele>293.89157</ele>
        <time>2022-08-06T14:38:24.000Z</time>
      </trkpt>
      <trkpt lat="45.83636" lon="4.71425">
        <ele>293.61343</ele>
        <time>2022-08-06T14:38:25.000Z</time>
      </trkpt>
      <trkpt lat="45.83635" lon="4.71431">
        <ele>293.36041</ele>
        <time>2022-08-06T14:38:26.000Z</time>
      </trkpt>
      <trkpt lat="45.83633" lon="4.71436">
        <ele>293.07562</ele>
        <time>2022-08-06T14:38:27.000Z</time>
      </trkpt>
      <trkpt lat="45.83631" lon="4.71442">
        <ele>292.73605</ele>
        <time>2022-08-06T14:38:28.000Z</time>
      </trkpt>
      <trkpt lat="45.83629" lon="4.71448">
        <ele>292.40973</ele>
        <time>2022-08-06T14:38:29.000Z</time>
      </trkpt>
      <trkpt lat="45.83627" lon="4.71453">
        <ele>292.13477</ele>
        <time>2022-08-06T14:38:30.000Z</time>
      </trkpt>
      <trkpt lat="45.83625" lon="4.71459">
        <ele>291.83493</ele>
        <time>2022-08-06T14:38:31.000Z</time>
      </trkpt>
      <trkpt lat="45.83624" lon="4.71463">
        <ele>291.55801</ele>
        <time>2022-08-06T14:38:32.000Z</time>
      </trkpt>
      <trkpt lat="45.83622" lon="4.71468">
        <ele>291.46466</ele>
        <time>2022-08-06T14:38:33.000Z</time>
      </trkpt>
      <trkpt lat="45.8362" lon="4.71472">
        <ele>291.37888</ele>
        <time>2022-08-06T14:38:34.000Z</time>
      </trkpt>
      <trkpt lat="45.83617" lon="4.71473">
        <ele>291.33295</ele>
        <time>2022-08-06T14:38:35.000Z</time>
      </trkpt>
      <trkpt lat="45.83616" lon="4.71477">
        <ele>291.35434</ele>
        <time>2022-08-06T14:38:36.000Z</time>
      </trkpt>
      <trkpt lat="45.83613" lon="4.71479">
        <ele>291.36502</ele>
        <time>2022-08-06T14:38:37.000Z</time>
      </trkpt>
      <trkpt lat="45.83611" lon="4.71482">
        <ele>291.36014</ele>
        <time>2022-08-06T14:38:38.000Z</time>
      </trkpt>
      <trkpt lat="45.83608" lon="4.71485">
        <ele>291.37897</ele>
        <time>2022-08-06T14:38:39.000Z</time>
      </trkpt>
      <trkpt lat="45.83607" lon="4.71487">
        <ele>291.42914</ele>
        <time>2022-08-06T14:38:40.000Z</time>
      </trkpt>
      <trkpt lat="45.83604" lon="4.71489">
        <ele>291.44568</ele>
        <time>2022-08-06T14:38:42.000Z</time>
      </trkpt>
      <trkpt lat="45.83602" lon="4.71491">
        <ele>291.58612</ele>
        <time>2022-08-06T14:38:44.000Z</time>
      </trkpt>
      <trkpt lat="45.83605" lon="4.71493">
        <ele>292.03918</ele>
        <time>2022-08-06T14:38:47.000Z</time>
      </trkpt>
      <trkpt lat="45.83607" lon="4.71493">
        <ele>292.51981</ele>
        <time>2022-08-06T14:38:48.000Z</time>
      </trkpt>
      <trkpt lat="45.83611" lon="4.71497">
        <ele>293.17807</ele>
        <time>2022-08-06T14:38:50.000Z</time>
      </trkpt>
      <trkpt lat="45.83613" lon="4.71501">
        <ele>293.90994</ele>
        <time>2022-08-06T14:38:51.000Z</time>
      </trkpt>
      <trkpt lat="45.83614" lon="4.71505">
        <ele>294.76801</ele>
        <time>2022-08-06T14:38:52.000Z</time>
      </trkpt>
      <trkpt lat="45.83614" lon="4.7151">
        <ele>295.9696</ele>
        <time>2022-08-06T14:38:54.000Z</time>
      </trkpt>
      <trkpt lat="45.83614" lon="4.71515">
        <ele>297.12827</ele>
        <time>2022-08-06T14:38:56.000Z</time>
      </trkpt>
      <trkpt lat="45.83614" lon="4.71518">
        <ele>298.28949</ele>
        <time>2022-08-06T14:38:57.000Z</time>
      </trkpt>
      <trkpt lat="45.83614" lon="4.71521">
        <ele>299.43289</ele>
        <time>2022-08-06T14:38:58.000Z</time>
      </trkpt>
      <trkpt lat="45.83614" lon="4.71528">
        <ele>300.31158</ele>
        <time>2022-08-06T14:39:00.000Z</time>
      </trkpt>
      <trkpt lat="45.83614" lon="4.71531">
        <ele>301.16779</ele>
        <time>2022-08-06T14:39:01.000Z</time>
      </trkpt>
      <trkpt lat="45.83614" lon="4.71535">
        <ele>301.83139</ele>
        <time>2022-08-06T14:39:02.000Z</time>
      </trkpt>
      <trkpt lat="45.83614" lon="4.71538">
        <ele>302.42416</ele>
        <time>2022-08-06T14:39:03.000Z</time>
      </trkpt>
      <trkpt lat="45.83614" lon="4.71541">
        <ele>302.92642</ele>
        <time>2022-08-06T14:39:04.000Z</time>
      </trkpt>
      <trkpt lat="45.83614" lon="4.71545">
        <ele>303.31207</ele>
        <time>2022-08-06T14:39:05.000Z</time>
      </trkpt>
      <trkpt lat="45.83614" lon="4.71548">
        <ele>303.7016</ele>
        <time>2022-08-06T14:39:06.000Z</time>
      </trkpt>
      <trkpt lat="45.83614" lon="4.71551">
        <ele>303.90707</ele>
        <time>2022-08-06T14:39:07.000Z</time>
      </trkpt>
      <trkpt lat="45.83615" lon="4.71558">
        <ele>303.96564</ele>
        <time>2022-08-06T14:39:10.000Z</time>
      </trkpt>
      <trkpt lat="45.83615" lon="4.71562">
        <ele>304.09656</ele>
        <time>2022-08-06T14:39:12.000Z</time>
      </trkpt>
      <trkpt lat="45.83616" lon="4.71569">
        <ele>304.14224</ele>
        <time>2022-08-06T14:39:15.000Z</time>
      </trkpt>
      <trkpt lat="45.83617" lon="4.71572">
        <ele>303.91217</ele>
        <time>2022-08-06T14:39:17.000Z</time>
      </trkpt>
      <trkpt lat="45.83618" lon="4.71575">
        <ele>303.43979</ele>
        <time>2022-08-06T14:39:19.000Z</time>
      </trkpt>
      <trkpt lat="45.8362" lon="4.71577">
        <ele>302.68103</ele>
        <time>2022-08-06T14:39:24.000Z</time>
      </trkpt>
      <trkpt lat="45.83619" lon="4.7158">
        <ele>301.73627</ele>
        <time>2022-08-06T14:39:41.000Z</time>
      </trkpt>
      <trkpt lat="45.83619" lon="4.71582">
        <ele>300.47708</ele>
        <time>2022-08-06T14:40:03.000Z</time>
      </trkpt>
      <trkpt lat="45.8362" lon="4.71586">
        <ele>298.90555</ele>
        <time>2022-08-06T14:40:07.000Z</time>
      </trkpt>
      <trkpt lat="45.8362" lon="4.71589">
        <ele>297.28107</ele>
        <time>2022-08-06T14:40:09.000Z</time>
      </trkpt>
      <trkpt lat="45.83621" lon="4.71591">
        <ele>295.59763</ele>
        <time>2022-08-06T14:40:11.000Z</time>
      </trkpt>
      <trkpt lat="45.83621" lon="4.71595">
        <ele>293.88898</ele>
        <time>2022-08-06T14:40:15.000Z</time>
      </trkpt>
      <trkpt lat="45.83621" lon="4.71599">
        <ele>292.46036</ele>
        <time>2022-08-06T14:40:18.000Z</time>
      </trkpt>
      <trkpt lat="45.83621" lon="4.71602">
        <ele>290.99338</ele>
        <time>2022-08-06T14:40:20.000Z</time>
      </trkpt>
      <trkpt lat="45.83621" lon="4.71604">
        <ele>289.61044</ele>
        <time>2022-08-06T14:40:22.000Z</time>
      </trkpt>
      <trkpt lat="45.83621" lon="4.71607">
        <ele>288.12976</ele>
        <time>2022-08-06T14:40:24.000Z</time>
      </trkpt>
      <trkpt lat="45.83621" lon="4.71611">
        <ele>286.62152</ele>
        <time>2022-08-06T14:40:26.000Z</time>
      </trkpt>
      <trkpt lat="45.83622" lon="4.71615">
        <ele>285.28903</ele>
        <time>2022-08-06T14:40:28.000Z</time>
      </trkpt>
      <trkpt lat="45.83623" lon="4.71618">
        <ele>284.02325</ele>
        <time>2022-08-06T14:40:30.000Z</time>
      </trkpt>
      <trkpt lat="45.83624" lon="4.71621">
        <ele>282.8898</ele>
        <time>2022-08-06T14:40:32.000Z</time>
      </trkpt>
      <trkpt lat="45.83627" lon="4.71626">
        <ele>281.76654</ele>
        <time>2022-08-06T14:40:35.000Z</time>
      </trkpt>
      <trkpt lat="45.83628" lon="4.71628">
        <ele>280.65399</ele>
        <time>2022-08-06T14:40:46.000Z</time>
      </trkpt>
      <trkpt lat="45.8363" lon="4.7163">
        <ele>279.59082</ele>
        <time>2022-08-06T14:41:10.000Z</time>
      </trkpt>
      <trkpt lat="45.83631" lon="4.71633">
        <ele>278.45404</ele>
        <time>2022-08-06T14:41:15.000Z</time>
      </trkpt>
      <trkpt lat="45.83632" lon="4.71636">
        <ele>277.4166</ele>
        <time>2022-08-06T14:41:18.000Z</time>
      </trkpt>
      <trkpt lat="45.83634" lon="4.71638">
        <ele>276.6366</ele>
        <time>2022-08-06T14:41:22.000Z</time>
      </trkpt>
      <trkpt lat="45.83637" lon="4.7164">
        <ele>275.81686</ele>
        <time>2022-08-06T14:41:24.000Z</time>
      </trkpt>
      <trkpt lat="45.8364" lon="4.71643">
        <ele>275.15442</ele>
        <time>2022-08-06T14:41:26.000Z</time>
      </trkpt>
      <trkpt lat="45.83642" lon="4.71645">
        <ele>274.43243</ele>
        <time>2022-08-06T14:41:28.000Z</time>
      </trkpt>
      <trkpt lat="45.83644" lon="4.71648">
        <ele>273.8537</ele>
        <time>2022-08-06T14:41:30.000Z</time>
      </trkpt>
      <trkpt lat="45.83645" lon="4.71649">
        <ele>273.34525</ele>
        <time>2022-08-06T14:41:32.000Z</time>
      </trkpt>
      <trkpt lat="45.83647" lon="4.71651">
        <ele>272.84952</ele>
        <time>2022-08-06T14:41:34.000Z</time>
      </trkpt>
      <trkpt lat="45.8365" lon="4.71653">
        <ele>272.15814</ele>
        <time>2022-08-06T14:41:37.000Z</time>
      </trkpt>
      <trkpt lat="45.83653" lon="4.71654">
        <ele>271.52243</ele>
        <time>2022-08-06T14:41:39.000Z</time>
      </trkpt>
      <trkpt lat="45.83657" lon="4.71656">
        <ele>270.70963</ele>
        <time>2022-08-06T14:41:42.000Z</time>
      </trkpt>
      <trkpt lat="45.8366" lon="4.71657">
        <ele>270.03546</ele>
        <time>2022-08-06T14:41:44.000Z</time>
      </trkpt>
      <trkpt lat="45.83663" lon="4.71657">
        <ele>269.42282</ele>
        <time>2022-08-06T14:41:46.000Z</time>
      </trkpt>
      <trkpt lat="45.83665" lon="4.71657">
        <ele>268.74307</ele>
        <time>2022-08-06T14:41:48.000Z</time>
      </trkpt>
      <trkpt lat="45.83667" lon="4.71656">
        <ele>267.90356</ele>
        <time>2022-08-06T14:41:50.000Z</time>
      </trkpt>
      <trkpt lat="45.83669" lon="4.71657">
        <ele>267.08591</ele>
        <time>2022-08-06T14:41:52.000Z</time>
      </trkpt>
      <trkpt lat="45.83669" lon="4.7166">
        <ele>266.38165</ele>
        <time>2022-08-06T14:41:56.000Z</time>
      </trkpt>
      <trkpt lat="45.83671" lon="4.7166">
        <ele>265.58545</ele>
        <time>2022-08-06T14:41:58.000Z</time>
      </trkpt>
      <trkpt lat="45.83674" lon="4.71659">
        <ele>264.79434</ele>
        <time>2022-08-06T14:42:00.000Z</time>
      </trkpt>
      <trkpt lat="45.83676" lon="4.71658">
        <ele>264.16409</ele>
        <time>2022-08-06T14:42:01.000Z</time>
      </trkpt>
      <trkpt lat="45.83678" lon="4.71657">
        <ele>263.63748</ele>
        <time>2022-08-06T14:42:02.000Z</time>
      </trkpt>
      <trkpt lat="45.8368" lon="4.71655">
        <ele>263.02264</ele>
        <time>2022-08-06T14:42:03.000Z</time>
      </trkpt>
      <trkpt lat="45.83683" lon="4.71654">
        <ele>262.6232</ele>
        <time>2022-08-06T14:42:05.000Z</time>
      </trkpt>
      <trkpt lat="45.83686" lon="4.71654">
        <ele>262.18811</ele>
        <time>2022-08-06T14:42:07.000Z</time>
      </trkpt>
      <trkpt lat="45.83688" lon="4.71654">
        <ele>261.80832</ele>
        <time>2022-08-06T14:42:08.000Z</time>
      </trkpt>
      <trkpt lat="45.83691" lon="4.71654">
        <ele>261.3721</ele>
        <time>2022-08-06T14:42:09.000Z</time>
      </trkpt>
      <trkpt lat="45.83693" lon="4.71653">
        <ele>260.90265</ele>
        <time>2022-08-06T14:42:10.000Z</time>
      </trkpt>
      <trkpt lat="45.83695" lon="4.71653">
        <ele>260.46957</ele>
        <time>2022-08-06T14:42:11.000Z</time>
      </trkpt>
      <trkpt lat="45.83698" lon="4.71656">
        <ele>260.21295</ele>
        <time>2022-08-06T14:42:12.000Z</time>
      </trkpt>
      <trkpt lat="45.83701" lon="4.7166">
        <ele>259.96295</ele>
        <time>2022-08-06T14:42:13.000Z</time>
      </trkpt>
      <trkpt lat="45.83704" lon="4.71666">
        <ele>259.99707</ele>
        <time>2022-08-06T14:42:14.000Z</time>
      </trkpt>
      <trkpt lat="45.8371" lon="4.71676">
        <ele>260.03455</ele>
        <time>2022-08-06T14:42:15.000Z</time>
      </trkpt>
      <trkpt lat="45.83713" lon="4.71681">
        <ele>260.08234</ele>
        <time>2022-08-06T14:42:16.000Z</time>
      </trkpt>
      <trkpt lat="45.83715" lon="4.71683">
        <ele>260.17767</ele>
        <time>2022-08-06T14:42:17.000Z</time>
      </trkpt>
      <trkpt lat="45.83717" lon="4.71688">
        <ele>260.43997</ele>
        <time>2022-08-06T14:42:18.000Z</time>
      </trkpt>
      <trkpt lat="45.83718" lon="4.71692">
        <ele>260.71567</ele>
        <time>2022-08-06T14:42:19.000Z</time>
      </trkpt>
      <trkpt lat="45.83721" lon="4.71695">
        <ele>261.00143</ele>
        <time>2022-08-06T14:42:21.000Z</time>
      </trkpt>
      <trkpt lat="45.83723" lon="4.71697">
        <ele>261.30585</ele>
        <time>2022-08-06T14:42:23.000Z</time>
      </trkpt>
      <trkpt lat="45.83722" lon="4.71694">
        <ele>261.64676</ele>
        <time>2022-08-06T14:42:25.000Z</time>
      </trkpt>
      <trkpt lat="45.83724" lon="4.71696">
        <ele>261.87076</ele>
        <time>2022-08-06T14:42:55.000Z</time>
      </trkpt>
      <trkpt lat="45.83724" lon="4.717">
        <ele>261.67731</ele>
        <time>2022-08-06T14:42:57.000Z</time>
      </trkpt>
      <trkpt lat="45.83724" lon="4.71704">
        <ele>261.46783</ele>
        <time>2022-08-06T14:42:58.000Z</time>
      </trkpt>
      <trkpt lat="45.83724" lon="4.71707">
        <ele>261.13739</ele>
        <time>2022-08-06T14:43:01.000Z</time>
      </trkpt>
      <trkpt lat="45.83722" lon="4.71704">
        <ele>260.89978</ele>
        <time>2022-08-06T14:43:09.000Z</time>
      </trkpt>
      <trkpt lat="45.8372" lon="4.71705">
        <ele>260.72083</ele>
        <time>2022-08-06T14:43:11.000Z</time>
      </trkpt>
      <trkpt lat="45.83718" lon="4.71707">
        <ele>260.46088</ele>
        <time>2022-08-06T14:43:12.000Z</time>
      </trkpt>
      <trkpt lat="45.83717" lon="4.71709">
        <ele>260.14557</ele>
        <time>2022-08-06T14:43:13.000Z</time>
      </trkpt>
      <trkpt lat="45.83715" lon="4.71711">
        <ele>259.88812</ele>
        <time>2022-08-06T14:43:14.000Z</time>
      </trkpt>
      <trkpt lat="45.83713" lon="4.71714">
        <ele>259.68109</ele>
        <time>2022-08-06T14:43:15.000Z</time>
      </trkpt>
      <trkpt lat="45.8371" lon="4.71719">
        <ele>259.46866</ele>
        <time>2022-08-06T14:43:16.000Z</time>
      </trkpt>
      <trkpt lat="45.83708" lon="4.71723">
        <ele>259.34534</ele>
        <time>2022-08-06T14:43:17.000Z</time>
      </trkpt>
      <trkpt lat="45.83705" lon="4.71728">
        <ele>259.27289</ele>
        <time>2022-08-06T14:43:18.000Z</time>
      </trkpt>
      <trkpt lat="45.83702" lon="4.71732">
        <ele>259.22687</ele>
        <time>2022-08-06T14:43:19.000Z</time>
      </trkpt>
      <trkpt lat="45.83699" lon="4.71735">
        <ele>259.20093</ele>
        <time>2022-08-06T14:43:20.000Z</time>
      </trkpt>
      <trkpt lat="45.83696" lon="4.71739">
        <ele>259.18475</ele>
        <time>2022-08-06T14:43:21.000Z</time>
      </trkpt>
      <trkpt lat="45.83693" lon="4.71743">
        <ele>259.09149</ele>
        <time>2022-08-06T14:43:22.000Z</time>
      </trkpt>
      <trkpt lat="45.8369" lon="4.71746">
        <ele>258.97687</ele>
        <time>2022-08-06T14:43:23.000Z</time>
      </trkpt>
      <trkpt lat="45.83688" lon="4.7175">
        <ele>258.77777</ele>
        <time>2022-08-06T14:43:24.000Z</time>
      </trkpt>
      <trkpt lat="45.83686" lon="4.71753">
        <ele>258.56226</ele>
        <time>2022-08-06T14:43:25.000Z</time>
      </trkpt>
      <trkpt lat="45.83684" lon="4.71755">
        <ele>258.36673</ele>
        <time>2022-08-06T14:43:26.000Z</time>
      </trkpt>
      <trkpt lat="45.83681" lon="4.71757">
        <ele>258.61877</ele>
        <time>2022-08-06T14:43:27.000Z</time>
      </trkpt>
      <trkpt lat="45.83679" lon="4.71759">
        <ele>258.82516</ele>
        <time>2022-08-06T14:43:28.000Z</time>
      </trkpt>
      <trkpt lat="45.83676" lon="4.71761">
        <ele>259.00812</ele>
        <time>2022-08-06T14:43:29.000Z</time>
      </trkpt>
      <trkpt lat="45.83674" lon="4.71762">
        <ele>259.22763</ele>
        <time>2022-08-06T14:43:30.000Z</time>
      </trkpt>
      <trkpt lat="45.83672" lon="4.71764">
        <ele>259.4357</ele>
        <time>2022-08-06T14:43:31.000Z</time>
      </trkpt>
      <trkpt lat="45.8367" lon="4.71765">
        <ele>259.73538</ele>
        <time>2022-08-06T14:43:32.000Z</time>
      </trkpt>
      <trkpt lat="45.83668" lon="4.71767">
        <ele>260.12421</ele>
        <time>2022-08-06T14:43:33.000Z</time>
      </trkpt>
      <trkpt lat="45.83666" lon="4.71768">
        <ele>260.43405</ele>
        <time>2022-08-06T14:43:34.000Z</time>
      </trkpt>
      <trkpt lat="45.83664" lon="4.71771">
        <ele>260.58539</ele>
        <time>2022-08-06T14:43:36.000Z</time>
      </trkpt>
      <trkpt lat="45.83662" lon="4.71775">
        <ele>260.76245</ele>
        <time>2022-08-06T14:43:38.000Z</time>
      </trkpt>
      <trkpt lat="45.8366" lon="4.71778">
        <ele>260.81284</ele>
        <time>2022-08-06T14:43:39.000Z</time>
      </trkpt>
      <trkpt lat="45.83659" lon="4.7178">
        <ele>260.8847</ele>
        <time>2022-08-06T14:43:40.000Z</time>
      </trkpt>
      <trkpt lat="45.83657" lon="4.71782">
        <ele>260.93274</ele>
        <time>2022-08-06T14:43:41.000Z</time>
      </trkpt>
      <trkpt lat="45.83656" lon="4.71784">
        <ele>260.95853</ele>
        <time>2022-08-06T14:43:42.000Z</time>
      </trkpt>
      <trkpt lat="45.83654" lon="4.71787">
        <ele>261.09833</ele>
        <time>2022-08-06T14:43:44.000Z</time>
      </trkpt>
      <trkpt lat="45.83652" lon="4.71788">
        <ele>261.4519</ele>
        <time>2022-08-06T14:43:46.000Z</time>
      </trkpt>
      <trkpt lat="45.83649" lon="4.71788">
        <ele>261.93582</ele>
        <time>2022-08-06T14:43:49.000Z</time>
      </trkpt>
      <trkpt lat="45.83647" lon="4.71789">
        <ele>262.47247</ele>
        <time>2022-08-06T14:43:50.000Z</time>
      </trkpt>
      <trkpt lat="45.83645" lon="4.7179">
        <ele>263.02106</ele>
        <time>2022-08-06T14:43:51.000Z</time>
      </trkpt>
      <trkpt lat="45.83642" lon="4.71792">
        <ele>263.69223</ele>
        <time>2022-08-06T14:43:53.000Z</time>
      </trkpt>
      <trkpt lat="45.83638" lon="4.71793">
        <ele>264.4299</ele>
        <time>2022-08-06T14:43:55.000Z</time>
      </trkpt>
      <trkpt lat="45.83634" lon="4.71794">
        <ele>265.17487</ele>
        <time>2022-08-06T14:43:56.000Z</time>
      </trkpt>
      <trkpt lat="45.8363" lon="4.71793">
        <ele>266.03693</ele>
        <time>2022-08-06T14:43:57.000Z</time>
      </trkpt>
      <trkpt lat="45.83626" lon="4.71793">
        <ele>266.86038</ele>
        <time>2022-08-06T14:43:58.000Z</time>
      </trkpt>
      <trkpt lat="45.8362" lon="4.71792">
        <ele>267.56131</ele>
        <time>2022-08-06T14:44:00.000Z</time>
      </trkpt>
      <trkpt lat="45.83618" lon="4.71792">
        <ele>268.23395</ele>
        <time>2022-08-06T14:44:01.000Z</time>
      </trkpt>
      <trkpt lat="45.83616" lon="4.71791">
        <ele>268.87955</ele>
        <time>2022-08-06T14:44:02.000Z</time>
      </trkpt>
      <trkpt lat="45.83614" lon="4.71791">
        <ele>269.52707</ele>
        <time>2022-08-06T14:44:04.000Z</time>
      </trkpt>
      <trkpt lat="45.83612" lon="4.7179">
        <ele>270.22247</ele>
        <time>2022-08-06T14:44:16.000Z</time>
      </trkpt>
      <trkpt lat="45.8361" lon="4.7179">
        <ele>270.92566</ele>
        <time>2022-08-06T14:45:34.000Z</time>
      </trkpt>
      <trkpt lat="45.83608" lon="4.71791">
        <ele>271.67709</ele>
        <time>2022-08-06T14:45:42.000Z</time>
      </trkpt>
      <trkpt lat="45.83608" lon="4.71794">
        <ele>272.3718</ele>
        <time>2022-08-06T14:45:55.000Z</time>
      </trkpt>
      <trkpt lat="45.83607" lon="4.71795">
        <ele>273.06592</ele>
        <time>2022-08-06T14:46:01.000Z</time>
      </trkpt>
      <trkpt lat="45.83608" lon="4.718">
        <ele>273.85794</ele>
        <time>2022-08-06T14:46:10.000Z</time>
      </trkpt>
      <trkpt lat="45.83609" lon="4.71803">
        <ele>274.46149</ele>
        <time>2022-08-06T14:46:11.000Z</time>
      </trkpt>
      <trkpt lat="45.83612" lon="4.71808">
        <ele>274.98126</ele>
        <time>2022-08-06T14:46:13.000Z</time>
      </trkpt>
      <trkpt lat="45.83613" lon="4.71811">
        <ele>275.39642</ele>
        <time>2022-08-06T14:46:15.000Z</time>
      </trkpt>
      <trkpt lat="45.83614" lon="4.71815">
        <ele>275.87515</ele>
        <time>2022-08-06T14:46:17.000Z</time>
      </trkpt>
      <trkpt lat="45.83615" lon="4.71817">
        <ele>276.31244</ele>
        <time>2022-08-06T14:46:18.000Z</time>
      </trkpt>
      <trkpt lat="45.83615" lon="4.7182">
        <ele>276.74905</ele>
        <time>2022-08-06T14:46:20.000Z</time>
      </trkpt>
      <trkpt lat="45.83618" lon="4.71825">
        <ele>277.15958</ele>
        <time>2022-08-06T14:46:23.000Z</time>
      </trkpt>
      <trkpt lat="45.83619" lon="4.71827">
        <ele>277.60214</ele>
        <time>2022-08-06T14:46:24.000Z</time>
      </trkpt>
      <trkpt lat="45.83621" lon="4.7183">
        <ele>278.03876</ele>
        <time>2022-08-06T14:46:25.000Z</time>
      </trkpt>
      <trkpt lat="45.83622" lon="4.71832">
        <ele>278.5358</ele>
        <time>2022-08-06T14:46:26.000Z</time>
      </trkpt>
      <trkpt lat="45.83625" lon="4.71835">
        <ele>279.10931</ele>
        <time>2022-08-06T14:46:28.000Z</time>
      </trkpt>
      <trkpt lat="45.83628" lon="4.71837">
        <ele>279.67944</ele>
        <time>2022-08-06T14:46:29.000Z</time>
      </trkpt>
      <trkpt lat="45.8363" lon="4.71839">
        <ele>280.24249</ele>
        <time>2022-08-06T14:46:30.000Z</time>
      </trkpt>
      <trkpt lat="45.83633" lon="4.71843">
        <ele>280.69485</ele>
        <time>2022-08-06T14:46:31.000Z</time>
      </trkpt>
      <trkpt lat="45.83636" lon="4.71847">
        <ele>281.19354</ele>
        <time>2022-08-06T14:46:32.000Z</time>
      </trkpt>
      <trkpt lat="45.83639" lon="4.7185">
        <ele>281.67865</ele>
        <time>2022-08-06T14:46:33.000Z</time>
      </trkpt>
      <trkpt lat="45.83642" lon="4.71854">
        <ele>282.12405</ele>
        <time>2022-08-06T14:46:34.000Z</time>
      </trkpt>
      <trkpt lat="45.83644" lon="4.71857">
        <ele>282.52454</ele>
        <time>2022-08-06T14:46:35.000Z</time>
      </trkpt>
      <trkpt lat="45.83647" lon="4.71861">
        <ele>282.88812</ele>
        <time>2022-08-06T14:46:36.000Z</time>
      </trkpt>
      <trkpt lat="45.83648" lon="4.71864">
        <ele>283.13071</ele>
        <time>2022-08-06T14:46:37.000Z</time>
      </trkpt>
      <trkpt lat="45.8365" lon="4.71868">
        <ele>283.20645</ele>
        <time>2022-08-06T14:46:38.000Z</time>
      </trkpt>
      <trkpt lat="45.83651" lon="4.71872">
        <ele>283.18777</ele>
        <time>2022-08-06T14:46:39.000Z</time>
      </trkpt>
      <trkpt lat="45.83652" lon="4.71877">
        <ele>283.24149</ele>
        <time>2022-08-06T14:46:40.000Z</time>
      </trkpt>
      <trkpt lat="45.83652" lon="4.71881">
        <ele>283.25467</ele>
        <time>2022-08-06T14:46:41.000Z</time>
      </trkpt>
      <trkpt lat="45.83653" lon="4.71885">
        <ele>283.26736</ele>
        <time>2022-08-06T14:46:42.000Z</time>
      </trkpt>
      <trkpt lat="45.83653" lon="4.7189">
        <ele>283.13611</ele>
        <time>2022-08-06T14:46:43.000Z</time>
      </trkpt>
      <trkpt lat="45.83653" lon="4.71895">
        <ele>282.92419</ele>
        <time>2022-08-06T14:46:44.000Z</time>
      </trkpt>
      <trkpt lat="45.83653" lon="4.71901">
        <ele>282.69727</ele>
        <time>2022-08-06T14:46:45.000Z</time>
      </trkpt>
      <trkpt lat="45.83653" lon="4.71907">
        <ele>282.26413</ele>
        <time>2022-08-06T14:46:46.000Z</time>
      </trkpt>
      <trkpt lat="45.83654" lon="4.71913">
        <ele>281.77618</ele>
        <time>2022-08-06T14:46:47.000Z</time>
      </trkpt>
      <trkpt lat="45.83654" lon="4.71919">
        <ele>281.29944</ele>
        <time>2022-08-06T14:46:48.000Z</time>
      </trkpt>
      <trkpt lat="45.83654" lon="4.71925">
        <ele>280.79926</ele>
        <time>2022-08-06T14:46:49.000Z</time>
      </trkpt>
      <trkpt lat="45.83654" lon="4.71931">
        <ele>280.36508</ele>
        <time>2022-08-06T14:46:50.000Z</time>
      </trkpt>
      <trkpt lat="45.83654" lon="4.71937">
        <ele>280.08188</ele>
        <time>2022-08-06T14:46:51.000Z</time>
      </trkpt>
      <trkpt lat="45.83654" lon="4.71942">
        <ele>279.77646</ele>
        <time>2022-08-06T14:46:52.000Z</time>
      </trkpt>
      <trkpt lat="45.83654" lon="4.71948">
        <ele>279.42169</ele>
        <time>2022-08-06T14:46:53.000Z</time>
      </trkpt>
      <trkpt lat="45.83654" lon="4.71953">
        <ele>279.16705</ele>
        <time>2022-08-06T14:46:54.000Z</time>
      </trkpt>
      <trkpt lat="45.83654" lon="4.71958">
        <ele>278.86752</ele>
        <time>2022-08-06T14:46:55.000Z</time>
      </trkpt>
      <trkpt lat="45.83654" lon="4.71964">
        <ele>278.56464</ele>
        <time>2022-08-06T14:46:56.000Z</time>
      </trkpt>
      <trkpt lat="45.83654" lon="4.71969">
        <ele>278.28757</ele>
        <time>2022-08-06T14:46:57.000Z</time>
      </trkpt>
      <trkpt lat="45.83654" lon="4.71974">
        <ele>278.16238</ele>
        <time>2022-08-06T14:46:58.000Z</time>
      </trkpt>
      <trkpt lat="45.83655" lon="4.7198">
        <ele>278.04388</ele>
        <time>2022-08-06T14:46:59.000Z</time>
      </trkpt>
      <trkpt lat="45.83655" lon="4.71985">
        <ele>277.88663</ele>
        <time>2022-08-06T14:47:00.000Z</time>
      </trkpt>
      <trkpt lat="45.83655" lon="4.71989">
        <ele>277.74896</ele>
        <time>2022-08-06T14:47:01.000Z</time>
      </trkpt>
      <trkpt lat="45.83655" lon="4.71994">
        <ele>277.57465</ele>
        <time>2022-08-06T14:47:02.000Z</time>
      </trkpt>
      <trkpt lat="45.83655" lon="4.71998">
        <ele>277.37378</ele>
        <time>2022-08-06T14:47:03.000Z</time>
      </trkpt>
      <trkpt lat="45.83655" lon="4.72002">
        <ele>277.19159</ele>
        <time>2022-08-06T14:47:04.000Z</time>
      </trkpt>
      <trkpt lat="45.83655" lon="4.72005">
        <ele>277.02029</ele>
        <time>2022-08-06T14:47:05.000Z</time>
      </trkpt>
      <trkpt lat="45.83655" lon="4.72009">
        <ele>276.99011</ele>
        <time>2022-08-06T14:47:06.000Z</time>
      </trkpt>
      <trkpt lat="45.83655" lon="4.72012">
        <ele>276.94278</ele>
        <time>2022-08-06T14:47:07.000Z</time>
      </trkpt>
      <trkpt lat="45.83655" lon="4.72015">
        <ele>276.84763</ele>
        <time>2022-08-06T14:47:08.000Z</time>
      </trkpt>
      <trkpt lat="45.83655" lon="4.72018">
        <ele>276.78729</ele>
        <time>2022-08-06T14:47:09.000Z</time>
      </trkpt>
      <trkpt lat="45.83656" lon="4.72021">
        <ele>276.63324</ele>
        <time>2022-08-06T14:47:10.000Z</time>
      </trkpt>
      <trkpt lat="45.83656" lon="4.72025">
        <ele>276.43555</ele>
        <time>2022-08-06T14:47:11.000Z</time>
      </trkpt>
      <trkpt lat="45.83655" lon="4.72029">
        <ele>276.20993</ele>
        <time>2022-08-06T14:47:13.000Z</time>
      </trkpt>
      <trkpt lat="45.83653" lon="4.72033">
        <ele>276.02579</ele>
        <time>2022-08-06T14:47:15.000Z</time>
      </trkpt>
      <trkpt lat="45.83653" lon="4.7203">
        <ele>275.76434</ele>
        <time>2022-08-06T14:47:24.000Z</time>
      </trkpt>
      <trkpt lat="45.83654" lon="4.72033">
        <ele>275.53522</ele>
        <time>2022-08-06T14:47:27.000Z</time>
      </trkpt>
      <trkpt lat="45.83653" lon="4.72036">
        <ele>275.41843</ele>
        <time>2022-08-06T14:47:39.000Z</time>
      </trkpt>
      <trkpt lat="45.83654" lon="4.72038">
        <ele>275.31674</ele>
        <time>2022-08-06T14:48:08.000Z</time>
      </trkpt>
      <trkpt lat="45.83653" lon="4.72036">
        <ele>275.07782</ele>
        <time>2022-08-06T14:49:18.000Z</time>
      </trkpt>
      <trkpt lat="45.83655" lon="4.72037">
        <ele>274.92633</ele>
        <time>2022-08-06T14:49:53.000Z</time>
      </trkpt>
      <trkpt lat="45.83656" lon="4.72039">
        <ele>274.74609</ele>
        <time>2022-08-06T14:49:54.000Z</time>
      </trkpt>
      <trkpt lat="45.83659" lon="4.72041">
        <ele>274.43628</ele>
        <time>2022-08-06T14:49:55.000Z</time>
      </trkpt>
      <trkpt lat="45.83663" lon="4.72042">
        <ele>274.17453</ele>
        <time>2022-08-06T14:49:56.000Z</time>
      </trkpt>
      <trkpt lat="45.83666" lon="4.72042">
        <ele>273.99982</ele>
        <time>2022-08-06T14:49:57.000Z</time>
      </trkpt>
      <trkpt lat="45.83669" lon="4.72042">
        <ele>273.75769</ele>
        <time>2022-08-06T14:49:58.000Z</time>
      </trkpt>
      <trkpt lat="45.83673" lon="4.72042">
        <ele>273.5275</ele>
        <time>2022-08-06T14:49:59.000Z</time>
      </trkpt>
      <trkpt lat="45.83677" lon="4.72041">
        <ele>273.35263</ele>
        <time>2022-08-06T14:50:00.000Z</time>
      </trkpt>
      <trkpt lat="45.83681" lon="4.72041">
        <ele>273.12375</ele>
        <time>2022-08-06T14:50:01.000Z</time>
      </trkpt>
      <trkpt lat="45.83685" lon="4.72041">
        <ele>272.93109</ele>
        <time>2022-08-06T14:50:02.000Z</time>
      </trkpt>
      <trkpt lat="45.83689" lon="4.72041">
        <ele>272.7215</ele>
        <time>2022-08-06T14:50:03.000Z</time>
      </trkpt>
      <trkpt lat="45.83694" lon="4.7204">
        <ele>272.56696</ele>
        <time>2022-08-06T14:50:04.000Z</time>
      </trkpt>
      <trkpt lat="45.83698" lon="4.7204">
        <ele>272.43057</ele>
        <time>2022-08-06T14:50:05.000Z</time>
      </trkpt>
      <trkpt lat="45.83705" lon="4.72039">
        <ele>272.31866</ele>
        <time>2022-08-06T14:50:06.000Z</time>
      </trkpt>
      <trkpt lat="45.8371" lon="4.7204">
        <ele>272.20514</ele>
        <time>2022-08-06T14:50:07.000Z</time>
      </trkpt>
      <trkpt lat="45.83715" lon="4.7204">
        <ele>272.02811</ele>
        <time>2022-08-06T14:50:08.000Z</time>
      </trkpt>
      <trkpt lat="45.8372" lon="4.72042">
        <ele>271.88007</ele>
        <time>2022-08-06T14:50:09.000Z</time>
      </trkpt>
      <trkpt lat="45.83724" lon="4.72042">
        <ele>271.61725</ele>
        <time>2022-08-06T14:50:10.000Z</time>
      </trkpt>
      <trkpt lat="45.83729" lon="4.72044">
        <ele>271.33124</ele>
        <time>2022-08-06T14:50:11.000Z</time>
      </trkpt>
      <trkpt lat="45.83734" lon="4.72045">
        <ele>271.1622</ele>
        <time>2022-08-06T14:50:12.000Z</time>
      </trkpt>
      <trkpt lat="45.83739" lon="4.72047">
        <ele>270.92889</ele>
        <time>2022-08-06T14:50:13.000Z</time>
      </trkpt>
      <trkpt lat="45.83743" lon="4.72049">
        <ele>270.72653</ele>
        <time>2022-08-06T14:50:14.000Z</time>
      </trkpt>
      <trkpt lat="45.83748" lon="4.72052">
        <ele>270.70547</ele>
        <time>2022-08-06T14:50:15.000Z</time>
      </trkpt>
      <trkpt lat="45.83753" lon="4.72054">
        <ele>270.59204</ele>
        <time>2022-08-06T14:50:16.000Z</time>
      </trkpt>
      <trkpt lat="45.83758" lon="4.72057">
        <ele>270.43842</ele>
        <time>2022-08-06T14:50:17.000Z</time>
      </trkpt>
      <trkpt lat="45.83762" lon="4.7206">
        <ele>270.32315</ele>
        <time>2022-08-06T14:50:18.000Z</time>
      </trkpt>
      <trkpt lat="45.83767" lon="4.72063">
        <ele>270.1933</ele>
        <time>2022-08-06T14:50:19.000Z</time>
      </trkpt>
      <trkpt lat="45.83773" lon="4.72066">
        <ele>270.05167</ele>
        <time>2022-08-06T14:50:20.000Z</time>
      </trkpt>
      <trkpt lat="45.83778" lon="4.72069">
        <ele>269.9726</ele>
        <time>2022-08-06T14:50:21.000Z</time>
      </trkpt>
      <trkpt lat="45.83783" lon="4.72072">
        <ele>269.92816</ele>
        <time>2022-08-06T14:50:22.000Z</time>
      </trkpt>
      <trkpt lat="45.83788" lon="4.72074">
        <ele>269.91364</ele>
        <time>2022-08-06T14:50:23.000Z</time>
      </trkpt>
      <trkpt lat="45.83793" lon="4.72077">
        <ele>269.93915</ele>
        <time>2022-08-06T14:50:24.000Z</time>
      </trkpt>
      <trkpt lat="45.83797" lon="4.72079">
        <ele>269.97083</ele>
        <time>2022-08-06T14:50:25.000Z</time>
      </trkpt>
      <trkpt lat="45.83803" lon="4.72082">
        <ele>270.02448</ele>
        <time>2022-08-06T14:50:26.000Z</time>
      </trkpt>
      <trkpt lat="45.83808" lon="4.72086">
        <ele>270.07816</ele>
        <time>2022-08-06T14:50:27.000Z</time>
      </trkpt>
      <trkpt lat="45.83813" lon="4.72088">
        <ele>270.19879</ele>
        <time>2022-08-06T14:50:28.000Z</time>
      </trkpt>
      <trkpt lat="45.83818" lon="4.72091">
        <ele>270.32587</ele>
        <time>2022-08-06T14:50:29.000Z</time>
      </trkpt>
      <trkpt lat="45.83824" lon="4.72095">
        <ele>270.452</ele>
        <time>2022-08-06T14:50:30.000Z</time>
      </trkpt>
      <trkpt lat="45.8383" lon="4.72098">
        <ele>270.59924</ele>
        <time>2022-08-06T14:50:31.000Z</time>
      </trkpt>
      <trkpt lat="45.83835" lon="4.72102">
        <ele>270.7915</ele>
        <time>2022-08-06T14:50:32.000Z</time>
      </trkpt>
      <trkpt lat="45.8384" lon="4.72105">
        <ele>270.9787</ele>
        <time>2022-08-06T14:50:33.000Z</time>
      </trkpt>
      <trkpt lat="45.83846" lon="4.72108">
        <ele>271.11993</ele>
        <time>2022-08-06T14:50:34.000Z</time>
      </trkpt>
      <trkpt lat="45.83851" lon="4.72111">
        <ele>271.23511</ele>
        <time>2022-08-06T14:50:35.000Z</time>
      </trkpt>
      <trkpt lat="45.83856" lon="4.72114">
        <ele>271.46063</ele>
        <time>2022-08-06T14:50:36.000Z</time>
      </trkpt>
      <trkpt lat="45.83861" lon="4.72118">
        <ele>271.64255</ele>
        <time>2022-08-06T14:50:37.000Z</time>
      </trkpt>
      <trkpt lat="45.83865" lon="4.72121">
        <ele>271.82571</ele>
        <time>2022-08-06T14:50:38.000Z</time>
      </trkpt>
      <trkpt lat="45.83869" lon="4.72125">
        <ele>272.01764</ele>
        <time>2022-08-06T14:50:39.000Z</time>
      </trkpt>
      <trkpt lat="45.83874" lon="4.72127">
        <ele>272.17087</ele>
        <time>2022-08-06T14:50:40.000Z</time>
      </trkpt>
      <trkpt lat="45.83879" lon="4.72132">
        <ele>272.3996</ele>
        <time>2022-08-06T14:50:41.000Z</time>
      </trkpt>
      <trkpt lat="45.83884" lon="4.72133">
        <ele>272.63873</ele>
        <time>2022-08-06T14:50:42.000Z</time>
      </trkpt>
      <trkpt lat="45.8389" lon="4.72135">
        <ele>272.82407</ele>
        <time>2022-08-06T14:50:43.000Z</time>
      </trkpt>
      <trkpt lat="45.83896" lon="4.72138">
        <ele>272.85175</ele>
        <time>2022-08-06T14:50:44.000Z</time>
      </trkpt>
      <trkpt lat="45.83902" lon="4.72146">
        <ele>272.90674</ele>
        <time>2022-08-06T14:50:46.000Z</time>
      </trkpt>
      <trkpt lat="45.83907" lon="4.7215">
        <ele>272.91739</ele>
        <time>2022-08-06T14:50:47.000Z</time>
      </trkpt>
      <trkpt lat="45.83913" lon="4.72153">
        <ele>272.96185</ele>
        <time>2022-08-06T14:50:48.000Z</time>
      </trkpt>
      <trkpt lat="45.83917" lon="4.72155">
        <ele>273.02911</ele>
        <time>2022-08-06T14:50:49.000Z</time>
      </trkpt>
      <trkpt lat="45.83923" lon="4.7216">
        <ele>272.9588</ele>
        <time>2022-08-06T14:50:50.000Z</time>
      </trkpt>
      <trkpt lat="45.83928" lon="4.72161">
        <ele>272.94806</ele>
        <time>2022-08-06T14:50:51.000Z</time>
      </trkpt>
      <trkpt lat="45.83933" lon="4.72162">
        <ele>272.88025</ele>
        <time>2022-08-06T14:50:52.000Z</time>
      </trkpt>
      <trkpt lat="45.83939" lon="4.72163">
        <ele>272.82306</ele>
        <time>2022-08-06T14:50:53.000Z</time>
      </trkpt>
      <trkpt lat="45.83945" lon="4.72163">
        <ele>272.81653</ele>
        <time>2022-08-06T14:50:54.000Z</time>
      </trkpt>
      <trkpt lat="45.83951" lon="4.72164">
        <ele>272.84503</ele>
        <time>2022-08-06T14:50:55.000Z</time>
      </trkpt>
      <trkpt lat="45.83955" lon="4.72166">
        <ele>272.85629</ele>
        <time>2022-08-06T14:50:56.000Z</time>
      </trkpt>
      <trkpt lat="45.83959" lon="4.72166">
        <ele>272.80191</ele>
        <time>2022-08-06T14:50:57.000Z</time>
      </trkpt>
      <trkpt lat="45.83964" lon="4.72166">
        <ele>272.78183</ele>
        <time>2022-08-06T14:50:58.000Z</time>
      </trkpt>
      <trkpt lat="45.83967" lon="4.72167">
        <ele>272.79166</ele>
        <time>2022-08-06T14:50:59.000Z</time>
      </trkpt>
      <trkpt lat="45.83971" lon="4.72168">
        <ele>272.70367</ele>
        <time>2022-08-06T14:51:00.000Z</time>
      </trkpt>
      <trkpt lat="45.83977" lon="4.72171">
        <ele>272.5571</ele>
        <time>2022-08-06T14:51:01.000Z</time>
      </trkpt>
      <trkpt lat="45.83981" lon="4.72173">
        <ele>272.27979</ele>
        <time>2022-08-06T14:51:02.000Z</time>
      </trkpt>
      <trkpt lat="45.83985" lon="4.7217">
        <ele>271.99136</ele>
        <time>2022-08-06T14:51:03.000Z</time>
      </trkpt>
      <trkpt lat="45.83988" lon="4.72171">
        <ele>271.78326</ele>
        <time>2022-08-06T14:51:04.000Z</time>
      </trkpt>
      <trkpt lat="45.83993" lon="4.72172">
        <ele>271.72137</ele>
        <time>2022-08-06T14:51:05.000Z</time>
      </trkpt>
      <trkpt lat="45.83995" lon="4.72172">
        <ele>271.62616</ele>
        <time>2022-08-06T14:51:06.000Z</time>
      </trkpt>
      <trkpt lat="45.83999" lon="4.7217">
        <ele>271.59253</ele>
        <time>2022-08-06T14:51:07.000Z</time>
      </trkpt>
      <trkpt lat="45.84002" lon="4.72172">
        <ele>271.5043</ele>
        <time>2022-08-06T14:51:09.000Z</time>
      </trkpt>
      <trkpt lat="45.84005" lon="4.72171">
        <ele>271.33667</ele>
        <time>2022-08-06T14:51:10.000Z</time>
      </trkpt>
      <trkpt lat="45.84007" lon="4.72171">
        <ele>271.32294</ele>
        <time>2022-08-06T14:51:11.000Z</time>
      </trkpt>
      <trkpt lat="45.8401" lon="4.72171">
        <ele>271.23923</ele>
        <time>2022-08-06T14:51:12.000Z</time>
      </trkpt>
      <trkpt lat="45.84012" lon="4.72171">
        <ele>271.18619</ele>
        <time>2022-08-06T14:51:13.000Z</time>
      </trkpt>
      <trkpt lat="45.84014" lon="4.72171">
        <ele>271.19312</ele>
        <time>2022-08-06T14:51:14.000Z</time>
      </trkpt>
      <trkpt lat="45.84016" lon="4.72171">
        <ele>271.17181</ele>
        <time>2022-08-06T14:51:15.000Z</time>
      </trkpt>
      <trkpt lat="45.84018" lon="4.72172">
        <ele>271.15451</ele>
        <time>2022-08-06T14:51:16.000Z</time>
      </trkpt>
      <trkpt lat="45.84021" lon="4.72173">
        <ele>271.12125</ele>
        <time>2022-08-06T14:51:17.000Z</time>
      </trkpt>
      <trkpt lat="45.84023" lon="4.72173">
        <ele>271.16083</ele>
        <time>2022-08-06T14:51:18.000Z</time>
      </trkpt>
      <trkpt lat="45.84026" lon="4.72173">
        <ele>271.19336</ele>
        <time>2022-08-06T14:51:19.000Z</time>
      </trkpt>
      <trkpt lat="45.8403" lon="4.72172">
        <ele>271.19116</ele>
        <time>2022-08-06T14:51:21.000Z</time>
      </trkpt>
      <trkpt lat="45.84032" lon="4.72172">
        <ele>271.26215</ele>
        <time>2022-08-06T14:51:22.000Z</time>
      </trkpt>
      <trkpt lat="45.84035" lon="4.72172">
        <ele>271.42984</ele>
        <time>2022-08-06T14:51:23.000Z</time>
      </trkpt>
      <trkpt lat="45.84038" lon="4.72171">
        <ele>271.71564</ele>
        <time>2022-08-06T14:51:24.000Z</time>
      </trkpt>
      <trkpt lat="45.84041" lon="4.7217">
        <ele>271.9118</ele>
        <time>2022-08-06T14:51:25.000Z</time>
      </trkpt>
      <trkpt lat="45.84044" lon="4.72169">
        <ele>272.13388</ele>
        <time>2022-08-06T14:51:26.000Z</time>
      </trkpt>
      <trkpt lat="45.84046" lon="4.72168">
        <ele>272.34714</ele>
        <time>2022-08-06T14:51:27.000Z</time>
      </trkpt>
      <trkpt lat="45.84049" lon="4.72166">
        <ele>272.56995</ele>
        <time>2022-08-06T14:51:28.000Z</time>
      </trkpt>
      <trkpt lat="45.84051" lon="4.72165">
        <ele>272.79254</ele>
        <time>2022-08-06T14:51:29.000Z</time>
      </trkpt>
      <trkpt lat="45.84053" lon="4.72164">
        <ele>273.06415</ele>
        <time>2022-08-06T14:51:30.000Z</time>
      </trkpt>
      <trkpt lat="45.84055" lon="4.72161">
        <ele>273.39792</ele>
        <time>2022-08-06T14:51:31.000Z</time>
      </trkpt>
      <trkpt lat="45.84058" lon="4.7216">
        <ele>273.72821</ele>
        <time>2022-08-06T14:51:32.000Z</time>
      </trkpt>
      <trkpt lat="45.8406" lon="4.72158">
        <ele>274.16907</ele>
        <time>2022-08-06T14:51:33.000Z</time>
      </trkpt>
      <trkpt lat="45.84062" lon="4.72156">
        <ele>274.69162</ele>
        <time>2022-08-06T14:51:34.000Z</time>
      </trkpt>
      <trkpt lat="45.84064" lon="4.72155">
        <ele>275.16937</ele>
        <time>2022-08-06T14:51:35.000Z</time>
      </trkpt>
      <trkpt lat="45.84066" lon="4.72153">
        <ele>275.66284</ele>
        <time>2022-08-06T14:51:36.000Z</time>
      </trkpt>
      <trkpt lat="45.84069" lon="4.72151">
        <ele>276.12857</ele>
        <time>2022-08-06T14:51:37.000Z</time>
      </trkpt>
      <trkpt lat="45.84072" lon="4.72148">
        <ele>276.50494</ele>
        <time>2022-08-06T14:51:38.000Z</time>
      </trkpt>
      <trkpt lat="45.84076" lon="4.72146">
        <ele>276.82861</ele>
        <time>2022-08-06T14:51:39.000Z</time>
      </trkpt>
      <trkpt lat="45.8408" lon="4.72143">
        <ele>277.13141</ele>
        <time>2022-08-06T14:51:40.000Z</time>
      </trkpt>
      <trkpt lat="45.84084" lon="4.72141">
        <ele>277.46375</ele>
        <time>2022-08-06T14:51:41.000Z</time>
      </trkpt>
      <trkpt lat="45.84087" lon="4.72139">
        <ele>277.75336</ele>
        <time>2022-08-06T14:51:42.000Z</time>
      </trkpt>
      <trkpt lat="45.8409" lon="4.72138">
        <ele>277.98627</ele>
        <time>2022-08-06T14:51:43.000Z</time>
      </trkpt>
      <trkpt lat="45.84094" lon="4.72136">
        <ele>278.04144</ele>
        <time>2022-08-06T14:51:44.000Z</time>
      </trkpt>
      <trkpt lat="45.84097" lon="4.72133">
        <ele>278.09775</ele>
        <time>2022-08-06T14:51:45.000Z</time>
      </trkpt>
      <trkpt lat="45.84101" lon="4.72132">
        <ele>278.09521</ele>
        <time>2022-08-06T14:51:46.000Z</time>
      </trkpt>
      <trkpt lat="45.84103" lon="4.7213">
        <ele>278.15417</ele>
        <time>2022-08-06T14:51:47.000Z</time>
      </trkpt>
      <trkpt lat="45.84106" lon="4.7213">
        <ele>278.19543</ele>
        <time>2022-08-06T14:51:48.000Z</time>
      </trkpt>
      <trkpt lat="45.84109" lon="4.72129">
        <ele>278.19098</ele>
        <time>2022-08-06T14:51:49.000Z</time>
      </trkpt>
      <trkpt lat="45.84112" lon="4.72127">
        <ele>278.14597</ele>
        <time>2022-08-06T14:51:50.000Z</time>
      </trkpt>
      <trkpt lat="45.84115" lon="4.72126">
        <ele>278.13605</ele>
        <time>2022-08-06T14:51:51.000Z</time>
      </trkpt>
      <trkpt lat="45.84117" lon="4.72124">
        <ele>278.08801</ele>
        <time>2022-08-06T14:51:52.000Z</time>
      </trkpt>
      <trkpt lat="45.84121" lon="4.72121">
        <ele>278.01984</ele>
        <time>2022-08-06T14:51:53.000Z</time>
      </trkpt>
      <trkpt lat="45.84125" lon="4.72118">
        <ele>277.88373</ele>
        <time>2022-08-06T14:51:54.000Z</time>
      </trkpt>
      <trkpt lat="45.84128" lon="4.72115">
        <ele>277.73141</ele>
        <time>2022-08-06T14:51:55.000Z</time>
      </trkpt>
      <trkpt lat="45.84131" lon="4.72112">
        <ele>277.50101</ele>
        <time>2022-08-06T14:51:56.000Z</time>
      </trkpt>
      <trkpt lat="45.84134" lon="4.72109">
        <ele>277.24866</ele>
        <time>2022-08-06T14:51:57.000Z</time>
      </trkpt>
      <trkpt lat="45.84138" lon="4.72105">
        <ele>277.10321</ele>
        <time>2022-08-06T14:51:58.000Z</time>
      </trkpt>
      <trkpt lat="45.84142" lon="4.72101">
        <ele>276.95404</ele>
        <time>2022-08-06T14:51:59.000Z</time>
      </trkpt>
      <trkpt lat="45.84146" lon="4.72098">
        <ele>276.90009</ele>
        <time>2022-08-06T14:52:00.000Z</time>
      </trkpt>
      <trkpt lat="45.84149" lon="4.72095">
        <ele>276.75363</ele>
        <time>2022-08-06T14:52:01.000Z</time>
      </trkpt>
      <trkpt lat="45.84153" lon="4.72092">
        <ele>276.63971</ele>
        <time>2022-08-06T14:52:02.000Z</time>
      </trkpt>
      <trkpt lat="45.84156" lon="4.72089">
        <ele>276.56122</ele>
        <time>2022-08-06T14:52:03.000Z</time>
      </trkpt>
      <trkpt lat="45.8416" lon="4.72086">
        <ele>276.5838</ele>
        <time>2022-08-06T14:52:04.000Z</time>
      </trkpt>
      <trkpt lat="45.84163" lon="4.72083">
        <ele>276.56451</ele>
        <time>2022-08-06T14:52:05.000Z</time>
      </trkpt>
      <trkpt lat="45.84167" lon="4.72079">
        <ele>276.53244</ele>
        <time>2022-08-06T14:52:06.000Z</time>
      </trkpt>
      <trkpt lat="45.8417" lon="4.72076">
        <ele>276.39612</ele>
        <time>2022-08-06T14:52:07.000Z</time>
      </trkpt>
      <trkpt lat="45.84173" lon="4.72073">
        <ele>276.25394</ele>
        <time>2022-08-06T14:52:08.000Z</time>
      </trkpt>
      <trkpt lat="45.84176" lon="4.7207">
        <ele>276.10715</ele>
        <time>2022-08-06T14:52:09.000Z</time>
      </trkpt>
      <trkpt lat="45.84179" lon="4.72066">
        <ele>275.92767</ele>
        <time>2022-08-06T14:52:10.000Z</time>
      </trkpt>
      <trkpt lat="45.84182" lon="4.72063">
        <ele>275.67767</ele>
        <time>2022-08-06T14:52:11.000Z</time>
      </trkpt>
      <trkpt lat="45.84186" lon="4.72059">
        <ele>275.46631</ele>
        <time>2022-08-06T14:52:12.000Z</time>
      </trkpt>
      <trkpt lat="45.84189" lon="4.72056">
        <ele>275.17654</ele>
        <time>2022-08-06T14:52:13.000Z</time>
      </trkpt>
      <trkpt lat="45.84191" lon="4.72054">
        <ele>274.87518</ele>
        <time>2022-08-06T14:52:14.000Z</time>
      </trkpt>
      <trkpt lat="45.84194" lon="4.72051">
        <ele>274.53159</ele>
        <time>2022-08-06T14:52:15.000Z</time>
      </trkpt>
      <trkpt lat="45.84197" lon="4.72048">
        <ele>274.23114</ele>
        <time>2022-08-06T14:52:16.000Z</time>
      </trkpt>
      <trkpt lat="45.842" lon="4.72046">
        <ele>273.8786</ele>
        <time>2022-08-06T14:52:17.000Z</time>
      </trkpt>
      <trkpt lat="45.84202" lon="4.72043">
        <ele>273.53961</ele>
        <time>2022-08-06T14:52:18.000Z</time>
      </trkpt>
      <trkpt lat="45.84204" lon="4.72041">
        <ele>273.22675</ele>
        <time>2022-08-06T14:52:19.000Z</time>
      </trkpt>
      <trkpt lat="45.84207" lon="4.72039">
        <ele>272.84421</ele>
        <time>2022-08-06T14:52:20.000Z</time>
      </trkpt>
      <trkpt lat="45.8421" lon="4.72036">
        <ele>272.50278</ele>
        <time>2022-08-06T14:52:21.000Z</time>
      </trkpt>
      <trkpt lat="45.84212" lon="4.72034">
        <ele>272.20535</ele>
        <time>2022-08-06T14:52:22.000Z</time>
      </trkpt>
      <trkpt lat="45.84215" lon="4.72032">
        <ele>271.90543</ele>
        <time>2022-08-06T14:52:23.000Z</time>
      </trkpt>
      <trkpt lat="45.84218" lon="4.7203">
        <ele>271.61172</ele>
        <time>2022-08-06T14:52:24.000Z</time>
      </trkpt>
      <trkpt lat="45.84221" lon="4.72029">
        <ele>271.39618</ele>
        <time>2022-08-06T14:52:25.000Z</time>
      </trkpt>
      <trkpt lat="45.84224" lon="4.72027">
        <ele>271.13501</ele>
        <time>2022-08-06T14:52:26.000Z</time>
      </trkpt>
      <trkpt lat="45.84227" lon="4.72026">
        <ele>270.8587</ele>
        <time>2022-08-06T14:52:27.000Z</time>
      </trkpt>
      <trkpt lat="45.8423" lon="4.72025">
        <ele>270.60086</ele>
        <time>2022-08-06T14:52:28.000Z</time>
      </trkpt>
      <trkpt lat="45.84233" lon="4.72024">
        <ele>270.37982</ele>
        <time>2022-08-06T14:52:29.000Z</time>
      </trkpt>
      <trkpt lat="45.84235" lon="4.72024">
        <ele>270.20575</ele>
        <time>2022-08-06T14:52:30.000Z</time>
      </trkpt>
      <trkpt lat="45.84237" lon="4.72023">
        <ele>269.95935</ele>
        <time>2022-08-06T14:52:31.000Z</time>
      </trkpt>
      <trkpt lat="45.84243" lon="4.7202">
        <ele>269.68524</ele>
        <time>2022-08-06T14:52:33.000Z</time>
      </trkpt>
      <trkpt lat="45.84246" lon="4.72018">
        <ele>269.42438</ele>
        <time>2022-08-06T14:52:34.000Z</time>
      </trkpt>
      <trkpt lat="45.84249" lon="4.72017">
        <ele>269.1756</ele>
        <time>2022-08-06T14:52:35.000Z</time>
      </trkpt>
      <trkpt lat="45.8425" lon="4.72016">
        <ele>268.9505</ele>
        <time>2022-08-06T14:52:36.000Z</time>
      </trkpt>
      <trkpt lat="45.84253" lon="4.72014">
        <ele>268.80429</ele>
        <time>2022-08-06T14:52:38.000Z</time>
      </trkpt>
      <trkpt lat="45.84255" lon="4.72014">
        <ele>268.6911</ele>
        <time>2022-08-06T14:52:52.000Z</time>
      </trkpt>
      <trkpt lat="45.84258" lon="4.72011">
        <ele>268.47916</ele>
        <time>2022-08-06T14:52:54.000Z</time>
      </trkpt>
      <trkpt lat="45.8426" lon="4.7201">
        <ele>268.22543</ele>
        <time>2022-08-06T14:52:55.000Z</time>
      </trkpt>
      <trkpt lat="45.84262" lon="4.72008">
        <ele>267.94485</ele>
        <time>2022-08-06T14:52:56.000Z</time>
      </trkpt>
      <trkpt lat="45.84264" lon="4.72007">
        <ele>267.70743</ele>
        <time>2022-08-06T14:52:57.000Z</time>
      </trkpt>
      <trkpt lat="45.84267" lon="4.72005">
        <ele>267.39609</ele>
        <time>2022-08-06T14:52:58.000Z</time>
      </trkpt>
      <trkpt lat="45.8427" lon="4.72003">
        <ele>267.0051</ele>
        <time>2022-08-06T14:52:59.000Z</time>
      </trkpt>
      <trkpt lat="45.84273" lon="4.72001">
        <ele>266.60181</ele>
        <time>2022-08-06T14:53:00.000Z</time>
      </trkpt>
      <trkpt lat="45.84277" lon="4.71999">
        <ele>266.25766</ele>
        <time>2022-08-06T14:53:01.000Z</time>
      </trkpt>
      <trkpt lat="45.84281" lon="4.71997">
        <ele>265.92529</ele>
        <time>2022-08-06T14:53:02.000Z</time>
      </trkpt>
      <trkpt lat="45.84284" lon="4.71995">
        <ele>265.61432</ele>
        <time>2022-08-06T14:53:03.000Z</time>
      </trkpt>
      <trkpt lat="45.84288" lon="4.71993">
        <ele>265.29752</ele>
        <time>2022-08-06T14:53:04.000Z</time>
      </trkpt>
      <trkpt lat="45.84292" lon="4.7199">
        <ele>264.93988</ele>
        <time>2022-08-06T14:53:05.000Z</time>
      </trkpt>
      <trkpt lat="45.84295" lon="4.71988">
        <ele>264.61209</ele>
        <time>2022-08-06T14:53:06.000Z</time>
      </trkpt>
      <trkpt lat="45.84299" lon="4.71986">
        <ele>264.35977</ele>
        <time>2022-08-06T14:53:07.000Z</time>
      </trkpt>
      <trkpt lat="45.84303" lon="4.71984">
        <ele>264.09634</ele>
        <time>2022-08-06T14:53:08.000Z</time>
      </trkpt>
      <trkpt lat="45.84307" lon="4.71982">
        <ele>263.80182</ele>
        <time>2022-08-06T14:53:09.000Z</time>
      </trkpt>
      <trkpt lat="45.84311" lon="4.7198">
        <ele>263.48965</ele>
        <time>2022-08-06T14:53:10.000Z</time>
      </trkpt>
      <trkpt lat="45.84315" lon="4.71979">
        <ele>263.11554</ele>
        <time>2022-08-06T14:53:11.000Z</time>
      </trkpt>
      <trkpt lat="45.8432" lon="4.71977">
        <ele>262.66541</ele>
        <time>2022-08-06T14:53:12.000Z</time>
      </trkpt>
      <trkpt lat="45.84324" lon="4.71975">
        <ele>262.28308</ele>
        <time>2022-08-06T14:53:13.000Z</time>
      </trkpt>
      <trkpt lat="45.84328" lon="4.71973">
        <ele>261.96332</ele>
        <time>2022-08-06T14:53:14.000Z</time>
      </trkpt>
      <trkpt lat="45.84332" lon="4.71971">
        <ele>261.65472</ele>
        <time>2022-08-06T14:53:15.000Z</time>
      </trkpt>
      <trkpt lat="45.84335" lon="4.7197">
        <ele>261.37054</ele>
        <time>2022-08-06T14:53:16.000Z</time>
      </trkpt>
      <trkpt lat="45.84339" lon="4.71968">
        <ele>261.06717</ele>
        <time>2022-08-06T14:53:17.000Z</time>
      </trkpt>
      <trkpt lat="45.84343" lon="4.71966">
        <ele>260.77887</ele>
        <time>2022-08-06T14:53:18.000Z</time>
      </trkpt>
      <trkpt lat="45.84347" lon="4.71965">
        <ele>260.48105</ele>
        <time>2022-08-06T14:53:19.000Z</time>
      </trkpt>
      <trkpt lat="45.84351" lon="4.71963">
        <ele>260.21503</ele>
        <time>2022-08-06T14:53:20.000Z</time>
      </trkpt>
      <trkpt lat="45.84355" lon="4.71962">
        <ele>259.86981</ele>
        <time>2022-08-06T14:53:21.000Z</time>
      </trkpt>
      <trkpt lat="45.84358" lon="4.71961">
        <ele>259.65167</ele>
        <time>2022-08-06T14:53:22.000Z</time>
      </trkpt>
      <trkpt lat="45.84361" lon="4.7196">
        <ele>259.45215</ele>
        <time>2022-08-06T14:53:23.000Z</time>
      </trkpt>
      <trkpt lat="45.84364" lon="4.71959">
        <ele>259.24139</ele>
        <time>2022-08-06T14:53:24.000Z</time>
      </trkpt>
      <trkpt lat="45.84367" lon="4.71958">
        <ele>259.04819</ele>
        <time>2022-08-06T14:53:25.000Z</time>
      </trkpt>
      <trkpt lat="45.84371" lon="4.71957">
        <ele>258.77835</ele>
        <time>2022-08-06T14:53:26.000Z</time>
      </trkpt>
      <trkpt lat="45.84375" lon="4.71956">
        <ele>258.57489</ele>
        <time>2022-08-06T14:53:27.000Z</time>
      </trkpt>
      <trkpt lat="45.84379" lon="4.71956">
        <ele>258.45081</ele>
        <time>2022-08-06T14:53:28.000Z</time>
      </trkpt>
      <trkpt lat="45.84388" lon="4.71953">
        <ele>258.36984</ele>
        <time>2022-08-06T14:53:30.000Z</time>
      </trkpt>
      <trkpt lat="45.844" lon="4.71947">
        <ele>258.22723</ele>
        <time>2022-08-06T14:53:32.000Z</time>
      </trkpt>
      <trkpt lat="45.84408" lon="4.71944">
        <ele>258.14569</ele>
        <time>2022-08-06T14:53:34.000Z</time>
      </trkpt>
      <trkpt lat="45.84414" lon="4.71942">
        <ele>258.00616</ele>
        <time>2022-08-06T14:53:35.000Z</time>
      </trkpt>
      <trkpt lat="45.84417" lon="4.71942">
        <ele>257.91031</ele>
        <time>2022-08-06T14:53:36.000Z</time>
      </trkpt>
      <trkpt lat="45.84421" lon="4.71941">
        <ele>257.83508</ele>
        <time>2022-08-06T14:53:37.000Z</time>
      </trkpt>
      <trkpt lat="45.84423" lon="4.71941">
        <ele>257.8074</ele>
        <time>2022-08-06T14:53:38.000Z</time>
      </trkpt>
      <trkpt lat="45.84428" lon="4.71941">
        <ele>257.7099</ele>
        <time>2022-08-06T14:53:39.000Z</time>
      </trkpt>
      <trkpt lat="45.84432" lon="4.7194">
        <ele>257.64252</ele>
        <time>2022-08-06T14:53:40.000Z</time>
      </trkpt>
      <trkpt lat="45.84436" lon="4.71939">
        <ele>257.57288</ele>
        <time>2022-08-06T14:53:41.000Z</time>
      </trkpt>
      <trkpt lat="45.84439" lon="4.71939">
        <ele>257.60406</ele>
        <time>2022-08-06T14:53:42.000Z</time>
      </trkpt>
      <trkpt lat="45.84442" lon="4.71938">
        <ele>257.71579</ele>
        <time>2022-08-06T14:53:43.000Z</time>
      </trkpt>
      <trkpt lat="45.84445" lon="4.71936">
        <ele>257.90363</ele>
        <time>2022-08-06T14:53:44.000Z</time>
      </trkpt>
      <trkpt lat="45.84449" lon="4.71935">
        <ele>258.01138</ele>
        <time>2022-08-06T14:53:45.000Z</time>
      </trkpt>
      <trkpt lat="45.84452" lon="4.71934">
        <ele>258.14603</ele>
        <time>2022-08-06T14:53:46.000Z</time>
      </trkpt>
      <trkpt lat="45.84456" lon="4.71933">
        <ele>258.28119</ele>
        <time>2022-08-06T14:53:47.000Z</time>
      </trkpt>
      <trkpt lat="45.8446" lon="4.71932">
        <ele>258.42474</ele>
        <time>2022-08-06T14:53:48.000Z</time>
      </trkpt>
      <trkpt lat="45.84464" lon="4.7193">
        <ele>258.56747</ele>
        <time>2022-08-06T14:53:49.000Z</time>
      </trkpt>
      <trkpt lat="45.8447" lon="4.71925">
        <ele>258.63544</ele>
        <time>2022-08-06T14:53:50.000Z</time>
      </trkpt>
      <trkpt lat="45.84474" lon="4.71923">
        <ele>258.62866</ele>
        <time>2022-08-06T14:53:51.000Z</time>
      </trkpt>
      <trkpt lat="45.84479" lon="4.71919">
        <ele>258.65799</ele>
        <time>2022-08-06T14:53:52.000Z</time>
      </trkpt>
      <trkpt lat="45.84485" lon="4.71917">
        <ele>258.76407</ele>
        <time>2022-08-06T14:53:53.000Z</time>
      </trkpt>
      <trkpt lat="45.84491" lon="4.71913">
        <ele>258.82141</ele>
        <time>2022-08-06T14:53:54.000Z</time>
      </trkpt>
      <trkpt lat="45.84493" lon="4.71912">
        <ele>258.99686</ele>
        <time>2022-08-06T14:53:55.000Z</time>
      </trkpt>
      <trkpt lat="45.84496" lon="4.71911">
        <ele>259.11224</ele>
        <time>2022-08-06T14:53:56.000Z</time>
      </trkpt>
      <trkpt lat="45.84499" lon="4.71907">
        <ele>259.27734</ele>
        <time>2022-08-06T14:53:58.000Z</time>
      </trkpt>
      <trkpt lat="45.84504" lon="4.71902">
        <ele>259.33224</ele>
        <time>2022-08-06T14:53:59.000Z</time>
      </trkpt>
      <trkpt lat="45.84512" lon="4.71897">
        <ele>259.35242</ele>
        <time>2022-08-06T14:54:00.000Z</time>
      </trkpt>
      <trkpt lat="45.84517" lon="4.71892">
        <ele>259.26678</ele>
        <time>2022-08-06T14:54:01.000Z</time>
      </trkpt>
      <trkpt lat="45.84521" lon="4.71889">
        <ele>259.16425</ele>
        <time>2022-08-06T14:54:02.000Z</time>
      </trkpt>
      <trkpt lat="45.84524" lon="4.71886">
        <ele>259.09418</ele>
        <time>2022-08-06T14:54:03.000Z</time>
      </trkpt>
      <trkpt lat="45.84527" lon="4.71883">
        <ele>259.01041</ele>
        <time>2022-08-06T14:54:04.000Z</time>
      </trkpt>
      <trkpt lat="45.84529" lon="4.71881">
        <ele>258.91721</ele>
        <time>2022-08-06T14:54:05.000Z</time>
      </trkpt>
      <trkpt lat="45.84533" lon="4.71879">
        <ele>258.73126</ele>
        <time>2022-08-06T14:54:06.000Z</time>
      </trkpt>
      <trkpt lat="45.84535" lon="4.71878">
        <ele>258.49042</ele>
        <time>2022-08-06T14:54:07.000Z</time>
      </trkpt>
      <trkpt lat="45.84537" lon="4.71876">
        <ele>258.26215</ele>
        <time>2022-08-06T14:54:08.000Z</time>
      </trkpt>
      <trkpt lat="45.84542" lon="4.71873">
        <ele>258.02692</ele>
        <time>2022-08-06T14:54:09.000Z</time>
      </trkpt>
      <trkpt lat="45.84546" lon="4.7187">
        <ele>257.7804</ele>
        <time>2022-08-06T14:54:10.000Z</time>
      </trkpt>
      <trkpt lat="45.84549" lon="4.71868">
        <ele>257.55637</ele>
        <time>2022-08-06T14:54:11.000Z</time>
      </trkpt>
      <trkpt lat="45.84553" lon="4.71866">
        <ele>257.3327</ele>
        <time>2022-08-06T14:54:12.000Z</time>
      </trkpt>
      <trkpt lat="45.84556" lon="4.71863">
        <ele>257.10071</ele>
        <time>2022-08-06T14:54:13.000Z</time>
      </trkpt>
      <trkpt lat="45.84559" lon="4.71861">
        <ele>256.86734</ele>
        <time>2022-08-06T14:54:14.000Z</time>
      </trkpt>
      <trkpt lat="45.84562" lon="4.71859">
        <ele>256.75323</ele>
        <time>2022-08-06T14:54:15.000Z</time>
      </trkpt>
      <trkpt lat="45.84566" lon="4.71857">
        <ele>256.58524</ele>
        <time>2022-08-06T14:54:16.000Z</time>
      </trkpt>
      <trkpt lat="45.84569" lon="4.71855">
        <ele>256.42419</ele>
        <time>2022-08-06T14:54:17.000Z</time>
      </trkpt>
      <trkpt lat="45.84572" lon="4.71853">
        <ele>256.22382</ele>
        <time>2022-08-06T14:54:18.000Z</time>
      </trkpt>
      <trkpt lat="45.84575" lon="4.7185">
        <ele>256.11459</ele>
        <time>2022-08-06T14:54:19.000Z</time>
      </trkpt>
      <trkpt lat="45.84577" lon="4.71848">
        <ele>256.13</ele>
        <time>2022-08-06T14:54:20.000Z</time>
      </trkpt>
      <trkpt lat="45.8458" lon="4.71847">
        <ele>256.18246</ele>
        <time>2022-08-06T14:54:21.000Z</time>
      </trkpt>
      <trkpt lat="45.84582" lon="4.71845">
        <ele>256.29361</ele>
        <time>2022-08-06T14:54:22.000Z</time>
      </trkpt>
      <trkpt lat="45.84584" lon="4.71843">
        <ele>256.37717</ele>
        <time>2022-08-06T14:54:23.000Z</time>
      </trkpt>
      <trkpt lat="45.8459" lon="4.7184">
        <ele>256.30267</ele>
        <time>2022-08-06T14:54:25.000Z</time>
      </trkpt>
      <trkpt lat="45.84593" lon="4.71838">
        <ele>256.21097</ele>
        <time>2022-08-06T14:54:26.000Z</time>
      </trkpt>
      <trkpt lat="45.84596" lon="4.71836">
        <ele>256.24869</ele>
        <time>2022-08-06T14:54:27.000Z</time>
      </trkpt>
      <trkpt lat="45.84603" lon="4.71832">
        <ele>256.31335</ele>
        <time>2022-08-06T14:54:29.000Z</time>
      </trkpt>
      <trkpt lat="45.84607" lon="4.71829">
        <ele>256.33978</ele>
        <time>2022-08-06T14:54:30.000Z</time>
      </trkpt>
      <trkpt lat="45.84614" lon="4.71825">
        <ele>256.30426</ele>
        <time>2022-08-06T14:54:32.000Z</time>
      </trkpt>
      <trkpt lat="45.84616" lon="4.71823">
        <ele>256.35083</ele>
        <time>2022-08-06T14:54:33.000Z</time>
      </trkpt>
      <trkpt lat="45.84619" lon="4.71823">
        <ele>256.40778</ele>
        <time>2022-08-06T14:54:34.000Z</time>
      </trkpt>
      <trkpt lat="45.84621" lon="4.71822">
        <ele>256.50629</ele>
        <time>2022-08-06T14:54:35.000Z</time>
      </trkpt>
      <trkpt lat="45.84625" lon="4.71822">
        <ele>256.65997</ele>
        <time>2022-08-06T14:54:36.000Z</time>
      </trkpt>
      <trkpt lat="45.84628" lon="4.7182">
        <ele>256.81769</ele>
        <time>2022-08-06T14:54:37.000Z</time>
      </trkpt>
      <trkpt lat="45.84631" lon="4.71819">
        <ele>256.83282</ele>
        <time>2022-08-06T14:54:38.000Z</time>
      </trkpt>
      <trkpt lat="45.84635" lon="4.71817">
        <ele>256.76581</ele>
        <time>2022-08-06T14:54:39.000Z</time>
      </trkpt>
      <trkpt lat="45.8464" lon="4.71814">
        <ele>256.59912</ele>
        <time>2022-08-06T14:54:40.000Z</time>
      </trkpt>
      <trkpt lat="45.84645" lon="4.71811">
        <ele>256.43246</ele>
        <time>2022-08-06T14:54:41.000Z</time>
      </trkpt>
      <trkpt lat="45.84648" lon="4.71809">
        <ele>256.3584</ele>
        <time>2022-08-06T14:54:42.000Z</time>
      </trkpt>
      <trkpt lat="45.8465" lon="4.71808">
        <ele>256.2897</ele>
        <time>2022-08-06T14:54:43.000Z</time>
      </trkpt>
      <trkpt lat="45.84652" lon="4.71807">
        <ele>256.24994</ele>
        <time>2022-08-06T14:54:44.000Z</time>
      </trkpt>
      <trkpt lat="45.84656" lon="4.71805">
        <ele>256.0965</ele>
        <time>2022-08-06T14:54:45.000Z</time>
      </trkpt>
      <trkpt lat="45.84661" lon="4.71803">
        <ele>255.87923</ele>
        <time>2022-08-06T14:54:46.000Z</time>
      </trkpt>
      <trkpt lat="45.84665" lon="4.71802">
        <ele>255.75327</ele>
        <time>2022-08-06T14:54:47.000Z</time>
      </trkpt>
      <trkpt lat="45.84669" lon="4.71799">
        <ele>255.71204</ele>
        <time>2022-08-06T14:54:48.000Z</time>
      </trkpt>
      <trkpt lat="45.84673" lon="4.71797">
        <ele>255.60925</ele>
        <time>2022-08-06T14:54:49.000Z</time>
      </trkpt>
      <trkpt lat="45.84677" lon="4.71794">
        <ele>255.55144</ele>
        <time>2022-08-06T14:54:50.000Z</time>
      </trkpt>
      <trkpt lat="45.8468" lon="4.71791">
        <ele>255.51529</ele>
        <time>2022-08-06T14:54:51.000Z</time>
      </trkpt>
      <trkpt lat="45.84683" lon="4.71788">
        <ele>255.60867</ele>
        <time>2022-08-06T14:54:52.000Z</time>
      </trkpt>
      <trkpt lat="45.84687" lon="4.71785">
        <ele>255.71223</ele>
        <time>2022-08-06T14:54:53.000Z</time>
      </trkpt>
      <trkpt lat="45.84691" lon="4.71782">
        <ele>255.79387</ele>
        <time>2022-08-06T14:54:54.000Z</time>
      </trkpt>
      <trkpt lat="45.84695" lon="4.7178">
        <ele>255.90227</ele>
        <time>2022-08-06T14:54:55.000Z</time>
      </trkpt>
      <trkpt lat="45.84698" lon="4.71779">
        <ele>255.87634</ele>
        <time>2022-08-06T14:54:56.000Z</time>
      </trkpt>
      <trkpt lat="45.84701" lon="4.71778">
        <ele>255.79489</ele>
        <time>2022-08-06T14:54:57.000Z</time>
      </trkpt>
      <trkpt lat="45.84704" lon="4.71777">
        <ele>255.62737</ele>
        <time>2022-08-06T14:54:58.000Z</time>
      </trkpt>
      <trkpt lat="45.84709" lon="4.71775">
        <ele>255.52689</ele>
        <time>2022-08-06T14:54:59.000Z</time>
      </trkpt>
      <trkpt lat="45.84714" lon="4.71774">
        <ele>255.36826</ele>
        <time>2022-08-06T14:55:00.000Z</time>
      </trkpt>
      <trkpt lat="45.84731" lon="4.71768">
        <ele>255.16211</ele>
        <time>2022-08-06T14:55:01.000Z</time>
      </trkpt>
      <trkpt lat="45.84738" lon="4.71764">
        <ele>254.93164</ele>
        <time>2022-08-06T14:55:02.000Z</time>
      </trkpt>
      <trkpt lat="45.84743" lon="4.71761">
        <ele>254.63777</ele>
        <time>2022-08-06T14:55:03.000Z</time>
      </trkpt>
      <trkpt lat="45.84756" lon="4.71752">
        <ele>254.3501</ele>
        <time>2022-08-06T14:55:05.000Z</time>
      </trkpt>
      <trkpt lat="45.8476" lon="4.71748">
        <ele>254.16299</ele>
        <time>2022-08-06T14:55:06.000Z</time>
      </trkpt>
      <trkpt lat="45.84764" lon="4.71746">
        <ele>254.01843</ele>
        <time>2022-08-06T14:55:07.000Z</time>
      </trkpt>
      <trkpt lat="45.84766" lon="4.71744">
        <ele>253.88437</ele>
        <time>2022-08-06T14:55:08.000Z</time>
      </trkpt>
      <trkpt lat="45.8477" lon="4.7174">
        <ele>253.67288</ele>
        <time>2022-08-06T14:55:09.000Z</time>
      </trkpt>
      <trkpt lat="45.84777" lon="4.71735">
        <ele>253.46819</ele>
        <time>2022-08-06T14:55:10.000Z</time>
      </trkpt>
      <trkpt lat="45.84782" lon="4.7173">
        <ele>253.17546</ele>
        <time>2022-08-06T14:55:11.000Z</time>
      </trkpt>
      <trkpt lat="45.84787" lon="4.71729">
        <ele>252.76376</ele>
        <time>2022-08-06T14:55:12.000Z</time>
      </trkpt>
      <trkpt lat="45.84789" lon="4.71725">
        <ele>252.44145</ele>
        <time>2022-08-06T14:55:13.000Z</time>
      </trkpt>
      <trkpt lat="45.84792" lon="4.71722">
        <ele>252.04475</ele>
        <time>2022-08-06T14:55:14.000Z</time>
      </trkpt>
      <trkpt lat="45.84796" lon="4.7172">
        <ele>251.74406</ele>
        <time>2022-08-06T14:55:15.000Z</time>
      </trkpt>
      <trkpt lat="45.84799" lon="4.71717">
        <ele>251.45805</ele>
        <time>2022-08-06T14:55:16.000Z</time>
      </trkpt>
      <trkpt lat="45.84802" lon="4.71715">
        <ele>251.26628</ele>
        <time>2022-08-06T14:55:17.000Z</time>
      </trkpt>
      <trkpt lat="45.84805" lon="4.71713">
        <ele>251.15617</ele>
        <time>2022-08-06T14:55:18.000Z</time>
      </trkpt>
      <trkpt lat="45.84812" lon="4.71708">
        <ele>251.12862</ele>
        <time>2022-08-06T14:55:20.000Z</time>
      </trkpt>
      <trkpt lat="45.84816" lon="4.71706">
        <ele>251.06699</ele>
        <time>2022-08-06T14:55:21.000Z</time>
      </trkpt>
      <trkpt lat="45.8482" lon="4.71704">
        <ele>251.17061</ele>
        <time>2022-08-06T14:55:22.000Z</time>
      </trkpt>
      <trkpt lat="45.84824" lon="4.71703">
        <ele>251.3127</ele>
        <time>2022-08-06T14:55:23.000Z</time>
      </trkpt>
      <trkpt lat="45.84827" lon="4.71701">
        <ele>251.39822</ele>
        <time>2022-08-06T14:55:24.000Z</time>
      </trkpt>
      <trkpt lat="45.84831" lon="4.71698">
        <ele>251.55164</ele>
        <time>2022-08-06T14:55:25.000Z</time>
      </trkpt>
      <trkpt lat="45.84835" lon="4.71695">
        <ele>251.71204</ele>
        <time>2022-08-06T14:55:26.000Z</time>
      </trkpt>
      <trkpt lat="45.84839" lon="4.71692">
        <ele>251.8894</ele>
        <time>2022-08-06T14:55:27.000Z</time>
      </trkpt>
      <trkpt lat="45.84843" lon="4.7169">
        <ele>252.07275</ele>
        <time>2022-08-06T14:55:28.000Z</time>
      </trkpt>
      <trkpt lat="45.84847" lon="4.71687">
        <ele>252.19519</ele>
        <time>2022-08-06T14:55:29.000Z</time>
      </trkpt>
      <trkpt lat="45.84851" lon="4.71685">
        <ele>252.27695</ele>
        <time>2022-08-06T14:55:30.000Z</time>
      </trkpt>
      <trkpt lat="45.84855" lon="4.71683">
        <ele>252.3175</ele>
        <time>2022-08-06T14:55:31.000Z</time>
      </trkpt>
      <trkpt lat="45.84859" lon="4.71681">
        <ele>252.39041</ele>
        <time>2022-08-06T14:55:32.000Z</time>
      </trkpt>
      <trkpt lat="45.84862" lon="4.71679">
        <ele>252.52133</ele>
        <time>2022-08-06T14:55:33.000Z</time>
      </trkpt>
      <trkpt lat="45.84866" lon="4.71678">
        <ele>252.49792</ele>
        <time>2022-08-06T14:55:34.000Z</time>
      </trkpt>
      <trkpt lat="45.84869" lon="4.71676">
        <ele>252.55623</ele>
        <time>2022-08-06T14:55:35.000Z</time>
      </trkpt>
      <trkpt lat="45.84873" lon="4.71675">
        <ele>252.61092</ele>
        <time>2022-08-06T14:55:36.000Z</time>
      </trkpt>
      <trkpt lat="45.84877" lon="4.71673">
        <ele>252.57588</ele>
        <time>2022-08-06T14:55:37.000Z</time>
      </trkpt>
      <trkpt lat="45.84882" lon="4.71671">
        <ele>252.32361</ele>
        <time>2022-08-06T14:55:38.000Z</time>
      </trkpt>
      <trkpt lat="45.84892" lon="4.71668">
        <ele>252.0322</ele>
        <time>2022-08-06T14:55:40.000Z</time>
      </trkpt>
      <trkpt lat="45.84897" lon="4.71667">
        <ele>251.70938</ele>
        <time>2022-08-06T14:55:41.000Z</time>
      </trkpt>
      <trkpt lat="45.8491" lon="4.71664">
        <ele>251.45493</ele>
        <time>2022-08-06T14:55:42.000Z</time>
      </trkpt>
      <trkpt lat="45.84915" lon="4.71663">
        <ele>251.07922</ele>
        <time>2022-08-06T14:55:43.000Z</time>
      </trkpt>
      <trkpt lat="45.84918" lon="4.71662">
        <ele>250.69864</ele>
        <time>2022-08-06T14:55:44.000Z</time>
      </trkpt>
      <trkpt lat="45.8492" lon="4.71663">
        <ele>250.3083</ele>
        <time>2022-08-06T14:55:45.000Z</time>
      </trkpt>
      <trkpt lat="45.84928" lon="4.71663">
        <ele>249.88187</ele>
        <time>2022-08-06T14:55:47.000Z</time>
      </trkpt>
      <trkpt lat="45.84936" lon="4.71663">
        <ele>249.46188</ele>
        <time>2022-08-06T14:55:49.000Z</time>
      </trkpt>
      <trkpt lat="45.84939" lon="4.71664">
        <ele>248.96823</ele>
        <time>2022-08-06T14:55:50.000Z</time>
      </trkpt>
      <trkpt lat="45.84943" lon="4.71666">
        <ele>248.47107</ele>
        <time>2022-08-06T14:55:51.000Z</time>
      </trkpt>
      <trkpt lat="45.84948" lon="4.71667">
        <ele>248.02959</ele>
        <time>2022-08-06T14:55:52.000Z</time>
      </trkpt>
      <trkpt lat="45.84952" lon="4.71667">
        <ele>247.5898</ele>
        <time>2022-08-06T14:55:53.000Z</time>
      </trkpt>
      <trkpt lat="45.84957" lon="4.71668">
        <ele>247.18765</ele>
        <time>2022-08-06T14:55:54.000Z</time>
      </trkpt>
      <trkpt lat="45.84961" lon="4.71668">
        <ele>246.7377</ele>
        <time>2022-08-06T14:55:55.000Z</time>
      </trkpt>
      <trkpt lat="45.84965" lon="4.71669">
        <ele>246.38948</ele>
        <time>2022-08-06T14:55:56.000Z</time>
      </trkpt>
      <trkpt lat="45.84969" lon="4.71669">
        <ele>246.05867</ele>
        <time>2022-08-06T14:55:57.000Z</time>
      </trkpt>
      <trkpt lat="45.84972" lon="4.71669">
        <ele>245.62646</ele>
        <time>2022-08-06T14:55:58.000Z</time>
      </trkpt>
      <trkpt lat="45.8498" lon="4.71667">
        <ele>245.09099</ele>
        <time>2022-08-06T14:56:00.000Z</time>
      </trkpt>
      <trkpt lat="45.84984" lon="4.71666">
        <ele>244.54243</ele>
        <time>2022-08-06T14:56:01.000Z</time>
      </trkpt>
      <trkpt lat="45.84987" lon="4.71665">
        <ele>244.21799</ele>
        <time>2022-08-06T14:56:02.000Z</time>
      </trkpt>
      <trkpt lat="45.84992" lon="4.71663">
        <ele>243.87395</ele>
        <time>2022-08-06T14:56:03.000Z</time>
      </trkpt>
      <trkpt lat="45.84996" lon="4.7166">
        <ele>243.67049</ele>
        <time>2022-08-06T14:56:04.000Z</time>
      </trkpt>
      <trkpt lat="45.85006" lon="4.71655">
        <ele>243.48917</ele>
        <time>2022-08-06T14:56:05.000Z</time>
      </trkpt>
      <trkpt lat="45.85011" lon="4.71652">
        <ele>243.36653</ele>
        <time>2022-08-06T14:56:06.000Z</time>
      </trkpt>
      <trkpt lat="45.85019" lon="4.71649">
        <ele>243.16916</ele>
        <time>2022-08-06T14:56:07.000Z</time>
      </trkpt>
      <trkpt lat="45.85024" lon="4.71648">
        <ele>242.99612</ele>
        <time>2022-08-06T14:56:08.000Z</time>
      </trkpt>
      <trkpt lat="45.85027" lon="4.71648">
        <ele>242.88602</ele>
        <time>2022-08-06T14:56:09.000Z</time>
      </trkpt>
      <trkpt lat="45.85029" lon="4.71645">
        <ele>242.71733</ele>
        <time>2022-08-06T14:56:10.000Z</time>
      </trkpt>
      <trkpt lat="45.85035" lon="4.71643">
        <ele>242.73848</ele>
        <time>2022-08-06T14:56:11.000Z</time>
      </trkpt>
      <trkpt lat="45.85041" lon="4.7164">
        <ele>242.6624</ele>
        <time>2022-08-06T14:56:12.000Z</time>
      </trkpt>
      <trkpt lat="45.85046" lon="4.71639">
        <ele>242.52718</ele>
        <time>2022-08-06T14:56:13.000Z</time>
      </trkpt>
      <trkpt lat="45.85051" lon="4.71637">
        <ele>242.34489</ele>
        <time>2022-08-06T14:56:14.000Z</time>
      </trkpt>
      <trkpt lat="45.85053" lon="4.71637">
        <ele>242.18704</ele>
        <time>2022-08-06T14:56:15.000Z</time>
      </trkpt>
      <trkpt lat="45.85055" lon="4.71635">
        <ele>242.08768</ele>
        <time>2022-08-06T14:56:16.000Z</time>
      </trkpt>
      <trkpt lat="45.8506" lon="4.71632">
        <ele>242.03328</ele>
        <time>2022-08-06T14:56:17.000Z</time>
      </trkpt>
      <trkpt lat="45.85062" lon="4.71631">
        <ele>242.00554</ele>
        <time>2022-08-06T14:56:18.000Z</time>
      </trkpt>
      <trkpt lat="45.85065" lon="4.71631">
        <ele>242.04549</ele>
        <time>2022-08-06T14:56:20.000Z</time>
      </trkpt>
      <trkpt lat="45.85067" lon="4.71631">
        <ele>242.05362</ele>
        <time>2022-08-06T14:56:21.000Z</time>
      </trkpt>
      <trkpt lat="45.85069" lon="4.71631">
        <ele>242.11374</ele>
        <time>2022-08-06T14:56:22.000Z</time>
      </trkpt>
      <trkpt lat="45.85073" lon="4.7163">
        <ele>242.02505</ele>
        <time>2022-08-06T14:56:23.000Z</time>
      </trkpt>
      <trkpt lat="45.85076" lon="4.71628">
        <ele>241.91409</ele>
        <time>2022-08-06T14:56:24.000Z</time>
      </trkpt>
      <trkpt lat="45.85081" lon="4.71625">
        <ele>241.77426</ele>
        <time>2022-08-06T14:56:25.000Z</time>
      </trkpt>
      <trkpt lat="45.85085" lon="4.71621">
        <ele>241.56009</ele>
        <time>2022-08-06T14:56:26.000Z</time>
      </trkpt>
      <trkpt lat="45.85089" lon="4.71617">
        <ele>241.33772</ele>
        <time>2022-08-06T14:56:27.000Z</time>
      </trkpt>
      <trkpt lat="45.85093" lon="4.71614">
        <ele>241.25305</ele>
        <time>2022-08-06T14:56:28.000Z</time>
      </trkpt>
      <trkpt lat="45.85098" lon="4.71611">
        <ele>241.1366</ele>
        <time>2022-08-06T14:56:29.000Z</time>
      </trkpt>
      <trkpt lat="45.85101" lon="4.71608">
        <ele>241.02835</ele>
        <time>2022-08-06T14:56:30.000Z</time>
      </trkpt>
      <trkpt lat="45.85104" lon="4.71606">
        <ele>240.96736</ele>
        <time>2022-08-06T14:56:31.000Z</time>
      </trkpt>
      <trkpt lat="45.85107" lon="4.71603">
        <ele>240.82124</ele>
        <time>2022-08-06T14:56:32.000Z</time>
      </trkpt>
      <trkpt lat="45.8511" lon="4.71601">
        <ele>240.78513</ele>
        <time>2022-08-06T14:56:33.000Z</time>
      </trkpt>
      <trkpt lat="45.85113" lon="4.716">
        <ele>240.82401</ele>
        <time>2022-08-06T14:56:34.000Z</time>
      </trkpt>
      <trkpt lat="45.85117" lon="4.716">
        <ele>240.92302</ele>
        <time>2022-08-06T14:56:35.000Z</time>
      </trkpt>
      <trkpt lat="45.85121" lon="4.716">
        <ele>241.00154</ele>
        <time>2022-08-06T14:56:36.000Z</time>
      </trkpt>
      <trkpt lat="45.85125" lon="4.716">
        <ele>241.04581</ele>
        <time>2022-08-06T14:56:37.000Z</time>
      </trkpt>
      <trkpt lat="45.85129" lon="4.716">
        <ele>241.04915</ele>
        <time>2022-08-06T14:56:38.000Z</time>
      </trkpt>
      <trkpt lat="45.85133" lon="4.71599">
        <ele>240.96237</ele>
        <time>2022-08-06T14:56:39.000Z</time>
      </trkpt>
      <trkpt lat="45.85136" lon="4.71598">
        <ele>240.88614</ele>
        <time>2022-08-06T14:56:40.000Z</time>
      </trkpt>
      <trkpt lat="45.8514" lon="4.71597">
        <ele>240.849</ele>
        <time>2022-08-06T14:56:41.000Z</time>
      </trkpt>
      <trkpt lat="45.85143" lon="4.71596">
        <ele>240.65862</ele>
        <time>2022-08-06T14:56:42.000Z</time>
      </trkpt>
      <trkpt lat="45.85146" lon="4.71594">
        <ele>240.64456</ele>
        <time>2022-08-06T14:56:43.000Z</time>
      </trkpt>
      <trkpt lat="45.85149" lon="4.71593">
        <ele>240.71513</ele>
        <time>2022-08-06T14:56:44.000Z</time>
      </trkpt>
      <trkpt lat="45.85151" lon="4.71591">
        <ele>240.79353</ele>
        <time>2022-08-06T14:56:45.000Z</time>
      </trkpt>
      <trkpt lat="45.85155" lon="4.71588">
        <ele>240.93164</ele>
        <time>2022-08-06T14:56:46.000Z</time>
      </trkpt>
      <trkpt lat="45.85167" lon="4.71583">
        <ele>241.12534</ele>
        <time>2022-08-06T14:56:47.000Z</time>
      </trkpt>
      <trkpt lat="45.85174" lon="4.7158">
        <ele>241.19804</ele>
        <time>2022-08-06T14:56:48.000Z</time>
      </trkpt>
      <trkpt lat="45.85178" lon="4.71578">
        <ele>241.3038</ele>
        <time>2022-08-06T14:56:49.000Z</time>
      </trkpt>
      <trkpt lat="45.85185" lon="4.71576">
        <ele>241.31039</ele>
        <time>2022-08-06T14:56:50.000Z</time>
      </trkpt>
      <trkpt lat="45.85186" lon="4.71575">
        <ele>241.35352</ele>
        <time>2022-08-06T14:56:51.000Z</time>
      </trkpt>
      <trkpt lat="45.85191" lon="4.71572">
        <ele>241.41707</ele>
        <time>2022-08-06T14:56:52.000Z</time>
      </trkpt>
      <trkpt lat="45.85195" lon="4.7157">
        <ele>241.45285</ele>
        <time>2022-08-06T14:56:53.000Z</time>
      </trkpt>
      <trkpt lat="45.85199" lon="4.71569">
        <ele>241.47502</ele>
        <time>2022-08-06T14:56:54.000Z</time>
      </trkpt>
      <trkpt lat="45.85202" lon="4.71569">
        <ele>241.49699</ele>
        <time>2022-08-06T14:56:55.000Z</time>
      </trkpt>
      <trkpt lat="45.85207" lon="4.71567">
        <ele>241.51009</ele>
        <time>2022-08-06T14:56:56.000Z</time>
      </trkpt>
      <trkpt lat="45.8521" lon="4.71566">
        <ele>241.6147</ele>
        <time>2022-08-06T14:56:57.000Z</time>
      </trkpt>
      <trkpt lat="45.85214" lon="4.71564">
        <ele>241.74893</ele>
        <time>2022-08-06T14:56:58.000Z</time>
      </trkpt>
      <trkpt lat="45.85221" lon="4.71562">
        <ele>241.8815</ele>
        <time>2022-08-06T14:57:00.000Z</time>
      </trkpt>
      <trkpt lat="45.85224" lon="4.71561">
        <ele>241.95828</ele>
        <time>2022-08-06T14:57:01.000Z</time>
      </trkpt>
      <trkpt lat="45.85228" lon="4.71559">
        <ele>242.03909</ele>
        <time>2022-08-06T14:57:02.000Z</time>
      </trkpt>
      <trkpt lat="45.85231" lon="4.71558">
        <ele>242.26987</ele>
        <time>2022-08-06T14:57:03.000Z</time>
      </trkpt>
      <trkpt lat="45.85234" lon="4.71556">
        <ele>242.48877</ele>
        <time>2022-08-06T14:57:04.000Z</time>
      </trkpt>
      <trkpt lat="45.85238" lon="4.71554">
        <ele>242.56526</ele>
        <time>2022-08-06T14:57:05.000Z</time>
      </trkpt>
      <trkpt lat="45.85246" lon="4.71551">
        <ele>242.62085</ele>
        <time>2022-08-06T14:57:07.000Z</time>
      </trkpt>
      <trkpt lat="45.85249" lon="4.7155">
        <ele>242.74915</ele>
        <time>2022-08-06T14:57:08.000Z</time>
      </trkpt>
      <trkpt lat="45.85252" lon="4.71548">
        <ele>242.96054</ele>
        <time>2022-08-06T14:57:09.000Z</time>
      </trkpt>
      <trkpt lat="45.85255" lon="4.71547">
        <ele>243.22083</ele>
        <time>2022-08-06T14:57:10.000Z</time>
      </trkpt>
      <trkpt lat="45.85258" lon="4.71546">
        <ele>243.42154</ele>
        <time>2022-08-06T14:57:11.000Z</time>
      </trkpt>
      <trkpt lat="45.8526" lon="4.71544">
        <ele>243.6783</ele>
        <time>2022-08-06T14:57:12.000Z</time>
      </trkpt>
      <trkpt lat="45.85264" lon="4.71542">
        <ele>243.72737</ele>
        <time>2022-08-06T14:57:13.000Z</time>
      </trkpt>
      <trkpt lat="45.85267" lon="4.71541">
        <ele>243.78616</ele>
        <time>2022-08-06T14:57:14.000Z</time>
      </trkpt>
      <trkpt lat="45.8527" lon="4.71539">
        <ele>243.84229</ele>
        <time>2022-08-06T14:57:15.000Z</time>
      </trkpt>
      <trkpt lat="45.85274" lon="4.71537">
        <ele>243.84668</ele>
        <time>2022-08-06T14:57:16.000Z</time>
      </trkpt>
      <trkpt lat="45.85278" lon="4.71535">
        <ele>243.7939</ele>
        <time>2022-08-06T14:57:17.000Z</time>
      </trkpt>
      <trkpt lat="45.85281" lon="4.71532">
        <ele>243.8212</ele>
        <time>2022-08-06T14:57:18.000Z</time>
      </trkpt>
      <trkpt lat="45.85284" lon="4.7153">
        <ele>243.78152</ele>
        <time>2022-08-06T14:57:19.000Z</time>
      </trkpt>
      <trkpt lat="45.85287" lon="4.71527">
        <ele>243.70334</ele>
        <time>2022-08-06T14:57:20.000Z</time>
      </trkpt>
      <trkpt lat="45.8529" lon="4.71525">
        <ele>243.76485</ele>
        <time>2022-08-06T14:57:21.000Z</time>
      </trkpt>
      <trkpt lat="45.85293" lon="4.71523">
        <ele>243.8497</ele>
        <time>2022-08-06T14:57:22.000Z</time>
      </trkpt>
      <trkpt lat="45.85297" lon="4.71521">
        <ele>243.80505</ele>
        <time>2022-08-06T14:57:23.000Z</time>
      </trkpt>
      <trkpt lat="45.85306" lon="4.71515">
        <ele>243.74541</ele>
        <time>2022-08-06T14:57:25.000Z</time>
      </trkpt>
      <trkpt lat="45.85309" lon="4.71512">
        <ele>243.6969</ele>
        <time>2022-08-06T14:57:26.000Z</time>
      </trkpt>
      <trkpt lat="45.85312" lon="4.71509">
        <ele>243.6311</ele>
        <time>2022-08-06T14:57:27.000Z</time>
      </trkpt>
      <trkpt lat="45.85316" lon="4.71506">
        <ele>243.64839</ele>
        <time>2022-08-06T14:57:28.000Z</time>
      </trkpt>
      <trkpt lat="45.8532" lon="4.71502">
        <ele>243.6458</ele>
        <time>2022-08-06T14:57:29.000Z</time>
      </trkpt>
      <trkpt lat="45.85324" lon="4.71499">
        <ele>243.54761</ele>
        <time>2022-08-06T14:57:30.000Z</time>
      </trkpt>
      <trkpt lat="45.85328" lon="4.71495">
        <ele>243.48523</ele>
        <time>2022-08-06T14:57:31.000Z</time>
      </trkpt>
      <trkpt lat="45.85336" lon="4.71488">
        <ele>243.38481</ele>
        <time>2022-08-06T14:57:32.000Z</time>
      </trkpt>
      <trkpt lat="45.8534" lon="4.71485">
        <ele>243.24075</ele>
        <time>2022-08-06T14:57:33.000Z</time>
      </trkpt>
      <trkpt lat="45.85345" lon="4.71481">
        <ele>243.19695</ele>
        <time>2022-08-06T14:57:34.000Z</time>
      </trkpt>
      <trkpt lat="45.85348" lon="4.71478">
        <ele>243.13545</ele>
        <time>2022-08-06T14:57:35.000Z</time>
      </trkpt>
      <trkpt lat="45.85352" lon="4.71475">
        <ele>243.10982</ele>
        <time>2022-08-06T14:57:36.000Z</time>
      </trkpt>
      <trkpt lat="45.85355" lon="4.71474">
        <ele>243.10994</ele>
        <time>2022-08-06T14:57:37.000Z</time>
      </trkpt>
      <trkpt lat="45.85357" lon="4.71472">
        <ele>243.1506</ele>
        <time>2022-08-06T14:57:38.000Z</time>
      </trkpt>
      <trkpt lat="45.85362" lon="4.71469">
        <ele>243.06387</ele>
        <time>2022-08-06T14:57:39.000Z</time>
      </trkpt>
      <trkpt lat="45.85366" lon="4.71464">
        <ele>242.94693</ele>
        <time>2022-08-06T14:57:40.000Z</time>
      </trkpt>
      <trkpt lat="45.85369" lon="4.71462">
        <ele>242.79439</ele>
        <time>2022-08-06T14:57:41.000Z</time>
      </trkpt>
      <trkpt lat="45.85377" lon="4.71454">
        <ele>242.56424</ele>
        <time>2022-08-06T14:57:43.000Z</time>
      </trkpt>
      <trkpt lat="45.85383" lon="4.7145">
        <ele>242.39624</ele>
        <time>2022-08-06T14:57:44.000Z</time>
      </trkpt>
      <trkpt lat="45.85386" lon="4.71445">
        <ele>242.37357</ele>
        <time>2022-08-06T14:57:45.000Z</time>
      </trkpt>
      <trkpt lat="45.85389" lon="4.71441">
        <ele>242.32617</ele>
        <time>2022-08-06T14:57:46.000Z</time>
      </trkpt>
      <trkpt lat="45.85395" lon="4.71435">
        <ele>242.22086</ele>
        <time>2022-08-06T14:57:47.000Z</time>
      </trkpt>
      <trkpt lat="45.85398" lon="4.71432">
        <ele>242.13892</ele>
        <time>2022-08-06T14:57:48.000Z</time>
      </trkpt>
      <trkpt lat="45.85402" lon="4.71429">
        <ele>242.06064</ele>
        <time>2022-08-06T14:57:49.000Z</time>
      </trkpt>
      <trkpt lat="45.85405" lon="4.71427">
        <ele>241.93185</ele>
        <time>2022-08-06T14:57:50.000Z</time>
      </trkpt>
      <trkpt lat="45.85408" lon="4.71424">
        <ele>241.81314</ele>
        <time>2022-08-06T14:57:51.000Z</time>
      </trkpt>
      <trkpt lat="45.85415" lon="4.71419">
        <ele>241.75642</ele>
        <time>2022-08-06T14:57:53.000Z</time>
      </trkpt>
      <trkpt lat="45.85416" lon="4.71414">
        <ele>241.63936</ele>
        <time>2022-08-06T14:57:55.000Z</time>
      </trkpt>
      <trkpt lat="45.85415" lon="4.71413">
        <ele>241.4537</ele>
        <time>2022-08-06T14:58:08.000Z</time>
      </trkpt>
      <trkpt lat="45.85417" lon="4.71412">
        <ele>241.30753</ele>
        <time>2022-08-06T14:59:28.000Z</time>
      </trkpt>
      <trkpt lat="45.85419" lon="4.71411">
        <ele>241.03255</ele>
        <time>2022-08-06T14:59:29.000Z</time>
      </trkpt>
      <trkpt lat="45.85421" lon="4.7141">
        <ele>240.71245</ele>
        <time>2022-08-06T14:59:30.000Z</time>
      </trkpt>
      <trkpt lat="45.85424" lon="4.71409">
        <ele>240.44702</ele>
        <time>2022-08-06T14:59:31.000Z</time>
      </trkpt>
      <trkpt lat="45.85427" lon="4.71408">
        <ele>240.24858</ele>
        <time>2022-08-06T14:59:32.000Z</time>
      </trkpt>
      <trkpt lat="45.8543" lon="4.71406">
        <ele>240.08011</ele>
        <time>2022-08-06T14:59:33.000Z</time>
      </trkpt>
      <trkpt lat="45.85433" lon="4.71403">
        <ele>239.93474</ele>
        <time>2022-08-06T14:59:34.000Z</time>
      </trkpt>
      <trkpt lat="45.85437" lon="4.71401">
        <ele>239.80135</ele>
        <time>2022-08-06T14:59:35.000Z</time>
      </trkpt>
      <trkpt lat="45.85441" lon="4.71399">
        <ele>239.6657</ele>
        <time>2022-08-06T14:59:36.000Z</time>
      </trkpt>
      <trkpt lat="45.85446" lon="4.71396">
        <ele>239.40083</ele>
        <time>2022-08-06T14:59:37.000Z</time>
      </trkpt>
      <trkpt lat="45.8545" lon="4.71393">
        <ele>239.16777</ele>
        <time>2022-08-06T14:59:38.000Z</time>
      </trkpt>
      <trkpt lat="45.85454" lon="4.71389">
        <ele>238.99255</ele>
        <time>2022-08-06T14:59:39.000Z</time>
      </trkpt>
      <trkpt lat="45.85459" lon="4.71385">
        <ele>238.77798</ele>
        <time>2022-08-06T14:59:40.000Z</time>
      </trkpt>
      <trkpt lat="45.85468" lon="4.71375">
        <ele>238.50845</ele>
        <time>2022-08-06T14:59:41.000Z</time>
      </trkpt>
      <trkpt lat="45.85471" lon="4.71373">
        <ele>238.18613</ele>
        <time>2022-08-06T14:59:42.000Z</time>
      </trkpt>
      <trkpt lat="45.85474" lon="4.71371">
        <ele>237.78621</ele>
        <time>2022-08-06T14:59:43.000Z</time>
      </trkpt>
      <trkpt lat="45.85478" lon="4.71368">
        <ele>237.31221</ele>
        <time>2022-08-06T14:59:44.000Z</time>
      </trkpt>
      <trkpt lat="45.85483" lon="4.71364">
        <ele>236.62997</ele>
        <time>2022-08-06T14:59:45.000Z</time>
      </trkpt>
      <trkpt lat="45.85488" lon="4.71362">
        <ele>236.09836</ele>
        <time>2022-08-06T14:59:46.000Z</time>
      </trkpt>
      <trkpt lat="45.85492" lon="4.7136">
        <ele>235.6595</ele>
        <time>2022-08-06T14:59:47.000Z</time>
      </trkpt>
      <trkpt lat="45.85499" lon="4.71359">
        <ele>235.26208</ele>
        <time>2022-08-06T14:59:48.000Z</time>
      </trkpt>
      <trkpt lat="45.85505" lon="4.71359">
        <ele>234.93643</ele>
        <time>2022-08-06T14:59:49.000Z</time>
      </trkpt>
      <trkpt lat="45.8551" lon="4.71356">
        <ele>234.66573</ele>
        <time>2022-08-06T14:59:50.000Z</time>
      </trkpt>
      <trkpt lat="45.85514" lon="4.71355">
        <ele>234.40567</ele>
        <time>2022-08-06T14:59:51.000Z</time>
      </trkpt>
      <trkpt lat="45.85519" lon="4.71354">
        <ele>234.14351</ele>
        <time>2022-08-06T14:59:52.000Z</time>
      </trkpt>
      <trkpt lat="45.85526" lon="4.71352">
        <ele>233.91281</ele>
        <time>2022-08-06T14:59:53.000Z</time>
      </trkpt>
      <trkpt lat="45.85532" lon="4.71351">
        <ele>233.7074</ele>
        <time>2022-08-06T14:59:54.000Z</time>
      </trkpt>
      <trkpt lat="45.85539" lon="4.71348">
        <ele>233.41</ele>
        <time>2022-08-06T14:59:55.000Z</time>
      </trkpt>
      <trkpt lat="45.85546" lon="4.71346">
        <ele>233.00667</ele>
        <time>2022-08-06T14:59:56.000Z</time>
      </trkpt>
      <trkpt lat="45.85551" lon="4.71343">
        <ele>232.65161</ele>
        <time>2022-08-06T14:59:57.000Z</time>
      </trkpt>
      <trkpt lat="45.85556" lon="4.71342">
        <ele>232.25839</ele>
        <time>2022-08-06T14:59:58.000Z</time>
      </trkpt>
      <trkpt lat="45.85563" lon="4.71339">
        <ele>231.77615</ele>
        <time>2022-08-06T14:59:59.000Z</time>
      </trkpt>
      <trkpt lat="45.85569" lon="4.71336">
        <ele>231.20639</ele>
        <time>2022-08-06T15:00:00.000Z</time>
      </trkpt>
      <trkpt lat="45.85573" lon="4.71333">
        <ele>230.74609</ele>
        <time>2022-08-06T15:00:01.000Z</time>
      </trkpt>
      <trkpt lat="45.85578" lon="4.71331">
        <ele>230.28801</ele>
        <time>2022-08-06T15:00:02.000Z</time>
      </trkpt>
      <trkpt lat="45.85584" lon="4.71327">
        <ele>229.79192</ele>
        <time>2022-08-06T15:00:03.000Z</time>
      </trkpt>
      <trkpt lat="45.85588" lon="4.71323">
        <ele>229.35432</ele>
        <time>2022-08-06T15:00:04.000Z</time>
      </trkpt>
      <trkpt lat="45.85592" lon="4.7132">
        <ele>229.02518</ele>
        <time>2022-08-06T15:00:05.000Z</time>
      </trkpt>
      <trkpt lat="45.85596" lon="4.71316">
        <ele>228.63728</ele>
        <time>2022-08-06T15:00:06.000Z</time>
      </trkpt>
      <trkpt lat="45.85599" lon="4.71313">
        <ele>228.26718</ele>
        <time>2022-08-06T15:00:07.000Z</time>
      </trkpt>
      <trkpt lat="45.85601" lon="4.71313">
        <ele>227.89568</ele>
        <time>2022-08-06T15:00:08.000Z</time>
      </trkpt>
      <trkpt lat="45.85603" lon="4.7131">
        <ele>227.51765</ele>
        <time>2022-08-06T15:00:09.000Z</time>
      </trkpt>
      <trkpt lat="45.85605" lon="4.71307">
        <ele>227.12158</ele>
        <time>2022-08-06T15:00:10.000Z</time>
      </trkpt>
      <trkpt lat="45.85605" lon="4.71303">
        <ele>226.70175</ele>
        <time>2022-08-06T15:00:11.000Z</time>
      </trkpt>
      <trkpt lat="45.85603" lon="4.71301">
        <ele>226.28535</ele>
        <time>2022-08-06T15:00:12.000Z</time>
      </trkpt>
      <trkpt lat="45.85602" lon="4.71295">
        <ele>225.81747</ele>
        <time>2022-08-06T15:00:13.000Z</time>
      </trkpt>
      <trkpt lat="45.856" lon="4.71291">
        <ele>225.25241</ele>
        <time>2022-08-06T15:00:14.000Z</time>
      </trkpt>
      <trkpt lat="45.85597" lon="4.71287">
        <ele>224.66963</ele>
        <time>2022-08-06T15:00:15.000Z</time>
      </trkpt>
      <trkpt lat="45.85593" lon="4.71284">
        <ele>224.13301</ele>
        <time>2022-08-06T15:00:16.000Z</time>
      </trkpt>
      <trkpt lat="45.8559" lon="4.71283">
        <ele>223.58223</ele>
        <time>2022-08-06T15:00:17.000Z</time>
      </trkpt>
      <trkpt lat="45.85586" lon="4.71283">
        <ele>223.01189</ele>
        <time>2022-08-06T15:00:18.000Z</time>
      </trkpt>
      <trkpt lat="45.85583" lon="4.71282">
        <ele>222.43083</ele>
        <time>2022-08-06T15:00:19.000Z</time>
      </trkpt>
      <trkpt lat="45.8558" lon="4.71281">
        <ele>221.93208</ele>
        <time>2022-08-06T15:00:20.000Z</time>
      </trkpt>
      <trkpt lat="45.85576" lon="4.7128">
        <ele>221.45158</ele>
        <time>2022-08-06T15:00:21.000Z</time>
      </trkpt>
      <trkpt lat="45.85571" lon="4.71279">
        <ele>220.94511</ele>
        <time>2022-08-06T15:00:22.000Z</time>
      </trkpt>
      <trkpt lat="45.85567" lon="4.71278">
        <ele>220.50766</ele>
        <time>2022-08-06T15:00:23.000Z</time>
      </trkpt>
      <trkpt lat="45.85563" lon="4.71277">
        <ele>220.03049</ele>
        <time>2022-08-06T15:00:24.000Z</time>
      </trkpt>
      <trkpt lat="45.85558" lon="4.71276">
        <ele>219.48161</ele>
        <time>2022-08-06T15:00:25.000Z</time>
      </trkpt>
      <trkpt lat="45.85554" lon="4.71275">
        <ele>218.94966</ele>
        <time>2022-08-06T15:00:26.000Z</time>
      </trkpt>
      <trkpt lat="45.8555" lon="4.71273">
        <ele>218.39731</ele>
        <time>2022-08-06T15:00:27.000Z</time>
      </trkpt>
      <trkpt lat="45.85546" lon="4.71271">
        <ele>217.83054</ele>
        <time>2022-08-06T15:00:28.000Z</time>
      </trkpt>
      <trkpt lat="45.85542" lon="4.7127">
        <ele>217.23518</ele>
        <time>2022-08-06T15:00:29.000Z</time>
      </trkpt>
      <trkpt lat="45.85538" lon="4.71268">
        <ele>216.5907</ele>
        <time>2022-08-06T15:00:30.000Z</time>
      </trkpt>
      <trkpt lat="45.85534" lon="4.71267">
        <ele>215.88167</ele>
        <time>2022-08-06T15:00:31.000Z</time>
      </trkpt>
      <trkpt lat="45.8553" lon="4.71265">
        <ele>215.10986</ele>
        <time>2022-08-06T15:00:32.000Z</time>
      </trkpt>
      <trkpt lat="45.85526" lon="4.71264">
        <ele>214.37068</ele>
        <time>2022-08-06T15:00:33.000Z</time>
      </trkpt>
      <trkpt lat="45.85523" lon="4.71263">
        <ele>213.73396</ele>
        <time>2022-08-06T15:00:34.000Z</time>
      </trkpt>
      <trkpt lat="45.85518" lon="4.71261">
        <ele>213.09976</ele>
        <time>2022-08-06T15:00:35.000Z</time>
      </trkpt>
      <trkpt lat="45.85515" lon="4.71259">
        <ele>212.47595</ele>
        <time>2022-08-06T15:00:36.000Z</time>
      </trkpt>
      <trkpt lat="45.85511" lon="4.71258">
        <ele>211.81511</ele>
        <time>2022-08-06T15:00:37.000Z</time>
      </trkpt>
      <trkpt lat="45.85506" lon="4.71257">
        <ele>211.17435</ele>
        <time>2022-08-06T15:00:38.000Z</time>
      </trkpt>
      <trkpt lat="45.85502" lon="4.71256">
        <ele>210.57397</ele>
        <time>2022-08-06T15:00:39.000Z</time>
      </trkpt>
      <trkpt lat="45.85498" lon="4.71255">
        <ele>210.01657</ele>
        <time>2022-08-06T15:00:40.000Z</time>
      </trkpt>
      <trkpt lat="45.85495" lon="4.71255">
        <ele>209.46106</ele>
        <time>2022-08-06T15:00:41.000Z</time>
      </trkpt>
      <trkpt lat="45.85493" lon="4.71255">
        <ele>208.8958</ele>
        <time>2022-08-06T15:00:42.000Z</time>
      </trkpt>
      <trkpt lat="45.85491" lon="4.71255">
        <ele>208.31796</ele>
        <time>2022-08-06T15:00:43.000Z</time>
      </trkpt>
      <trkpt lat="45.85489" lon="4.71255">
        <ele>207.69888</ele>
        <time>2022-08-06T15:00:45.000Z</time>
      </trkpt>
      <trkpt lat="45.85486" lon="4.71253">
        <ele>207.18147</ele>
        <time>2022-08-06T15:00:47.000Z</time>
      </trkpt>
      <trkpt lat="45.85485" lon="4.7125">
        <ele>206.69748</ele>
        <time>2022-08-06T15:00:49.000Z</time>
      </trkpt>
      <trkpt lat="45.85483" lon="4.71245">
        <ele>206.2034</ele>
        <time>2022-08-06T15:00:51.000Z</time>
      </trkpt>
      <trkpt lat="45.85484" lon="4.71243">
        <ele>205.75363</ele>
        <time>2022-08-06T15:00:55.000Z</time>
      </trkpt>
      <trkpt lat="45.85483" lon="4.71245">
        <ele>205.23225</ele>
        <time>2022-08-06T15:01:11.000Z</time>
      </trkpt>
      <trkpt lat="45.85483" lon="4.71242">
        <ele>204.69884</ele>
        <time>2022-08-06T15:01:23.000Z</time>
      </trkpt>
      <trkpt lat="45.85482" lon="4.71239">
        <ele>204.15622</ele>
        <time>2022-08-06T15:01:25.000Z</time>
      </trkpt>
      <trkpt lat="45.85478" lon="4.7124">
        <ele>203.5415</ele>
        <time>2022-08-06T15:01:28.000Z</time>
      </trkpt>
      <trkpt lat="45.85476" lon="4.7124">
        <ele>202.98557</ele>
        <time>2022-08-06T15:01:30.000Z</time>
      </trkpt>
      <trkpt lat="45.85474" lon="4.7124">
        <ele>202.45477</ele>
        <time>2022-08-06T15:01:33.000Z</time>
      </trkpt>
      <trkpt lat="45.85472" lon="4.71241">
        <ele>202.17273</ele>
        <time>2022-08-06T15:01:54.000Z</time>
      </trkpt>
      <trkpt lat="45.85473" lon="4.71239">
        <ele>201.84409</ele>
        <time>2022-08-06T15:02:39.000Z</time>
      </trkpt>
      <trkpt lat="45.85475" lon="4.71237">
        <ele>201.63506</ele>
        <time>2022-08-06T15:02:41.000Z</time>
      </trkpt>
      <trkpt lat="45.85476" lon="4.71235">
        <ele>201.45596</ele>
        <time>2022-08-06T15:02:43.000Z</time>
      </trkpt>
      <trkpt lat="45.85477" lon="4.71231">
        <ele>201.24304</ele>
        <time>2022-08-06T15:02:47.000Z</time>
      </trkpt>
      <trkpt lat="45.85478" lon="4.71229">
        <ele>200.95502</ele>
        <time>2022-08-06T15:02:49.000Z</time>
      </trkpt>
      <trkpt lat="45.8548" lon="4.71227">
        <ele>200.68907</ele>
        <time>2022-08-06T15:02:52.000Z</time>
      </trkpt>
      <trkpt lat="45.8548" lon="4.71224">
        <ele>200.4623</ele>
        <time>2022-08-06T15:03:15.000Z</time>
      </trkpt>
      <trkpt lat="45.85479" lon="4.71221">
        <ele>200.32104</ele>
        <time>2022-08-06T15:03:18.000Z</time>
      </trkpt>
      <trkpt lat="45.85479" lon="4.71218">
        <ele>200.39377</ele>
        <time>2022-08-06T15:03:26.000Z</time>
      </trkpt>
      <trkpt lat="45.85481" lon="4.71216">
        <ele>200.48468</ele>
        <time>2022-08-06T15:03:30.000Z</time>
      </trkpt>
      <trkpt lat="45.85483" lon="4.71215">
        <ele>200.50772</ele>
        <time>2022-08-06T15:03:37.000Z</time>
      </trkpt>
      <trkpt lat="45.85483" lon="4.71212">
        <ele>200.53854</ele>
        <time>2022-08-06T15:04:11.000Z</time>
      </trkpt>
      <trkpt lat="45.85484" lon="4.7121">
        <ele>200.53912</ele>
        <time>2022-08-06T15:04:15.000Z</time>
      </trkpt>
      <trkpt lat="45.85485" lon="4.71208">
        <ele>200.56558</ele>
        <time>2022-08-06T15:04:30.000Z</time>
      </trkpt>
      <trkpt lat="45.85485" lon="4.71203">
        <ele>200.60277</ele>
        <time>2022-08-06T15:04:40.000Z</time>
      </trkpt>
      <trkpt lat="45.85485" lon="4.712">
        <ele>200.60519</ele>
        <time>2022-08-06T15:04:45.000Z</time>
      </trkpt>
      <trkpt lat="45.85483" lon="4.71199">
        <ele>200.82904</ele>
        <time>2022-08-06T15:04:59.000Z</time>
      </trkpt>
      <trkpt lat="45.85484" lon="4.71196">
        <ele>201.14638</ele>
        <time>2022-08-06T15:05:43.000Z</time>
      </trkpt>
      <trkpt lat="45.85487" lon="4.71193">
        <ele>201.35176</ele>
        <time>2022-08-06T15:05:45.000Z</time>
      </trkpt>
      <trkpt lat="45.85489" lon="4.71189">
        <ele>201.45332</ele>
        <time>2022-08-06T15:05:47.000Z</time>
      </trkpt>
      <trkpt lat="45.85492" lon="4.71186">
        <ele>201.74365</ele>
        <time>2022-08-06T15:05:49.000Z</time>
      </trkpt>
      <trkpt lat="45.85493" lon="4.71183">
        <ele>201.87428</ele>
        <time>2022-08-06T15:05:50.000Z</time>
      </trkpt>
      <trkpt lat="45.85495" lon="4.71181">
        <ele>202.02139</ele>
        <time>2022-08-06T15:05:52.000Z</time>
      </trkpt>
      <trkpt lat="45.85496" lon="4.7118">
        <ele>202.22252</ele>
        <time>2022-08-06T15:05:54.000Z</time>
      </trkpt>
      <trkpt lat="45.85499" lon="4.71178">
        <ele>202.44315</ele>
        <time>2022-08-06T15:05:56.000Z</time>
      </trkpt>
      <trkpt lat="45.85501" lon="4.71176">
        <ele>202.71884</ele>
        <time>2022-08-06T15:05:58.000Z</time>
      </trkpt>
      <trkpt lat="45.85503" lon="4.71173">
        <ele>202.98985</ele>
        <time>2022-08-06T15:06:00.000Z</time>
      </trkpt>
      <trkpt lat="45.85505" lon="4.71171">
        <ele>203.19987</ele>
        <time>2022-08-06T15:06:01.000Z</time>
      </trkpt>
      <trkpt lat="45.85506" lon="4.71169">
        <ele>203.28098</ele>
        <time>2022-08-06T15:06:03.000Z</time>
      </trkpt>
      <trkpt lat="45.85507" lon="4.71166">
        <ele>203.37056</ele>
        <time>2022-08-06T15:06:13.000Z</time>
      </trkpt>
      <trkpt lat="45.85509" lon="4.71164">
        <ele>203.51627</ele>
        <time>2022-08-06T15:06:17.000Z</time>
      </trkpt>
      <trkpt lat="45.8551" lon="4.71161">
        <ele>203.72626</ele>
        <time>2022-08-06T15:06:18.000Z</time>
      </trkpt>
      <trkpt lat="45.85511" lon="4.71158">
        <ele>203.94943</ele>
        <time>2022-08-06T15:06:19.000Z</time>
      </trkpt>
      <trkpt lat="45.85512" lon="4.71154">
        <ele>204.36259</ele>
        <time>2022-08-06T15:06:21.000Z</time>
      </trkpt>
      <trkpt lat="45.85513" lon="4.71151">
        <ele>204.82271</ele>
        <time>2022-08-06T15:06:23.000Z</time>
      </trkpt>
      <trkpt lat="45.85514" lon="4.71149">
        <ele>205.38823</ele>
        <time>2022-08-06T15:06:25.000Z</time>
      </trkpt>
      <trkpt lat="45.85516" lon="4.71146">
        <ele>205.82796</ele>
        <time>2022-08-06T15:06:27.000Z</time>
      </trkpt>
      <trkpt lat="45.85518" lon="4.71144">
        <ele>206.16158</ele>
        <time>2022-08-06T15:06:30.000Z</time>
      </trkpt>
      <trkpt lat="45.85519" lon="4.71141">
        <ele>206.69205</ele>
        <time>2022-08-06T15:08:16.000Z</time>
      </trkpt>
      <trkpt lat="45.85518" lon="4.71139">
        <ele>207.25687</ele>
        <time>2022-08-06T15:08:20.000Z</time>
      </trkpt>
      <trkpt lat="45.85517" lon="4.71136">
        <ele>207.94919</ele>
        <time>2022-08-06T15:08:58.000Z</time>
      </trkpt>
      <trkpt lat="45.85517" lon="4.71132">
        <ele>208.74588</ele>
        <time>2022-08-06T15:09:00.000Z</time>
      </trkpt>
      <trkpt lat="45.85517" lon="4.71129">
        <ele>209.42114</ele>
        <time>2022-08-06T15:09:02.000Z</time>
      </trkpt>
      <trkpt lat="45.85517" lon="4.71125">
        <ele>210.05771</ele>
        <time>2022-08-06T15:09:04.000Z</time>
      </trkpt>
      <trkpt lat="45.85518" lon="4.71122">
        <ele>210.73112</ele>
        <time>2022-08-06T15:09:05.000Z</time>
      </trkpt>
      <trkpt lat="45.85518" lon="4.71118">
        <ele>211.39261</ele>
        <time>2022-08-06T15:09:06.000Z</time>
      </trkpt>
      <trkpt lat="45.85518" lon="4.71114">
        <ele>212.00208</ele>
        <time>2022-08-06T15:09:07.000Z</time>
      </trkpt>
      <trkpt lat="45.85518" lon="4.7111">
        <ele>212.65532</ele>
        <time>2022-08-06T15:09:08.000Z</time>
      </trkpt>
      <trkpt lat="45.85518" lon="4.71107">
        <ele>213.32022</ele>
        <time>2022-08-06T15:09:09.000Z</time>
      </trkpt>
      <trkpt lat="45.85518" lon="4.71103">
        <ele>213.95081</ele>
        <time>2022-08-06T15:09:10.000Z</time>
      </trkpt>
      <trkpt lat="45.85518" lon="4.711">
        <ele>214.61215</ele>
        <time>2022-08-06T15:09:11.000Z</time>
      </trkpt>
      <trkpt lat="45.85518" lon="4.71097">
        <ele>215.23918</ele>
        <time>2022-08-06T15:09:12.000Z</time>
      </trkpt>
      <trkpt lat="45.85518" lon="4.71094">
        <ele>215.87895</ele>
        <time>2022-08-06T15:09:13.000Z</time>
      </trkpt>
      <trkpt lat="45.85518" lon="4.71091">
        <ele>216.47958</ele>
        <time>2022-08-06T15:09:14.000Z</time>
      </trkpt>
      <trkpt lat="45.85519" lon="4.71087">
        <ele>216.9852</ele>
        <time>2022-08-06T15:09:15.000Z</time>
      </trkpt>
      <trkpt lat="45.85519" lon="4.71083">
        <ele>217.48257</ele>
        <time>2022-08-06T15:09:16.000Z</time>
      </trkpt>
      <trkpt lat="45.85519" lon="4.71079">
        <ele>217.96745</ele>
        <time>2022-08-06T15:09:17.000Z</time>
      </trkpt>
      <trkpt lat="45.8552" lon="4.71074">
        <ele>218.38181</ele>
        <time>2022-08-06T15:09:18.000Z</time>
      </trkpt>
      <trkpt lat="45.8552" lon="4.7107">
        <ele>218.69751</ele>
        <time>2022-08-06T15:09:19.000Z</time>
      </trkpt>
      <trkpt lat="45.8552" lon="4.71066">
        <ele>218.92532</ele>
        <time>2022-08-06T15:09:20.000Z</time>
      </trkpt>
      <trkpt lat="45.8552" lon="4.71061">
        <ele>218.91805</ele>
        <time>2022-08-06T15:09:21.000Z</time>
      </trkpt>
      <trkpt lat="45.8552" lon="4.71056">
        <ele>218.94461</ele>
        <time>2022-08-06T15:09:22.000Z</time>
      </trkpt>
      <trkpt lat="45.85519" lon="4.71051">
        <ele>219.05298</ele>
        <time>2022-08-06T15:09:23.000Z</time>
      </trkpt>
      <trkpt lat="45.8552" lon="4.71046">
        <ele>219.10452</ele>
        <time>2022-08-06T15:09:24.000Z</time>
      </trkpt>
      <trkpt lat="45.8552" lon="4.71042">
        <ele>219.19992</ele>
        <time>2022-08-06T15:09:25.000Z</time>
      </trkpt>
      <trkpt lat="45.85519" lon="4.71038">
        <ele>219.34331</ele>
        <time>2022-08-06T15:09:26.000Z</time>
      </trkpt>
      <trkpt lat="45.85518" lon="4.71035">
        <ele>219.5658</ele>
        <time>2022-08-06T15:09:27.000Z</time>
      </trkpt>
      <trkpt lat="45.85516" lon="4.71032">
        <ele>219.67859</ele>
        <time>2022-08-06T15:09:28.000Z</time>
      </trkpt>
      <trkpt lat="45.85513" lon="4.71028">
        <ele>219.84268</ele>
        <time>2022-08-06T15:09:30.000Z</time>
      </trkpt>
      <trkpt lat="45.85511" lon="4.71026">
        <ele>220.01164</ele>
        <time>2022-08-06T15:09:31.000Z</time>
      </trkpt>
      <trkpt lat="45.8551" lon="4.71025">
        <ele>220.18005</ele>
        <time>2022-08-06T15:09:32.000Z</time>
      </trkpt>
      <trkpt lat="45.85508" lon="4.71023">
        <ele>220.34827</ele>
        <time>2022-08-06T15:09:33.000Z</time>
      </trkpt>
      <trkpt lat="45.85506" lon="4.7102">
        <ele>220.48267</ele>
        <time>2022-08-06T15:09:34.000Z</time>
      </trkpt>
      <trkpt lat="45.85505" lon="4.71017">
        <ele>220.56609</ele>
        <time>2022-08-06T15:09:35.000Z</time>
      </trkpt>
      <trkpt lat="45.85503" lon="4.71014">
        <ele>220.70662</ele>
        <time>2022-08-06T15:09:36.000Z</time>
      </trkpt>
      <trkpt lat="45.85502" lon="4.71004">
        <ele>220.8768</ele>
        <time>2022-08-06T15:09:38.000Z</time>
      </trkpt>
      <trkpt lat="45.85502" lon="4.70999">
        <ele>221.05191</ele>
        <time>2022-08-06T15:09:39.000Z</time>
      </trkpt>
      <trkpt lat="45.85502" lon="4.70993">
        <ele>221.22458</ele>
        <time>2022-08-06T15:09:40.000Z</time>
      </trkpt>
      <trkpt lat="45.85502" lon="4.70987">
        <ele>221.36447</ele>
        <time>2022-08-06T15:09:41.000Z</time>
      </trkpt>
      <trkpt lat="45.85502" lon="4.70982">
        <ele>221.55037</ele>
        <time>2022-08-06T15:09:42.000Z</time>
      </trkpt>
      <trkpt lat="45.85503" lon="4.70977">
        <ele>221.74825</ele>
        <time>2022-08-06T15:09:43.000Z</time>
      </trkpt>
      <trkpt lat="45.85503" lon="4.70972">
        <ele>221.91122</ele>
        <time>2022-08-06T15:09:44.000Z</time>
      </trkpt>
      <trkpt lat="45.85503" lon="4.70967">
        <ele>222.04297</ele>
        <time>2022-08-06T15:09:45.000Z</time>
      </trkpt>
      <trkpt lat="45.85503" lon="4.7096">
        <ele>222.20975</ele>
        <time>2022-08-06T15:09:46.000Z</time>
      </trkpt>
      <trkpt lat="45.85503" lon="4.70955">
        <ele>222.33041</ele>
        <time>2022-08-06T15:09:47.000Z</time>
      </trkpt>
      <trkpt lat="45.85503" lon="4.7095">
        <ele>222.34627</ele>
        <time>2022-08-06T15:09:48.000Z</time>
      </trkpt>
      <trkpt lat="45.85502" lon="4.70945">
        <ele>222.20854</ele>
        <time>2022-08-06T15:09:49.000Z</time>
      </trkpt>
      <trkpt lat="45.85502" lon="4.7094">
        <ele>222.18521</ele>
        <time>2022-08-06T15:09:50.000Z</time>
      </trkpt>
      <trkpt lat="45.85501" lon="4.70936">
        <ele>222.08163</ele>
        <time>2022-08-06T15:09:51.000Z</time>
      </trkpt>
      <trkpt lat="45.85501" lon="4.70933">
        <ele>221.85971</ele>
        <time>2022-08-06T15:09:52.000Z</time>
      </trkpt>
      <trkpt lat="45.855" lon="4.7093">
        <ele>221.57942</ele>
        <time>2022-08-06T15:09:53.000Z</time>
      </trkpt>
      <trkpt lat="45.85499" lon="4.70926">
        <ele>221.37341</ele>
        <time>2022-08-06T15:09:55.000Z</time>
      </trkpt>
      <trkpt lat="45.85497" lon="4.70925">
        <ele>221.20218</ele>
        <time>2022-08-06T15:09:56.000Z</time>
      </trkpt>
      <trkpt lat="45.85495" lon="4.70924">
        <ele>221.01025</ele>
        <time>2022-08-06T15:09:57.000Z</time>
      </trkpt>
      <trkpt lat="45.85492" lon="4.70923">
        <ele>220.83054</ele>
        <time>2022-08-06T15:09:58.000Z</time>
      </trkpt>
      <trkpt lat="45.8549" lon="4.70923">
        <ele>220.64693</ele>
        <time>2022-08-06T15:09:59.000Z</time>
      </trkpt>
      <trkpt lat="45.85487" lon="4.70923">
        <ele>220.47734</ele>
        <time>2022-08-06T15:10:00.000Z</time>
      </trkpt>
      <trkpt lat="45.85484" lon="4.70922">
        <ele>220.27368</ele>
        <time>2022-08-06T15:10:01.000Z</time>
      </trkpt>
      <trkpt lat="45.85481" lon="4.70921">
        <ele>220.11594</ele>
        <time>2022-08-06T15:10:02.000Z</time>
      </trkpt>
      <trkpt lat="45.85476" lon="4.7092">
        <ele>220.1022</ele>
        <time>2022-08-06T15:10:04.000Z</time>
      </trkpt>
      <trkpt lat="45.85474" lon="4.7092">
        <ele>220.11031</ele>
        <time>2022-08-06T15:10:05.000Z</time>
      </trkpt>
      <trkpt lat="45.85472" lon="4.70919">
        <ele>220.06743</ele>
        <time>2022-08-06T15:10:06.000Z</time>
      </trkpt>
      <trkpt lat="45.85468" lon="4.70918">
        <ele>220.13103</ele>
        <time>2022-08-06T15:10:08.000Z</time>
      </trkpt>
      <trkpt lat="45.85466" lon="4.70917">
        <ele>220.33366</ele>
        <time>2022-08-06T15:10:09.000Z</time>
      </trkpt>
      <trkpt lat="45.85463" lon="4.70916">
        <ele>220.42001</ele>
        <time>2022-08-06T15:10:10.000Z</time>
      </trkpt>
      <trkpt lat="45.85459" lon="4.70916">
        <ele>220.59409</ele>
        <time>2022-08-06T15:10:11.000Z</time>
      </trkpt>
      <trkpt lat="45.85454" lon="4.70915">
        <ele>220.87508</ele>
        <time>2022-08-06T15:10:12.000Z</time>
      </trkpt>
      <trkpt lat="45.85451" lon="4.70914">
        <ele>221.14291</ele>
        <time>2022-08-06T15:10:13.000Z</time>
      </trkpt>
      <trkpt lat="45.85448" lon="4.70913">
        <ele>221.47269</ele>
        <time>2022-08-06T15:10:14.000Z</time>
      </trkpt>
      <trkpt lat="45.85444" lon="4.70912">
        <ele>221.90848</ele>
        <time>2022-08-06T15:10:15.000Z</time>
      </trkpt>
      <trkpt lat="45.8544" lon="4.7091">
        <ele>222.37361</ele>
        <time>2022-08-06T15:10:16.000Z</time>
      </trkpt>
      <trkpt lat="45.85437" lon="4.70908">
        <ele>222.70715</ele>
        <time>2022-08-06T15:10:17.000Z</time>
      </trkpt>
      <trkpt lat="45.85433" lon="4.70906">
        <ele>222.98813</ele>
        <time>2022-08-06T15:10:18.000Z</time>
      </trkpt>
      <trkpt lat="45.85429" lon="4.70904">
        <ele>223.27937</ele>
        <time>2022-08-06T15:10:19.000Z</time>
      </trkpt>
      <trkpt lat="45.85425" lon="4.70902">
        <ele>223.59512</ele>
        <time>2022-08-06T15:10:20.000Z</time>
      </trkpt>
      <trkpt lat="45.85422" lon="4.70901">
        <ele>223.87691</ele>
        <time>2022-08-06T15:10:21.000Z</time>
      </trkpt>
      <trkpt lat="45.85418" lon="4.70899">
        <ele>224.17313</ele>
        <time>2022-08-06T15:10:22.000Z</time>
      </trkpt>
      <trkpt lat="45.85415" lon="4.70897">
        <ele>224.52524</ele>
        <time>2022-08-06T15:10:23.000Z</time>
      </trkpt>
      <trkpt lat="45.85412" lon="4.70896">
        <ele>224.85495</ele>
        <time>2022-08-06T15:10:24.000Z</time>
      </trkpt>
      <trkpt lat="45.85408" lon="4.70894">
        <ele>225.02881</ele>
        <time>2022-08-06T15:10:25.000Z</time>
      </trkpt>
      <trkpt lat="45.85404" lon="4.70892">
        <ele>225.18399</ele>
        <time>2022-08-06T15:10:26.000Z</time>
      </trkpt>
      <trkpt lat="45.85401" lon="4.7089">
        <ele>225.37871</ele>
        <time>2022-08-06T15:10:27.000Z</time>
      </trkpt>
      <trkpt lat="45.85398" lon="4.70888">
        <ele>225.47852</ele>
        <time>2022-08-06T15:10:28.000Z</time>
      </trkpt>
      <trkpt lat="45.85395" lon="4.70886">
        <ele>225.50729</ele>
        <time>2022-08-06T15:10:29.000Z</time>
      </trkpt>
      <trkpt lat="45.85392" lon="4.70884">
        <ele>225.67664</ele>
        <time>2022-08-06T15:10:30.000Z</time>
      </trkpt>
      <trkpt lat="45.85389" lon="4.70883">
        <ele>225.76578</ele>
        <time>2022-08-06T15:10:31.000Z</time>
      </trkpt>
      <trkpt lat="45.85385" lon="4.70882">
        <ele>225.85307</ele>
        <time>2022-08-06T15:10:32.000Z</time>
      </trkpt>
      <trkpt lat="45.85382" lon="4.70881">
        <ele>225.91521</ele>
        <time>2022-08-06T15:10:33.000Z</time>
      </trkpt>
      <trkpt lat="45.85379" lon="4.7088">
        <ele>225.97147</ele>
        <time>2022-08-06T15:10:34.000Z</time>
      </trkpt>
      <trkpt lat="45.85372" lon="4.70878">
        <ele>225.98877</ele>
        <time>2022-08-06T15:10:36.000Z</time>
      </trkpt>
      <trkpt lat="45.85369" lon="4.70877">
        <ele>226.03694</ele>
        <time>2022-08-06T15:10:37.000Z</time>
      </trkpt>
      <trkpt lat="45.85366" lon="4.70876">
        <ele>226.09322</ele>
        <time>2022-08-06T15:10:38.000Z</time>
      </trkpt>
      <trkpt lat="45.85364" lon="4.70875">
        <ele>226.15579</ele>
        <time>2022-08-06T15:10:39.000Z</time>
      </trkpt>
      <trkpt lat="45.85361" lon="4.70874">
        <ele>226.21683</ele>
        <time>2022-08-06T15:10:40.000Z</time>
      </trkpt>
      <trkpt lat="45.85359" lon="4.70873">
        <ele>226.23389</ele>
        <time>2022-08-06T15:10:41.000Z</time>
      </trkpt>
      <trkpt lat="45.85356" lon="4.70871">
        <ele>226.24936</ele>
        <time>2022-08-06T15:10:42.000Z</time>
      </trkpt>
      <trkpt lat="45.85354" lon="4.7087">
        <ele>226.24414</ele>
        <time>2022-08-06T15:10:43.000Z</time>
      </trkpt>
      <trkpt lat="45.85351" lon="4.70868">
        <ele>226.24399</ele>
        <time>2022-08-06T15:10:44.000Z</time>
      </trkpt>
      <trkpt lat="45.85347" lon="4.70866">
        <ele>226.18559</ele>
        <time>2022-08-06T15:10:46.000Z</time>
      </trkpt>
      <trkpt lat="45.85349" lon="4.70865">
        <ele>226.14091</ele>
        <time>2022-08-06T15:10:49.000Z</time>
      </trkpt>
      <trkpt lat="45.85347" lon="4.70866">
        <ele>225.9034</ele>
        <time>2022-08-06T15:13:38.000Z</time>
      </trkpt>
      <trkpt lat="45.85346" lon="4.70865">
        <ele>225.70755</ele>
        <time>2022-08-06T15:13:39.000Z</time>
      </trkpt>
      <trkpt lat="45.85344" lon="4.70864">
        <ele>225.5452</ele>
        <time>2022-08-06T15:13:40.000Z</time>
      </trkpt>
      <trkpt lat="45.85342" lon="4.70863">
        <ele>225.38388</ele>
        <time>2022-08-06T15:13:41.000Z</time>
      </trkpt>
      <trkpt lat="45.8534" lon="4.70863">
        <ele>225.19878</ele>
        <time>2022-08-06T15:13:42.000Z</time>
      </trkpt>
      <trkpt lat="45.85337" lon="4.70862">
        <ele>225.0256</ele>
        <time>2022-08-06T15:13:43.000Z</time>
      </trkpt>
      <trkpt lat="45.85335" lon="4.70861">
        <ele>224.91861</ele>
        <time>2022-08-06T15:13:44.000Z</time>
      </trkpt>
      <trkpt lat="45.85332" lon="4.70859">
        <ele>224.94417</ele>
        <time>2022-08-06T15:13:45.000Z</time>
      </trkpt>
      <trkpt lat="45.85328" lon="4.70856">
        <ele>224.87813</ele>
        <time>2022-08-06T15:13:46.000Z</time>
      </trkpt>
      <trkpt lat="45.85326" lon="4.70853">
        <ele>224.88794</ele>
        <time>2022-08-06T15:13:47.000Z</time>
      </trkpt>
      <trkpt lat="45.85323" lon="4.7085">
        <ele>224.955</ele>
        <time>2022-08-06T15:13:48.000Z</time>
      </trkpt>
      <trkpt lat="45.85321" lon="4.70847">
        <ele>225.04129</ele>
        <time>2022-08-06T15:13:49.000Z</time>
      </trkpt>
      <trkpt lat="45.85318" lon="4.70843">
        <ele>225.1088</ele>
        <time>2022-08-06T15:13:50.000Z</time>
      </trkpt>
      <trkpt lat="45.85315" lon="4.7084">
        <ele>225.17618</ele>
        <time>2022-08-06T15:13:51.000Z</time>
      </trkpt>
      <trkpt lat="45.85312" lon="4.70837">
        <ele>225.28406</ele>
        <time>2022-08-06T15:13:52.000Z</time>
      </trkpt>
      <trkpt lat="45.8531" lon="4.70834">
        <ele>225.40349</ele>
        <time>2022-08-06T15:13:53.000Z</time>
      </trkpt>
      <trkpt lat="45.85307" lon="4.7083">
        <ele>225.5489</ele>
        <time>2022-08-06T15:13:54.000Z</time>
      </trkpt>
      <trkpt lat="45.85305" lon="4.70825">
        <ele>225.74902</ele>
        <time>2022-08-06T15:13:55.000Z</time>
      </trkpt>
      <trkpt lat="45.85302" lon="4.7082">
        <ele>225.94536</ele>
        <time>2022-08-06T15:13:56.000Z</time>
      </trkpt>
      <trkpt lat="45.85299" lon="4.70815">
        <ele>226.08997</ele>
        <time>2022-08-06T15:13:57.000Z</time>
      </trkpt>
      <trkpt lat="45.85297" lon="4.70811">
        <ele>226.37346</ele>
        <time>2022-08-06T15:13:58.000Z</time>
      </trkpt>
      <trkpt lat="45.85294" lon="4.70807">
        <ele>226.55302</ele>
        <time>2022-08-06T15:13:59.000Z</time>
      </trkpt>
      <trkpt lat="45.85291" lon="4.70803">
        <ele>226.70003</ele>
        <time>2022-08-06T15:14:00.000Z</time>
      </trkpt>
      <trkpt lat="45.85288" lon="4.70799">
        <ele>226.80315</ele>
        <time>2022-08-06T15:14:01.000Z</time>
      </trkpt>
      <trkpt lat="45.85285" lon="4.70796">
        <ele>226.88472</ele>
        <time>2022-08-06T15:14:02.000Z</time>
      </trkpt>
      <trkpt lat="45.85281" lon="4.70792">
        <ele>227.005</ele>
        <time>2022-08-06T15:14:03.000Z</time>
      </trkpt>
      <trkpt lat="45.85278" lon="4.70789">
        <ele>227.11496</ele>
        <time>2022-08-06T15:14:04.000Z</time>
      </trkpt>
      <trkpt lat="45.85276" lon="4.70786">
        <ele>227.1154</ele>
        <time>2022-08-06T15:14:05.000Z</time>
      </trkpt>
      <trkpt lat="45.85274" lon="4.70783">
        <ele>227.13571</ele>
        <time>2022-08-06T15:14:06.000Z</time>
      </trkpt>
      <trkpt lat="45.8527" lon="4.70781">
        <ele>227.21094</ele>
        <time>2022-08-06T15:14:07.000Z</time>
      </trkpt>
      <trkpt lat="45.85267" lon="4.7078">
        <ele>227.27673</ele>
        <time>2022-08-06T15:14:08.000Z</time>
      </trkpt>
      <trkpt lat="45.85263" lon="4.7078">
        <ele>227.32993</ele>
        <time>2022-08-06T15:14:09.000Z</time>
      </trkpt>
      <trkpt lat="45.85259" lon="4.7078">
        <ele>227.45427</ele>
        <time>2022-08-06T15:14:10.000Z</time>
      </trkpt>
      <trkpt lat="45.85255" lon="4.70782">
        <ele>227.57724</ele>
        <time>2022-08-06T15:14:11.000Z</time>
      </trkpt>
      <trkpt lat="45.8525" lon="4.70783">
        <ele>227.68564</ele>
        <time>2022-08-06T15:14:12.000Z</time>
      </trkpt>
      <trkpt lat="45.85247" lon="4.70786">
        <ele>227.84541</ele>
        <time>2022-08-06T15:14:13.000Z</time>
      </trkpt>
      <trkpt lat="45.85244" lon="4.70789">
        <ele>227.99759</ele>
        <time>2022-08-06T15:14:14.000Z</time>
      </trkpt>
      <trkpt lat="45.85241" lon="4.70794">
        <ele>228.0715</ele>
        <time>2022-08-06T15:14:15.000Z</time>
      </trkpt>
      <trkpt lat="45.85239" lon="4.7081">
        <ele>228.16882</ele>
        <time>2022-08-06T15:14:16.000Z</time>
      </trkpt>
      <trkpt lat="45.85236" lon="4.70814">
        <ele>228.33232</ele>
        <time>2022-08-06T15:14:17.000Z</time>
      </trkpt>
      <trkpt lat="45.85232" lon="4.70819">
        <ele>228.49551</ele>
        <time>2022-08-06T15:14:18.000Z</time>
      </trkpt>
      <trkpt lat="45.8523" lon="4.70821">
        <ele>228.75679</ele>
        <time>2022-08-06T15:14:19.000Z</time>
      </trkpt>
      <trkpt lat="45.85228" lon="4.70822">
        <ele>229.04268</ele>
        <time>2022-08-06T15:14:20.000Z</time>
      </trkpt>
      <trkpt lat="45.85225" lon="4.70821">
        <ele>229.41183</ele>
        <time>2022-08-06T15:14:21.000Z</time>
      </trkpt>
      <trkpt lat="45.85223" lon="4.70825">
        <ele>229.78519</ele>
        <time>2022-08-06T15:14:22.000Z</time>
      </trkpt>
      <trkpt lat="45.8522" lon="4.70825">
        <ele>230.17728</ele>
        <time>2022-08-06T15:14:23.000Z</time>
      </trkpt>
      <trkpt lat="45.85217" lon="4.70826">
        <ele>230.498</ele>
        <time>2022-08-06T15:14:24.000Z</time>
      </trkpt>
      <trkpt lat="45.85215" lon="4.70827">
        <ele>230.85416</ele>
        <time>2022-08-06T15:14:25.000Z</time>
      </trkpt>
      <trkpt lat="45.85211" lon="4.70826">
        <ele>231.23787</ele>
        <time>2022-08-06T15:14:26.000Z</time>
      </trkpt>
      <trkpt lat="45.85209" lon="4.70828">
        <ele>231.47762</ele>
        <time>2022-08-06T15:14:27.000Z</time>
      </trkpt>
      <trkpt lat="45.85206" lon="4.70828">
        <ele>231.61528</ele>
        <time>2022-08-06T15:14:28.000Z</time>
      </trkpt>
      <trkpt lat="45.85203" lon="4.70829">
        <ele>231.89571</ele>
        <time>2022-08-06T15:14:29.000Z</time>
      </trkpt>
      <trkpt lat="45.852" lon="4.70831">
        <ele>232.1438</ele>
        <time>2022-08-06T15:14:30.000Z</time>
      </trkpt>
      <trkpt lat="45.85197" lon="4.70832">
        <ele>232.40556</ele>
        <time>2022-08-06T15:14:31.000Z</time>
      </trkpt>
      <trkpt lat="45.85194" lon="4.70833">
        <ele>232.69466</ele>
        <time>2022-08-06T15:14:32.000Z</time>
      </trkpt>
      <trkpt lat="45.85191" lon="4.70834">
        <ele>232.98714</ele>
        <time>2022-08-06T15:14:33.000Z</time>
      </trkpt>
      <trkpt lat="45.85187" lon="4.70833">
        <ele>233.29427</ele>
        <time>2022-08-06T15:14:34.000Z</time>
      </trkpt>
      <trkpt lat="45.85184" lon="4.70833">
        <ele>233.65779</ele>
        <time>2022-08-06T15:14:35.000Z</time>
      </trkpt>
      <trkpt lat="45.85181" lon="4.70833">
        <ele>234.04483</ele>
        <time>2022-08-06T15:14:36.000Z</time>
      </trkpt>
      <trkpt lat="45.85178" lon="4.70832">
        <ele>234.34494</ele>
        <time>2022-08-06T15:14:37.000Z</time>
      </trkpt>
      <trkpt lat="45.85176" lon="4.70833">
        <ele>234.66643</ele>
        <time>2022-08-06T15:14:38.000Z</time>
      </trkpt>
      <trkpt lat="45.85174" lon="4.70833">
        <ele>234.92896</ele>
        <time>2022-08-06T15:14:39.000Z</time>
      </trkpt>
      <trkpt lat="45.85172" lon="4.70833">
        <ele>235.24117</ele>
        <time>2022-08-06T15:14:40.000Z</time>
      </trkpt>
      <trkpt lat="45.85169" lon="4.70832">
        <ele>235.53548</ele>
        <time>2022-08-06T15:14:41.000Z</time>
      </trkpt>
      <trkpt lat="45.85167" lon="4.70831">
        <ele>235.86333</ele>
        <time>2022-08-06T15:14:42.000Z</time>
      </trkpt>
      <trkpt lat="45.85165" lon="4.7083">
        <ele>236.12985</ele>
        <time>2022-08-06T15:14:43.000Z</time>
      </trkpt>
      <trkpt lat="45.85163" lon="4.70828">
        <ele>236.34554</ele>
        <time>2022-08-06T15:14:44.000Z</time>
      </trkpt>
      <trkpt lat="45.8516" lon="4.70826">
        <ele>236.46243</ele>
        <time>2022-08-06T15:14:45.000Z</time>
      </trkpt>
      <trkpt lat="45.85157" lon="4.70824">
        <ele>236.57124</ele>
        <time>2022-08-06T15:14:46.000Z</time>
      </trkpt>
      <trkpt lat="45.85153" lon="4.70823">
        <ele>236.69109</ele>
        <time>2022-08-06T15:14:47.000Z</time>
      </trkpt>
      <trkpt lat="45.85149" lon="4.70822">
        <ele>236.82466</ele>
        <time>2022-08-06T15:14:48.000Z</time>
      </trkpt>
      <trkpt lat="45.85146" lon="4.70821">
        <ele>236.9075</ele>
        <time>2022-08-06T15:14:49.000Z</time>
      </trkpt>
      <trkpt lat="45.85144" lon="4.70819">
        <ele>237.00198</ele>
        <time>2022-08-06T15:14:50.000Z</time>
      </trkpt>
      <trkpt lat="45.85142" lon="4.70818">
        <ele>237.11179</ele>
        <time>2022-08-06T15:14:51.000Z</time>
      </trkpt>
      <trkpt lat="45.85139" lon="4.70817">
        <ele>237.20686</ele>
        <time>2022-08-06T15:14:52.000Z</time>
      </trkpt>
      <trkpt lat="45.85137" lon="4.70816">
        <ele>237.24551</ele>
        <time>2022-08-06T15:14:53.000Z</time>
      </trkpt>
      <trkpt lat="45.85135" lon="4.70816">
        <ele>237.29121</ele>
        <time>2022-08-06T15:14:54.000Z</time>
      </trkpt>
      <trkpt lat="45.85133" lon="4.70815">
        <ele>237.33463</ele>
        <time>2022-08-06T15:14:55.000Z</time>
      </trkpt>
      <trkpt lat="45.85131" lon="4.70814">
        <ele>237.39365</ele>
        <time>2022-08-06T15:14:56.000Z</time>
      </trkpt>
      <trkpt lat="45.85129" lon="4.70814">
        <ele>237.49326</ele>
        <time>2022-08-06T15:14:57.000Z</time>
      </trkpt>
      <trkpt lat="45.85126" lon="4.70814">
        <ele>237.6783</ele>
        <time>2022-08-06T15:14:58.000Z</time>
      </trkpt>
      <trkpt lat="45.85124" lon="4.70814">
        <ele>237.86856</ele>
        <time>2022-08-06T15:14:59.000Z</time>
      </trkpt>
      <trkpt lat="45.85121" lon="4.70815">
        <ele>238.06082</ele>
        <time>2022-08-06T15:15:00.000Z</time>
      </trkpt>
      <trkpt lat="45.85119" lon="4.70815">
        <ele>238.24963</ele>
        <time>2022-08-06T15:15:01.000Z</time>
      </trkpt>
      <trkpt lat="45.85116" lon="4.70815">
        <ele>238.61533</ele>
        <time>2022-08-06T15:15:03.000Z</time>
      </trkpt>
      <trkpt lat="45.85114" lon="4.70814">
        <ele>239.04793</ele>
        <time>2022-08-06T15:15:05.000Z</time>
      </trkpt>
      <trkpt lat="45.85111" lon="4.70812">
        <ele>239.52869</ele>
        <time>2022-08-06T15:15:07.000Z</time>
      </trkpt>
      <trkpt lat="45.85108" lon="4.70812">
        <ele>240.09212</ele>
        <time>2022-08-06T15:15:09.000Z</time>
      </trkpt>
      <trkpt lat="45.85105" lon="4.70813">
        <ele>240.63347</ele>
        <time>2022-08-06T15:15:11.000Z</time>
      </trkpt>
      <trkpt lat="45.85102" lon="4.70814">
        <ele>241.26547</ele>
        <time>2022-08-06T15:15:12.000Z</time>
      </trkpt>
      <trkpt lat="45.851" lon="4.70815">
        <ele>241.74368</ele>
        <time>2022-08-06T15:15:13.000Z</time>
      </trkpt>
      <trkpt lat="45.85098" lon="4.70815">
        <ele>242.17403</ele>
        <time>2022-08-06T15:15:14.000Z</time>
      </trkpt>
      <trkpt lat="45.85096" lon="4.70815">
        <ele>242.62167</ele>
        <time>2022-08-06T15:15:15.000Z</time>
      </trkpt>
      <trkpt lat="45.85094" lon="4.70815">
        <ele>243.10164</ele>
        <time>2022-08-06T15:15:16.000Z</time>
      </trkpt>
      <trkpt lat="45.85092" lon="4.70817">
        <ele>243.70996</ele>
        <time>2022-08-06T15:15:18.000Z</time>
      </trkpt>
      <trkpt lat="45.85089" lon="4.70817">
        <ele>244.34375</ele>
        <time>2022-08-06T15:15:20.000Z</time>
      </trkpt>
      <trkpt lat="45.85086" lon="4.70815">
        <ele>244.95432</ele>
        <time>2022-08-06T15:15:22.000Z</time>
      </trkpt>
      <trkpt lat="45.85084" lon="4.70813">
        <ele>245.60751</ele>
        <time>2022-08-06T15:15:24.000Z</time>
      </trkpt>
      <trkpt lat="45.85082" lon="4.70812">
        <ele>246.04587</ele>
        <time>2022-08-06T15:15:25.000Z</time>
      </trkpt>
      <trkpt lat="45.8508" lon="4.70811">
        <ele>246.33569</ele>
        <time>2022-08-06T15:15:26.000Z</time>
      </trkpt>
      <trkpt lat="45.85078" lon="4.7081">
        <ele>246.58611</ele>
        <time>2022-08-06T15:15:27.000Z</time>
      </trkpt>
      <trkpt lat="45.85076" lon="4.7081">
        <ele>246.84782</ele>
        <time>2022-08-06T15:15:28.000Z</time>
      </trkpt>
      <trkpt lat="45.85073" lon="4.70809">
        <ele>247.06067</ele>
        <time>2022-08-06T15:15:29.000Z</time>
      </trkpt>
      <trkpt lat="45.85071" lon="4.70807">
        <ele>247.3344</ele>
        <time>2022-08-06T15:15:30.000Z</time>
      </trkpt>
      <trkpt lat="45.85069" lon="4.70805">
        <ele>247.68555</ele>
        <time>2022-08-06T15:15:32.000Z</time>
      </trkpt>
      <trkpt lat="45.85066" lon="4.70805">
        <ele>247.94014</ele>
        <time>2022-08-06T15:15:36.000Z</time>
      </trkpt>
      <trkpt lat="45.85066" lon="4.70808">
        <ele>248.07922</ele>
        <time>2022-08-06T15:15:40.000Z</time>
      </trkpt>
      <trkpt lat="45.85066" lon="4.70811">
        <ele>248.09196</ele>
        <time>2022-08-06T15:15:47.000Z</time>
      </trkpt>
      <trkpt lat="45.85068" lon="4.70811">
        <ele>248.13736</ele>
        <time>2022-08-06T15:15:49.000Z</time>
      </trkpt>
      <trkpt lat="45.85067" lon="4.70809">
        <ele>248.21231</ele>
        <time>2022-08-06T15:15:55.000Z</time>
      </trkpt>
      <trkpt lat="45.85065" lon="4.70808">
        <ele>248.41782</ele>
        <time>2022-08-06T15:15:59.000Z</time>
      </trkpt>
      <trkpt lat="45.85062" lon="4.70808">
        <ele>248.68167</ele>
        <time>2022-08-06T15:16:01.000Z</time>
      </trkpt>
      <trkpt lat="45.8506" lon="4.70808">
        <ele>248.86325</ele>
        <time>2022-08-06T15:16:02.000Z</time>
      </trkpt>
      <trkpt lat="45.85058" lon="4.70808">
        <ele>248.97685</ele>
        <time>2022-08-06T15:16:03.000Z</time>
      </trkpt>
      <trkpt lat="45.85055" lon="4.70807">
        <ele>249.0502</ele>
        <time>2022-08-06T15:16:04.000Z</time>
      </trkpt>
      <trkpt lat="45.85054" lon="4.70806">
        <ele>249.00671</ele>
        <time>2022-08-06T15:16:06.000Z</time>
      </trkpt>
      <trkpt lat="45.85051" lon="4.70806">
        <ele>248.97421</ele>
        <time>2022-08-06T15:16:08.000Z</time>
      </trkpt>
      <trkpt lat="45.85049" lon="4.70804">
        <ele>248.90063</ele>
        <time>2022-08-06T15:16:10.000Z</time>
      </trkpt>
      <trkpt lat="45.85045" lon="4.70802">
        <ele>249.11597</ele>
        <time>2022-08-06T15:16:12.000Z</time>
      </trkpt>
      <trkpt lat="45.85043" lon="4.70801">
        <ele>249.5284</ele>
        <time>2022-08-06T15:16:13.000Z</time>
      </trkpt>
      <trkpt lat="45.85042" lon="4.708">
        <ele>249.93271</ele>
        <time>2022-08-06T15:16:14.000Z</time>
      </trkpt>
      <trkpt lat="45.85039" lon="4.70799">
        <ele>250.38638</ele>
        <time>2022-08-06T15:16:16.000Z</time>
      </trkpt>
      <trkpt lat="45.85037" lon="4.70798">
        <ele>250.7648</ele>
        <time>2022-08-06T15:16:18.000Z</time>
      </trkpt>
      <trkpt lat="45.85035" lon="4.70796">
        <ele>251.01413</ele>
        <time>2022-08-06T15:16:20.000Z</time>
      </trkpt>
      <trkpt lat="45.85032" lon="4.70796">
        <ele>250.97954</ele>
        <time>2022-08-06T15:16:22.000Z</time>
      </trkpt>
      <trkpt lat="45.8503" lon="4.70795">
        <ele>250.99332</ele>
        <time>2022-08-06T15:16:23.000Z</time>
      </trkpt>
      <trkpt lat="45.85028" lon="4.70794">
        <ele>251.16061</ele>
        <time>2022-08-06T15:16:25.000Z</time>
      </trkpt>
      <trkpt lat="45.85026" lon="4.70794">
        <ele>251.2793</ele>
        <time>2022-08-06T15:16:27.000Z</time>
      </trkpt>
      <trkpt lat="45.85023" lon="4.70794">
        <ele>251.41487</ele>
        <time>2022-08-06T15:16:29.000Z</time>
      </trkpt>
      <trkpt lat="45.8502" lon="4.70793">
        <ele>251.48288</ele>
        <time>2022-08-06T15:16:31.000Z</time>
      </trkpt>
      <trkpt lat="45.85018" lon="4.70791">
        <ele>251.61487</ele>
        <time>2022-08-06T15:16:33.000Z</time>
      </trkpt>
      <trkpt lat="45.85016" lon="4.7079">
        <ele>251.66428</ele>
        <time>2022-08-06T15:16:34.000Z</time>
      </trkpt>
      <trkpt lat="45.85014" lon="4.7079">
        <ele>251.77068</ele>
        <time>2022-08-06T15:16:35.000Z</time>
      </trkpt>
      <trkpt lat="45.85011" lon="4.7079">
        <ele>251.81479</ele>
        <time>2022-08-06T15:16:37.000Z</time>
      </trkpt>
      <trkpt lat="45.85009" lon="4.70791">
        <ele>251.76004</ele>
        <time>2022-08-06T15:16:39.000Z</time>
      </trkpt>
      <trkpt lat="45.85005" lon="4.70791">
        <ele>251.83562</ele>
        <time>2022-08-06T15:16:41.000Z</time>
      </trkpt>
      <trkpt lat="45.85003" lon="4.7079">
        <ele>251.96333</ele>
        <time>2022-08-06T15:16:43.000Z</time>
      </trkpt>
      <trkpt lat="45.85001" lon="4.70787">
        <ele>252.14804</ele>
        <time>2022-08-06T15:16:46.000Z</time>
      </trkpt>
      <trkpt lat="45.84998" lon="4.70785">
        <ele>252.36055</ele>
        <time>2022-08-06T15:16:48.000Z</time>
      </trkpt>
      <trkpt lat="45.84996" lon="4.70784">
        <ele>252.54008</ele>
        <time>2022-08-06T15:16:50.000Z</time>
      </trkpt>
      <trkpt lat="45.84994" lon="4.70784">
        <ele>252.70845</ele>
        <time>2022-08-06T15:16:52.000Z</time>
      </trkpt>
      <trkpt lat="45.84991" lon="4.70786">
        <ele>252.88899</ele>
        <time>2022-08-06T15:16:54.000Z</time>
      </trkpt>
      <trkpt lat="45.84989" lon="4.70787">
        <ele>253.20988</ele>
        <time>2022-08-06T15:16:56.000Z</time>
      </trkpt>
      <trkpt lat="45.84987" lon="4.70785">
        <ele>253.50252</ele>
        <time>2022-08-06T15:16:59.000Z</time>
      </trkpt>
      <trkpt lat="45.84985" lon="4.70783">
        <ele>253.85628</ele>
        <time>2022-08-06T15:17:01.000Z</time>
      </trkpt>
      <trkpt lat="45.84983" lon="4.70783">
        <ele>254.11626</ele>
        <time>2022-08-06T15:17:03.000Z</time>
      </trkpt>
      <trkpt lat="45.8498" lon="4.70783">
        <ele>254.42354</ele>
        <time>2022-08-06T15:17:06.000Z</time>
      </trkpt>
      <trkpt lat="45.84978" lon="4.70783">
        <ele>254.83521</ele>
        <time>2022-08-06T15:17:07.000Z</time>
      </trkpt>
      <trkpt lat="45.84976" lon="4.70782">
        <ele>255.30489</ele>
        <time>2022-08-06T15:17:08.000Z</time>
      </trkpt>
      <trkpt lat="45.84973" lon="4.70781">
        <ele>255.77959</ele>
        <time>2022-08-06T15:17:10.000Z</time>
      </trkpt>
      <trkpt lat="45.8497" lon="4.7078">
        <ele>256.23007</ele>
        <time>2022-08-06T15:17:12.000Z</time>
      </trkpt>
      <trkpt lat="45.84967" lon="4.70781">
        <ele>256.66147</ele>
        <time>2022-08-06T15:17:14.000Z</time>
      </trkpt>
      <trkpt lat="45.84965" lon="4.70782">
        <ele>257.06482</ele>
        <time>2022-08-06T15:17:15.000Z</time>
      </trkpt>
      <trkpt lat="45.84963" lon="4.70783">
        <ele>257.50482</ele>
        <time>2022-08-06T15:17:16.000Z</time>
      </trkpt>
      <trkpt lat="45.84961" lon="4.70783">
        <ele>257.95111</ele>
        <time>2022-08-06T15:17:17.000Z</time>
      </trkpt>
      <trkpt lat="45.84958" lon="4.70782">
        <ele>258.46051</ele>
        <time>2022-08-06T15:17:19.000Z</time>
      </trkpt>
      <trkpt lat="45.84955" lon="4.70781">
        <ele>258.88351</ele>
        <time>2022-08-06T15:17:21.000Z</time>
      </trkpt>
      <trkpt lat="45.84953" lon="4.70781">
        <ele>259.17407</ele>
        <time>2022-08-06T15:17:22.000Z</time>
      </trkpt>
      <trkpt lat="45.84951" lon="4.70781">
        <ele>259.26181</ele>
        <time>2022-08-06T15:17:23.000Z</time>
      </trkpt>
      <trkpt lat="45.84949" lon="4.70781">
        <ele>259.42664</ele>
        <time>2022-08-06T15:17:25.000Z</time>
      </trkpt>
      <trkpt lat="45.84947" lon="4.7078">
        <ele>259.69434</ele>
        <time>2022-08-06T15:17:28.000Z</time>
      </trkpt>
      <trkpt lat="45.84946" lon="4.70777">
        <ele>260.00461</ele>
        <time>2022-08-06T15:17:32.000Z</time>
      </trkpt>
      <trkpt lat="45.84944" lon="4.70773">
        <ele>260.22275</ele>
        <time>2022-08-06T15:17:33.000Z</time>
      </trkpt>
      <trkpt lat="45.84943" lon="4.7077">
        <ele>260.4718</ele>
        <time>2022-08-06T15:17:34.000Z</time>
      </trkpt>
      <trkpt lat="45.8494" lon="4.70768">
        <ele>260.50854</ele>
        <time>2022-08-06T15:17:37.000Z</time>
      </trkpt>
      <trkpt lat="45.84938" lon="4.70765">
        <ele>260.5661</ele>
        <time>2022-08-06T15:17:39.000Z</time>
      </trkpt>
      <trkpt lat="45.84935" lon="4.70762">
        <ele>260.52237</ele>
        <time>2022-08-06T15:17:41.000Z</time>
      </trkpt>
      <trkpt lat="45.84933" lon="4.7076">
        <ele>260.49896</ele>
        <time>2022-08-06T15:17:42.000Z</time>
      </trkpt>
      <trkpt lat="45.8493" lon="4.70758">
        <ele>260.50461</ele>
        <time>2022-08-06T15:17:44.000Z</time>
      </trkpt>
      <trkpt lat="45.84927" lon="4.70758">
        <ele>260.47952</ele>
        <time>2022-08-06T15:17:46.000Z</time>
      </trkpt>
      <trkpt lat="45.84923" lon="4.70758">
        <ele>260.41339</ele>
        <time>2022-08-06T15:17:48.000Z</time>
      </trkpt>
      <trkpt lat="45.84921" lon="4.70758">
        <ele>260.47372</ele>
        <time>2022-08-06T15:17:50.000Z</time>
      </trkpt>
      <trkpt lat="45.84917" lon="4.70756">
        <ele>260.59546</ele>
        <time>2022-08-06T15:17:52.000Z</time>
      </trkpt>
      <trkpt lat="45.84914" lon="4.70755">
        <ele>260.78439</ele>
        <time>2022-08-06T15:17:54.000Z</time>
      </trkpt>
      <trkpt lat="45.84911" lon="4.70754">
        <ele>260.99847</ele>
        <time>2022-08-06T15:17:56.000Z</time>
      </trkpt>
      <trkpt lat="45.84909" lon="4.70754">
        <ele>261.11206</ele>
        <time>2022-08-06T15:17:57.000Z</time>
      </trkpt>
      <trkpt lat="45.84907" lon="4.70752">
        <ele>261.24249</ele>
        <time>2022-08-06T15:17:58.000Z</time>
      </trkpt>
      <trkpt lat="45.84904" lon="4.70751">
        <ele>261.58536</ele>
        <time>2022-08-06T15:18:00.000Z</time>
      </trkpt>
      <trkpt lat="45.84903" lon="4.7075">
        <ele>262.05545</ele>
        <time>2022-08-06T15:18:01.000Z</time>
      </trkpt>
      <trkpt lat="45.84901" lon="4.7075">
        <ele>262.47348</ele>
        <time>2022-08-06T15:18:02.000Z</time>
      </trkpt>
      <trkpt lat="45.84898" lon="4.70749">
        <ele>262.77948</ele>
        <time>2022-08-06T15:18:03.000Z</time>
      </trkpt>
      <trkpt lat="45.84896" lon="4.70749">
        <ele>263.02859</ele>
        <time>2022-08-06T15:18:04.000Z</time>
      </trkpt>
      <trkpt lat="45.84895" lon="4.70749">
        <ele>263.32263</ele>
        <time>2022-08-06T15:18:05.000Z</time>
      </trkpt>
      <trkpt lat="45.84892" lon="4.70749">
        <ele>263.4538</ele>
        <time>2022-08-06T15:18:06.000Z</time>
      </trkpt>
      <trkpt lat="45.84889" lon="4.70747">
        <ele>263.7417</ele>
        <time>2022-08-06T15:18:07.000Z</time>
      </trkpt>
      <trkpt lat="45.84886" lon="4.70745">
        <ele>264.10117</ele>
        <time>2022-08-06T15:18:08.000Z</time>
      </trkpt>
      <trkpt lat="45.84884" lon="4.70744">
        <ele>264.52679</ele>
        <time>2022-08-06T15:18:09.000Z</time>
      </trkpt>
      <trkpt lat="45.84882" lon="4.70743">
        <ele>265.07657</ele>
        <time>2022-08-06T15:18:10.000Z</time>
      </trkpt>
      <trkpt lat="45.8488" lon="4.70742">
        <ele>265.49976</ele>
        <time>2022-08-06T15:18:11.000Z</time>
      </trkpt>
      <trkpt lat="45.84877" lon="4.7074">
        <ele>265.89194</ele>
        <time>2022-08-06T15:18:12.000Z</time>
      </trkpt>
      <trkpt lat="45.84875" lon="4.70738">
        <ele>266.25476</ele>
        <time>2022-08-06T15:18:13.000Z</time>
      </trkpt>
      <trkpt lat="45.84873" lon="4.70735">
        <ele>266.45688</ele>
        <time>2022-08-06T15:18:14.000Z</time>
      </trkpt>
      <trkpt lat="45.84871" lon="4.70731">
        <ele>266.61102</ele>
        <time>2022-08-06T15:18:15.000Z</time>
      </trkpt>
      <trkpt lat="45.84868" lon="4.70728">
        <ele>266.73151</ele>
        <time>2022-08-06T15:18:16.000Z</time>
      </trkpt>
      <trkpt lat="45.84866" lon="4.70726">
        <ele>266.89633</ele>
        <time>2022-08-06T15:18:17.000Z</time>
      </trkpt>
      <trkpt lat="45.84863" lon="4.70723">
        <ele>267.03131</ele>
        <time>2022-08-06T15:18:18.000Z</time>
      </trkpt>
      <trkpt lat="45.84861" lon="4.70721">
        <ele>267.20929</ele>
        <time>2022-08-06T15:18:19.000Z</time>
      </trkpt>
      <trkpt lat="45.8486" lon="4.70719">
        <ele>267.22763</ele>
        <time>2022-08-06T15:18:20.000Z</time>
      </trkpt>
      <trkpt lat="45.84858" lon="4.70716">
        <ele>267.17062</ele>
        <time>2022-08-06T15:18:21.000Z</time>
      </trkpt>
      <trkpt lat="45.84856" lon="4.70713">
        <ele>267.14673</ele>
        <time>2022-08-06T15:18:22.000Z</time>
      </trkpt>
      <trkpt lat="45.84855" lon="4.70709">
        <ele>267.10394</ele>
        <time>2022-08-06T15:18:23.000Z</time>
      </trkpt>
      <trkpt lat="45.84853" lon="4.70705">
        <ele>267.0325</ele>
        <time>2022-08-06T15:18:24.000Z</time>
      </trkpt>
      <trkpt lat="45.84851" lon="4.70702">
        <ele>266.93903</ele>
        <time>2022-08-06T15:18:25.000Z</time>
      </trkpt>
      <trkpt lat="45.84849" lon="4.70698">
        <ele>267.07977</ele>
        <time>2022-08-06T15:18:26.000Z</time>
      </trkpt>
      <trkpt lat="45.84848" lon="4.70695">
        <ele>267.25134</ele>
        <time>2022-08-06T15:18:27.000Z</time>
      </trkpt>
      <trkpt lat="45.84846" lon="4.70692">
        <ele>267.4072</ele>
        <time>2022-08-06T15:18:28.000Z</time>
      </trkpt>
      <trkpt lat="45.84844" lon="4.70689">
        <ele>267.53314</ele>
        <time>2022-08-06T15:18:29.000Z</time>
      </trkpt>
      <trkpt lat="45.84842" lon="4.70686">
        <ele>267.56149</ele>
        <time>2022-08-06T15:18:30.000Z</time>
      </trkpt>
      <trkpt lat="45.8484" lon="4.70683">
        <ele>267.65674</ele>
        <time>2022-08-06T15:18:31.000Z</time>
      </trkpt>
      <trkpt lat="45.84838" lon="4.7068">
        <ele>267.8746</ele>
        <time>2022-08-06T15:18:32.000Z</time>
      </trkpt>
      <trkpt lat="45.84836" lon="4.70677">
        <ele>268.09866</ele>
        <time>2022-08-06T15:18:33.000Z</time>
      </trkpt>
      <trkpt lat="45.84835" lon="4.70675">
        <ele>268.35455</ele>
        <time>2022-08-06T15:18:34.000Z</time>
      </trkpt>
      <trkpt lat="45.84832" lon="4.7067">
        <ele>268.58392</ele>
        <time>2022-08-06T15:18:36.000Z</time>
      </trkpt>
      <trkpt lat="45.84831" lon="4.70668">
        <ele>268.85303</ele>
        <time>2022-08-06T15:18:37.000Z</time>
      </trkpt>
      <trkpt lat="45.8483" lon="4.70665">
        <ele>269.0545</ele>
        <time>2022-08-06T15:18:38.000Z</time>
      </trkpt>
      <trkpt lat="45.84829" lon="4.70661">
        <ele>269.25531</ele>
        <time>2022-08-06T15:18:39.000Z</time>
      </trkpt>
      <trkpt lat="45.84827" lon="4.70658">
        <ele>269.3967</ele>
        <time>2022-08-06T15:18:40.000Z</time>
      </trkpt>
      <trkpt lat="45.84825" lon="4.70655">
        <ele>269.49866</ele>
        <time>2022-08-06T15:18:41.000Z</time>
      </trkpt>
      <trkpt lat="45.84822" lon="4.70652">
        <ele>269.55762</ele>
        <time>2022-08-06T15:18:42.000Z</time>
      </trkpt>
      <trkpt lat="45.84819" lon="4.70649">
        <ele>269.56824</ele>
        <time>2022-08-06T15:18:43.000Z</time>
      </trkpt>
      <trkpt lat="45.84818" lon="4.70646">
        <ele>269.62799</ele>
        <time>2022-08-06T15:18:44.000Z</time>
      </trkpt>
      <trkpt lat="45.84816" lon="4.70642">
        <ele>269.67148</ele>
        <time>2022-08-06T15:18:45.000Z</time>
      </trkpt>
      <trkpt lat="45.84815" lon="4.70637">
        <ele>269.62338</ele>
        <time>2022-08-06T15:18:46.000Z</time>
      </trkpt>
      <trkpt lat="45.84813" lon="4.70634">
        <ele>269.55609</ele>
        <time>2022-08-06T15:18:47.000Z</time>
      </trkpt>
      <trkpt lat="45.84811" lon="4.70632">
        <ele>269.53644</ele>
        <time>2022-08-06T15:18:48.000Z</time>
      </trkpt>
      <trkpt lat="45.84809" lon="4.70629">
        <ele>269.49512</ele>
        <time>2022-08-06T15:18:49.000Z</time>
      </trkpt>
      <trkpt lat="45.84806" lon="4.70626">
        <ele>269.46005</ele>
        <time>2022-08-06T15:18:50.000Z</time>
      </trkpt>
      <trkpt lat="45.84803" lon="4.70623">
        <ele>269.48447</ele>
        <time>2022-08-06T15:18:51.000Z</time>
      </trkpt>
      <trkpt lat="45.84801" lon="4.7062">
        <ele>269.53702</ele>
        <time>2022-08-06T15:18:52.000Z</time>
      </trkpt>
      <trkpt lat="45.84799" lon="4.70617">
        <ele>269.51465</ele>
        <time>2022-08-06T15:18:53.000Z</time>
      </trkpt>
      <trkpt lat="45.84798" lon="4.70613">
        <ele>269.49878</ele>
        <time>2022-08-06T15:18:54.000Z</time>
      </trkpt>
      <trkpt lat="45.84796" lon="4.7061">
        <ele>269.51868</ele>
        <time>2022-08-06T15:18:55.000Z</time>
      </trkpt>
      <trkpt lat="45.84794" lon="4.70607">
        <ele>269.47784</ele>
        <time>2022-08-06T15:18:56.000Z</time>
      </trkpt>
      <trkpt lat="45.84792" lon="4.70604">
        <ele>269.45792</ele>
        <time>2022-08-06T15:18:57.000Z</time>
      </trkpt>
      <trkpt lat="45.8479" lon="4.70601">
        <ele>269.46735</ele>
        <time>2022-08-06T15:18:58.000Z</time>
      </trkpt>
      <trkpt lat="45.84789" lon="4.70598">
        <ele>269.54114</ele>
        <time>2022-08-06T15:18:59.000Z</time>
      </trkpt>
      <trkpt lat="45.84788" lon="4.70595">
        <ele>269.64719</ele>
        <time>2022-08-06T15:19:00.000Z</time>
      </trkpt>
      <trkpt lat="45.84786" lon="4.70592">
        <ele>269.83765</ele>
        <time>2022-08-06T15:19:01.000Z</time>
      </trkpt>
      <trkpt lat="45.84784" lon="4.70589">
        <ele>270.09869</ele>
        <time>2022-08-06T15:19:02.000Z</time>
      </trkpt>
      <trkpt lat="45.84783" lon="4.70587">
        <ele>270.33789</ele>
        <time>2022-08-06T15:19:03.000Z</time>
      </trkpt>
      <trkpt lat="45.84781" lon="4.70583">
        <ele>270.51978</ele>
        <time>2022-08-06T15:19:04.000Z</time>
      </trkpt>
      <trkpt lat="45.84779" lon="4.7058">
        <ele>270.7247</ele>
        <time>2022-08-06T15:19:05.000Z</time>
      </trkpt>
      <trkpt lat="45.84778" lon="4.70577">
        <ele>271.06158</ele>
        <time>2022-08-06T15:19:06.000Z</time>
      </trkpt>
      <trkpt lat="45.84776" lon="4.70573">
        <ele>271.38495</ele>
        <time>2022-08-06T15:19:07.000Z</time>
      </trkpt>
      <trkpt lat="45.84774" lon="4.70571">
        <ele>271.66571</ele>
        <time>2022-08-06T15:19:08.000Z</time>
      </trkpt>
      <trkpt lat="45.84772" lon="4.70568">
        <ele>271.96002</ele>
        <time>2022-08-06T15:19:09.000Z</time>
      </trkpt>
      <trkpt lat="45.8477" lon="4.70566">
        <ele>272.25519</ele>
        <time>2022-08-06T15:19:10.000Z</time>
      </trkpt>
      <trkpt lat="45.84767" lon="4.70564">
        <ele>272.45822</ele>
        <time>2022-08-06T15:19:11.000Z</time>
      </trkpt>
      <trkpt lat="45.84764" lon="4.70562">
        <ele>272.62653</ele>
        <time>2022-08-06T15:19:12.000Z</time>
      </trkpt>
      <trkpt lat="45.84761" lon="4.70559">
        <ele>272.74677</ele>
        <time>2022-08-06T15:19:13.000Z</time>
      </trkpt>
      <trkpt lat="45.84758" lon="4.70555">
        <ele>272.91498</ele>
        <time>2022-08-06T15:19:14.000Z</time>
      </trkpt>
      <trkpt lat="45.84755" lon="4.70552">
        <ele>272.95844</ele>
        <time>2022-08-06T15:19:15.000Z</time>
      </trkpt>
      <trkpt lat="45.84753" lon="4.70549">
        <ele>273.10098</ele>
        <time>2022-08-06T15:19:16.000Z</time>
      </trkpt>
      <trkpt lat="45.8475" lon="4.70546">
        <ele>273.26212</ele>
        <time>2022-08-06T15:19:17.000Z</time>
      </trkpt>
      <trkpt lat="45.84747" lon="4.70543">
        <ele>273.38501</ele>
        <time>2022-08-06T15:19:18.000Z</time>
      </trkpt>
      <trkpt lat="45.84745" lon="4.7054">
        <ele>273.45044</ele>
        <time>2022-08-06T15:19:19.000Z</time>
      </trkpt>
      <trkpt lat="45.84742" lon="4.70537">
        <ele>273.50583</ele>
        <time>2022-08-06T15:19:20.000Z</time>
      </trkpt>
      <trkpt lat="45.84741" lon="4.70534">
        <ele>273.48941</ele>
        <time>2022-08-06T15:19:21.000Z</time>
      </trkpt>
      <trkpt lat="45.84739" lon="4.70532">
        <ele>273.47833</ele>
        <time>2022-08-06T15:19:22.000Z</time>
      </trkpt>
      <trkpt lat="45.84737" lon="4.70528">
        <ele>273.46033</ele>
        <time>2022-08-06T15:19:23.000Z</time>
      </trkpt>
      <trkpt lat="45.84735" lon="4.70525">
        <ele>273.48187</ele>
        <time>2022-08-06T15:19:24.000Z</time>
      </trkpt>
      <trkpt lat="45.84733" lon="4.70523">
        <ele>273.41071</ele>
        <time>2022-08-06T15:19:25.000Z</time>
      </trkpt>
      <trkpt lat="45.84728" lon="4.7052">
        <ele>273.24521</ele>
        <time>2022-08-06T15:19:27.000Z</time>
      </trkpt>
      <trkpt lat="45.84725" lon="4.70517">
        <ele>273.11282</ele>
        <time>2022-08-06T15:19:28.000Z</time>
      </trkpt>
      <trkpt lat="45.84723" lon="4.70515">
        <ele>272.89066</ele>
        <time>2022-08-06T15:19:29.000Z</time>
      </trkpt>
      <trkpt lat="45.84721" lon="4.70513">
        <ele>272.65509</ele>
        <time>2022-08-06T15:19:30.000Z</time>
      </trkpt>
      <trkpt lat="45.84719" lon="4.70511">
        <ele>272.43314</ele>
        <time>2022-08-06T15:19:31.000Z</time>
      </trkpt>
      <trkpt lat="45.84717" lon="4.70508">
        <ele>272.2464</ele>
        <time>2022-08-06T15:19:32.000Z</time>
      </trkpt>
      <trkpt lat="45.84714" lon="4.70505">
        <ele>271.99585</ele>
        <time>2022-08-06T15:19:33.000Z</time>
      </trkpt>
      <trkpt lat="45.84713" lon="4.70502">
        <ele>271.78351</ele>
        <time>2022-08-06T15:19:34.000Z</time>
      </trkpt>
      <trkpt lat="45.84711" lon="4.70499">
        <ele>271.57184</ele>
        <time>2022-08-06T15:19:35.000Z</time>
      </trkpt>
      <trkpt lat="45.84708" lon="4.70497">
        <ele>271.49567</ele>
        <time>2022-08-06T15:19:36.000Z</time>
      </trkpt>
      <trkpt lat="45.84705" lon="4.70493">
        <ele>271.26416</ele>
        <time>2022-08-06T15:19:38.000Z</time>
      </trkpt>
      <trkpt lat="45.84703" lon="4.70491">
        <ele>270.92221</ele>
        <time>2022-08-06T15:19:39.000Z</time>
      </trkpt>
      <trkpt lat="45.84701" lon="4.7049">
        <ele>270.61697</ele>
        <time>2022-08-06T15:19:41.000Z</time>
      </trkpt>
      <trkpt lat="45.84703" lon="4.7049">
        <ele>270.43112</ele>
        <time>2022-08-06T15:19:50.000Z</time>
      </trkpt>
      <trkpt lat="45.84702" lon="4.70488">
        <ele>270.2056</ele>
        <time>2022-08-06T15:23:23.000Z</time>
      </trkpt>
      <trkpt lat="45.84704" lon="4.70487">
        <ele>269.9588</ele>
        <time>2022-08-06T15:24:37.000Z</time>
      </trkpt>
      <trkpt lat="45.84704" lon="4.70491">
        <ele>269.68213</ele>
        <time>2022-08-06T15:24:45.000Z</time>
      </trkpt>
      <trkpt lat="45.84702" lon="4.70489">
        <ele>269.49643</ele>
        <time>2022-08-06T15:25:41.000Z</time>
      </trkpt>
      <trkpt lat="45.84698" lon="4.70488">
        <ele>269.32446</ele>
        <time>2022-08-06T15:25:43.000Z</time>
      </trkpt>
      <trkpt lat="45.84695" lon="4.70486">
        <ele>269.21738</ele>
        <time>2022-08-06T15:25:45.000Z</time>
      </trkpt>
      <trkpt lat="45.84692" lon="4.70485">
        <ele>269.14609</ele>
        <time>2022-08-06T15:25:46.000Z</time>
      </trkpt>
      <trkpt lat="45.84689" lon="4.70484">
        <ele>269.18198</ele>
        <time>2022-08-06T15:25:47.000Z</time>
      </trkpt>
      <trkpt lat="45.84686" lon="4.70483">
        <ele>269.16867</ele>
        <time>2022-08-06T15:25:48.000Z</time>
      </trkpt>
      <trkpt lat="45.84684" lon="4.70483">
        <ele>269.21042</ele>
        <time>2022-08-06T15:25:49.000Z</time>
      </trkpt>
      <trkpt lat="45.84681" lon="4.70483">
        <ele>269.29321</ele>
        <time>2022-08-06T15:25:50.000Z</time>
      </trkpt>
      <trkpt lat="45.84679" lon="4.70483">
        <ele>269.37878</ele>
        <time>2022-08-06T15:25:51.000Z</time>
      </trkpt>
      <trkpt lat="45.84676" lon="4.70483">
        <ele>269.4729</ele>
        <time>2022-08-06T15:25:53.000Z</time>
      </trkpt>
      <trkpt lat="45.84672" lon="4.70482">
        <ele>269.56512</ele>
        <time>2022-08-06T15:25:55.000Z</time>
      </trkpt>
      <trkpt lat="45.8467" lon="4.70481">
        <ele>269.69708</ele>
        <time>2022-08-06T15:25:56.000Z</time>
      </trkpt>
      <trkpt lat="45.84667" lon="4.7048">
        <ele>269.81296</ele>
        <time>2022-08-06T15:25:57.000Z</time>
      </trkpt>
      <trkpt lat="45.84665" lon="4.7048">
        <ele>270.06339</ele>
        <time>2022-08-06T15:25:58.000Z</time>
      </trkpt>
      <trkpt lat="45.84662" lon="4.70479">
        <ele>270.21402</ele>
        <time>2022-08-06T15:25:59.000Z</time>
      </trkpt>
      <trkpt lat="45.8466" lon="4.70479">
        <ele>270.35373</ele>
        <time>2022-08-06T15:26:00.000Z</time>
      </trkpt>
      <trkpt lat="45.84657" lon="4.70478">
        <ele>270.42279</ele>
        <time>2022-08-06T15:26:02.000Z</time>
      </trkpt>
      <trkpt lat="45.84654" lon="4.70479">
        <ele>270.44672</ele>
        <time>2022-08-06T15:26:04.000Z</time>
      </trkpt>
      <trkpt lat="45.84652" lon="4.70481">
        <ele>270.61902</ele>
        <time>2022-08-06T15:26:06.000Z</time>
      </trkpt>
      <trkpt lat="45.8465" lon="4.70481">
        <ele>270.81039</ele>
        <time>2022-08-06T15:26:09.000Z</time>
      </trkpt>
      <trkpt lat="45.84648" lon="4.7048">
        <ele>270.96747</ele>
        <time>2022-08-06T15:26:15.000Z</time>
      </trkpt>
      <trkpt lat="45.84649" lon="4.70477">
        <ele>271.34055</ele>
        <time>2022-08-06T15:26:28.000Z</time>
      </trkpt>
      <trkpt lat="45.84647" lon="4.70476">
        <ele>271.70404</ele>
        <time>2022-08-06T15:27:04.000Z</time>
      </trkpt>
      <trkpt lat="45.84649" lon="4.70477">
        <ele>271.87677</ele>
        <time>2022-08-06T15:27:09.000Z</time>
      </trkpt>
      <trkpt lat="45.84648" lon="4.70475">
        <ele>271.76489</ele>
        <time>2022-08-06T15:28:09.000Z</time>
      </trkpt>
      <trkpt lat="45.84647" lon="4.70476">
        <ele>271.83575</ele>
        <time>2022-08-06T15:29:24.000Z</time>
      </trkpt>
      <trkpt lat="45.84647" lon="4.70473">
        <ele>271.91757</ele>
        <time>2022-08-06T15:29:29.000Z</time>
      </trkpt>
      <trkpt lat="45.84649" lon="4.70471">
        <ele>271.89655</ele>
        <time>2022-08-06T15:29:33.000Z</time>
      </trkpt>
      <trkpt lat="45.8465" lon="4.70464">
        <ele>271.79092</ele>
        <time>2022-08-06T15:29:35.000Z</time>
      </trkpt>
      <trkpt lat="45.8465" lon="4.70456">
        <ele>271.80801</ele>
        <time>2022-08-06T15:29:36.000Z</time>
      </trkpt>
      <trkpt lat="45.84651" lon="4.70448">
        <ele>271.99203</ele>
        <time>2022-08-06T15:29:37.000Z</time>
      </trkpt>
      <trkpt lat="45.84653" lon="4.70427">
        <ele>272.06696</ele>
        <time>2022-08-06T15:29:38.000Z</time>
      </trkpt>
      <trkpt lat="45.84657" lon="4.70416">
        <ele>272.12299</ele>
        <time>2022-08-06T15:29:39.000Z</time>
      </trkpt>
      <trkpt lat="45.84657" lon="4.70408">
        <ele>272.21127</ele>
        <time>2022-08-06T15:29:40.000Z</time>
      </trkpt>
      <trkpt lat="45.84661" lon="4.70401">
        <ele>272.36615</ele>
        <time>2022-08-06T15:29:41.000Z</time>
      </trkpt>
      <trkpt lat="45.84663" lon="4.70398">
        <ele>272.43106</ele>
        <time>2022-08-06T15:29:43.000Z</time>
      </trkpt>
      <trkpt lat="45.84665" lon="4.70394">
        <ele>272.362</ele>
        <time>2022-08-06T15:29:44.000Z</time>
      </trkpt>
      <trkpt lat="45.84669" lon="4.7039">
        <ele>272.52863</ele>
        <time>2022-08-06T15:29:45.000Z</time>
      </trkpt>
      <trkpt lat="45.84669" lon="4.70386">
        <ele>272.74359</ele>
        <time>2022-08-06T15:29:47.000Z</time>
      </trkpt>
      <trkpt lat="45.8467" lon="4.70382">
        <ele>273.12408</ele>
        <time>2022-08-06T15:29:49.000Z</time>
      </trkpt>
      <trkpt lat="45.84672" lon="4.70378">
        <ele>273.41452</ele>
        <time>2022-08-06T15:29:50.000Z</time>
      </trkpt>
      <trkpt lat="45.84674" lon="4.70372">
        <ele>273.42947</ele>
        <time>2022-08-06T15:29:51.000Z</time>
      </trkpt>
      <trkpt lat="45.84676" lon="4.70369">
        <ele>273.48236</ele>
        <time>2022-08-06T15:29:52.000Z</time>
      </trkpt>
      <trkpt lat="45.84678" lon="4.70367">
        <ele>273.7872</ele>
        <time>2022-08-06T15:29:53.000Z</time>
      </trkpt>
      <trkpt lat="45.84679" lon="4.70365">
        <ele>274.24084</ele>
        <time>2022-08-06T15:29:54.000Z</time>
      </trkpt>
      <trkpt lat="45.84685" lon="4.70352">
        <ele>274.5303</ele>
        <time>2022-08-06T15:30:00.000Z</time>
      </trkpt>
      <trkpt lat="45.84686" lon="4.70349">
        <ele>274.78177</ele>
        <time>2022-08-06T15:30:01.000Z</time>
      </trkpt>
      <trkpt lat="45.84688" lon="4.70348">
        <ele>274.96225</ele>
        <time>2022-08-06T15:30:02.000Z</time>
      </trkpt>
      <trkpt lat="45.8469" lon="4.70348">
        <ele>275.16125</ele>
        <time>2022-08-06T15:30:03.000Z</time>
      </trkpt>
      <trkpt lat="45.84693" lon="4.70346">
        <ele>275.23969</ele>
        <time>2022-08-06T15:30:04.000Z</time>
      </trkpt>
      <trkpt lat="45.84695" lon="4.70345">
        <ele>275.13922</ele>
        <time>2022-08-06T15:30:06.000Z</time>
      </trkpt>
      <trkpt lat="45.84694" lon="4.70347">
        <ele>275.1463</ele>
        <time>2022-08-06T15:30:09.000Z</time>
      </trkpt>
      <trkpt lat="45.84693" lon="4.7035">
        <ele>275.18063</ele>
        <time>2022-08-06T15:30:17.000Z</time>
      </trkpt>
      <trkpt lat="45.84692" lon="4.70354">
        <ele>275.04956</ele>
        <time>2022-08-06T15:30:51.000Z</time>
      </trkpt>
      <trkpt lat="45.8469" lon="4.70358">
        <ele>274.90494</ele>
        <time>2022-08-06T15:30:52.000Z</time>
      </trkpt>
      <trkpt lat="45.84688" lon="4.70362">
        <ele>274.79254</ele>
        <time>2022-08-06T15:30:53.000Z</time>
      </trkpt>
      <trkpt lat="45.84686" lon="4.70365">
        <ele>274.78055</ele>
        <time>2022-08-06T15:30:54.000Z</time>
      </trkpt>
      <trkpt lat="45.84683" lon="4.70368">
        <ele>274.58032</ele>
        <time>2022-08-06T15:30:55.000Z</time>
      </trkpt>
      <trkpt lat="45.84681" lon="4.7037">
        <ele>274.29837</ele>
        <time>2022-08-06T15:30:56.000Z</time>
      </trkpt>
      <trkpt lat="45.84678" lon="4.7037">
        <ele>273.79871</ele>
        <time>2022-08-06T15:30:57.000Z</time>
      </trkpt>
      <trkpt lat="45.84677" lon="4.70369">
        <ele>273.36835</ele>
        <time>2022-08-06T15:30:58.000Z</time>
      </trkpt>
      <trkpt lat="45.84674" lon="4.70368">
        <ele>273.01703</ele>
        <time>2022-08-06T15:30:59.000Z</time>
      </trkpt>
      <trkpt lat="45.84672" lon="4.70366">
        <ele>272.70398</ele>
        <time>2022-08-06T15:31:00.000Z</time>
      </trkpt>
      <trkpt lat="45.84669" lon="4.70365">
        <ele>272.35687</ele>
        <time>2022-08-06T15:31:01.000Z</time>
      </trkpt>
      <trkpt lat="45.84667" lon="4.70363">
        <ele>271.98743</ele>
        <time>2022-08-06T15:31:02.000Z</time>
      </trkpt>
      <trkpt lat="45.84665" lon="4.70361">
        <ele>271.67523</ele>
        <time>2022-08-06T15:31:03.000Z</time>
      </trkpt>
      <trkpt lat="45.84663" lon="4.70359">
        <ele>271.38193</ele>
        <time>2022-08-06T15:31:04.000Z</time>
      </trkpt>
      <trkpt lat="45.84661" lon="4.70357">
        <ele>271.22083</ele>
        <time>2022-08-06T15:31:05.000Z</time>
      </trkpt>
      <trkpt lat="45.84659" lon="4.70356">
        <ele>271.15118</ele>
        <time>2022-08-06T15:31:06.000Z</time>
      </trkpt>
      <trkpt lat="45.84657" lon="4.70354">
        <ele>271.09177</ele>
        <time>2022-08-06T15:31:07.000Z</time>
      </trkpt>
      <trkpt lat="45.84656" lon="4.70352">
        <ele>271.00626</ele>
        <time>2022-08-06T15:31:08.000Z</time>
      </trkpt>
      <trkpt lat="45.84654" lon="4.70349">
        <ele>270.90631</ele>
        <time>2022-08-06T15:31:09.000Z</time>
      </trkpt>
      <trkpt lat="45.84652" lon="4.70346">
        <ele>270.77539</ele>
        <time>2022-08-06T15:31:10.000Z</time>
      </trkpt>
      <trkpt lat="45.84651" lon="4.70344">
        <ele>270.7756</ele>
        <time>2022-08-06T15:31:11.000Z</time>
      </trkpt>
      <trkpt lat="45.84648" lon="4.70342">
        <ele>270.84149</ele>
        <time>2022-08-06T15:31:12.000Z</time>
      </trkpt>
      <trkpt lat="45.84646" lon="4.70341">
        <ele>270.96594</ele>
        <time>2022-08-06T15:31:13.000Z</time>
      </trkpt>
      <trkpt lat="45.84644" lon="4.7034">
        <ele>270.98093</ele>
        <time>2022-08-06T15:31:14.000Z</time>
      </trkpt>
      <trkpt lat="45.84642" lon="4.70338">
        <ele>270.97272</ele>
        <time>2022-08-06T15:31:15.000Z</time>
      </trkpt>
      <trkpt lat="45.8464" lon="4.70337">
        <ele>270.91034</ele>
        <time>2022-08-06T15:31:16.000Z</time>
      </trkpt>
      <trkpt lat="45.84638" lon="4.70335">
        <ele>270.91837</ele>
        <time>2022-08-06T15:31:17.000Z</time>
      </trkpt>
      <trkpt lat="45.84635" lon="4.70334">
        <ele>270.91257</ele>
        <time>2022-08-06T15:31:18.000Z</time>
      </trkpt>
      <trkpt lat="45.84633" lon="4.70332">
        <ele>270.83087</ele>
        <time>2022-08-06T15:31:19.000Z</time>
      </trkpt>
      <trkpt lat="45.84631" lon="4.7033">
        <ele>270.70993</ele>
        <time>2022-08-06T15:31:20.000Z</time>
      </trkpt>
      <trkpt lat="45.84629" lon="4.70328">
        <ele>270.55994</ele>
        <time>2022-08-06T15:31:21.000Z</time>
      </trkpt>
      <trkpt lat="45.84627" lon="4.70326">
        <ele>270.41751</ele>
        <time>2022-08-06T15:31:22.000Z</time>
      </trkpt>
      <trkpt lat="45.84626" lon="4.70324">
        <ele>270.32678</ele>
        <time>2022-08-06T15:31:23.000Z</time>
      </trkpt>
      <trkpt lat="45.84624" lon="4.70322">
        <ele>270.20782</ele>
        <time>2022-08-06T15:31:24.000Z</time>
      </trkpt>
      <trkpt lat="45.84622" lon="4.70321">
        <ele>270.09296</ele>
        <time>2022-08-06T15:31:25.000Z</time>
      </trkpt>
      <trkpt lat="45.8462" lon="4.70319">
        <ele>269.91339</ele>
        <time>2022-08-06T15:31:26.000Z</time>
      </trkpt>
      <trkpt lat="45.84618" lon="4.70318">
        <ele>269.75726</ele>
        <time>2022-08-06T15:31:27.000Z</time>
      </trkpt>
      <trkpt lat="45.84615" lon="4.70315">
        <ele>269.65115</ele>
        <time>2022-08-06T15:31:28.000Z</time>
      </trkpt>
      <trkpt lat="45.84614" lon="4.70313">
        <ele>269.51123</ele>
        <time>2022-08-06T15:31:29.000Z</time>
      </trkpt>
      <trkpt lat="45.84612" lon="4.7031">
        <ele>269.38129</ele>
        <time>2022-08-06T15:31:30.000Z</time>
      </trkpt>
      <trkpt lat="45.8461" lon="4.70308">
        <ele>269.25827</ele>
        <time>2022-08-06T15:31:31.000Z</time>
      </trkpt>
      <trkpt lat="45.84608" lon="4.70306">
        <ele>269.14093</ele>
        <time>2022-08-06T15:31:32.000Z</time>
      </trkpt>
      <trkpt lat="45.84607" lon="4.70304">
        <ele>268.95703</ele>
        <time>2022-08-06T15:31:33.000Z</time>
      </trkpt>
      <trkpt lat="45.84605" lon="4.70302">
        <ele>268.87622</ele>
        <time>2022-08-06T15:31:34.000Z</time>
      </trkpt>
      <trkpt lat="45.84603" lon="4.70299">
        <ele>268.88297</ele>
        <time>2022-08-06T15:31:35.000Z</time>
      </trkpt>
      <trkpt lat="45.84601" lon="4.70296">
        <ele>268.90125</ele>
        <time>2022-08-06T15:31:36.000Z</time>
      </trkpt>
      <trkpt lat="45.84599" lon="4.70293">
        <ele>268.9259</ele>
        <time>2022-08-06T15:31:37.000Z</time>
      </trkpt>
      <trkpt lat="45.84596" lon="4.70289">
        <ele>269.01508</ele>
        <time>2022-08-06T15:31:38.000Z</time>
      </trkpt>
      <trkpt lat="45.84594" lon="4.70286">
        <ele>269.12054</ele>
        <time>2022-08-06T15:31:39.000Z</time>
      </trkpt>
      <trkpt lat="45.84592" lon="4.70283">
        <ele>269.22104</ele>
        <time>2022-08-06T15:31:40.000Z</time>
      </trkpt>
      <trkpt lat="45.8459" lon="4.7028">
        <ele>269.2832</ele>
        <time>2022-08-06T15:31:41.000Z</time>
      </trkpt>
      <trkpt lat="45.84588" lon="4.70277">
        <ele>269.39279</ele>
        <time>2022-08-06T15:31:42.000Z</time>
      </trkpt>
      <trkpt lat="45.84585" lon="4.70274">
        <ele>269.55206</ele>
        <time>2022-08-06T15:31:43.000Z</time>
      </trkpt>
      <trkpt lat="45.84583" lon="4.70272">
        <ele>269.68878</ele>
        <time>2022-08-06T15:31:44.000Z</time>
      </trkpt>
      <trkpt lat="45.84581" lon="4.7027">
        <ele>269.80597</ele>
        <time>2022-08-06T15:31:45.000Z</time>
      </trkpt>
      <trkpt lat="45.84579" lon="4.70268">
        <ele>269.94199</ele>
        <time>2022-08-06T15:31:47.000Z</time>
      </trkpt>
      <trkpt lat="45.84578" lon="4.70266">
        <ele>270.10297</ele>
        <time>2022-08-06T15:31:49.000Z</time>
      </trkpt>
      <trkpt lat="45.84576" lon="4.70264">
        <ele>270.26019</ele>
        <time>2022-08-06T15:31:50.000Z</time>
      </trkpt>
      <trkpt lat="45.84575" lon="4.7026">
        <ele>270.43277</ele>
        <time>2022-08-06T15:31:52.000Z</time>
      </trkpt>
      <trkpt lat="45.84573" lon="4.70258">
        <ele>270.62161</ele>
        <time>2022-08-06T15:31:54.000Z</time>
      </trkpt>
      <trkpt lat="45.84571" lon="4.70256">
        <ele>270.82816</ele>
        <time>2022-08-06T15:32:23.000Z</time>
      </trkpt>
      <trkpt lat="45.84571" lon="4.70252">
        <ele>270.89612</ele>
        <time>2022-08-06T15:32:25.000Z</time>
      </trkpt>
      <trkpt lat="45.84571" lon="4.70247">
        <ele>271.09866</ele>
        <time>2022-08-06T15:32:27.000Z</time>
      </trkpt>
      <trkpt lat="45.84573" lon="4.70243">
        <ele>271.30356</ele>
        <time>2022-08-06T15:32:29.000Z</time>
      </trkpt>
      <trkpt lat="45.84575" lon="4.70241">
        <ele>271.42789</ele>
        <time>2022-08-06T15:32:31.000Z</time>
      </trkpt>
      <trkpt lat="45.84577" lon="4.70239">
        <ele>271.65631</ele>
        <time>2022-08-06T15:32:49.000Z</time>
      </trkpt>
      <trkpt lat="45.84578" lon="4.70237">
        <ele>271.86469</ele>
        <time>2022-08-06T15:32:50.000Z</time>
      </trkpt>
      <trkpt lat="45.84579" lon="4.70235">
        <ele>271.98627</ele>
        <time>2022-08-06T15:32:51.000Z</time>
      </trkpt>
      <trkpt lat="45.8458" lon="4.70232">
        <ele>272.1778</ele>
        <time>2022-08-06T15:32:52.000Z</time>
      </trkpt>
      <trkpt lat="45.84582" lon="4.70229">
        <ele>272.3772</ele>
        <time>2022-08-06T15:32:53.000Z</time>
      </trkpt>
      <trkpt lat="45.84583" lon="4.70227">
        <ele>272.63062</ele>
        <time>2022-08-06T15:32:54.000Z</time>
      </trkpt>
      <trkpt lat="45.84584" lon="4.70224">
        <ele>272.78879</ele>
        <time>2022-08-06T15:32:55.000Z</time>
      </trkpt>
      <trkpt lat="45.84585" lon="4.70222">
        <ele>272.86435</ele>
        <time>2022-08-06T15:32:56.000Z</time>
      </trkpt>
      <trkpt lat="45.84587" lon="4.7022">
        <ele>272.95407</ele>
        <time>2022-08-06T15:32:57.000Z</time>
      </trkpt>
      <trkpt lat="45.84588" lon="4.70218">
        <ele>273.03851</ele>
        <time>2022-08-06T15:32:58.000Z</time>
      </trkpt>
      <trkpt lat="45.8459" lon="4.70217">
        <ele>273.17017</ele>
        <time>2022-08-06T15:32:59.000Z</time>
      </trkpt>
      <trkpt lat="45.84592" lon="4.70215">
        <ele>273.29099</ele>
        <time>2022-08-06T15:33:00.000Z</time>
      </trkpt>
      <trkpt lat="45.84594" lon="4.70213">
        <ele>273.4223</ele>
        <time>2022-08-06T15:33:01.000Z</time>
      </trkpt>
      <trkpt lat="45.84595" lon="4.70211">
        <ele>273.51825</ele>
        <time>2022-08-06T15:33:02.000Z</time>
      </trkpt>
      <trkpt lat="45.84597" lon="4.70208">
        <ele>273.59027</ele>
        <time>2022-08-06T15:33:03.000Z</time>
      </trkpt>
      <trkpt lat="45.84598" lon="4.70206">
        <ele>273.68576</ele>
        <time>2022-08-06T15:33:04.000Z</time>
      </trkpt>
      <trkpt lat="45.84599" lon="4.70203">
        <ele>273.9512</ele>
        <time>2022-08-06T15:33:05.000Z</time>
      </trkpt>
      <trkpt lat="45.84601" lon="4.70201">
        <ele>274.13379</ele>
        <time>2022-08-06T15:33:06.000Z</time>
      </trkpt>
      <trkpt lat="45.84602" lon="4.70198">
        <ele>274.25885</ele>
        <time>2022-08-06T15:33:07.000Z</time>
      </trkpt>
      <trkpt lat="45.84603" lon="4.70195">
        <ele>274.42801</ele>
        <time>2022-08-06T15:33:08.000Z</time>
      </trkpt>
      <trkpt lat="45.84605" lon="4.70192">
        <ele>274.46808</ele>
        <time>2022-08-06T15:33:09.000Z</time>
      </trkpt>
      <trkpt lat="45.84607" lon="4.7019">
        <ele>274.46048</ele>
        <time>2022-08-06T15:33:10.000Z</time>
      </trkpt>
      <trkpt lat="45.84609" lon="4.70187">
        <ele>274.45282</ele>
        <time>2022-08-06T15:33:11.000Z</time>
      </trkpt>
      <trkpt lat="45.8461" lon="4.70184">
        <ele>274.30798</ele>
        <time>2022-08-06T15:33:12.000Z</time>
      </trkpt>
      <trkpt lat="45.84612" lon="4.7018">
        <ele>274.1167</ele>
        <time>2022-08-06T15:33:13.000Z</time>
      </trkpt>
      <trkpt lat="45.84613" lon="4.70177">
        <ele>273.86093</ele>
        <time>2022-08-06T15:33:14.000Z</time>
      </trkpt>
      <trkpt lat="45.84615" lon="4.70175">
        <ele>273.62732</ele>
        <time>2022-08-06T15:33:15.000Z</time>
      </trkpt>
      <trkpt lat="45.84617" lon="4.70172">
        <ele>273.37927</ele>
        <time>2022-08-06T15:33:16.000Z</time>
      </trkpt>
      <trkpt lat="45.84619" lon="4.70169">
        <ele>273.11298</ele>
        <time>2022-08-06T15:33:17.000Z</time>
      </trkpt>
      <trkpt lat="45.84621" lon="4.70167">
        <ele>272.83493</ele>
        <time>2022-08-06T15:33:18.000Z</time>
      </trkpt>
      <trkpt lat="45.84623" lon="4.70164">
        <ele>272.51459</ele>
        <time>2022-08-06T15:33:19.000Z</time>
      </trkpt>
      <trkpt lat="45.84624" lon="4.70162">
        <ele>272.11774</ele>
        <time>2022-08-06T15:33:20.000Z</time>
      </trkpt>
      <trkpt lat="45.84623" lon="4.70158">
        <ele>271.72922</ele>
        <time>2022-08-06T15:34:08.000Z</time>
      </trkpt>
      <trkpt lat="45.84624" lon="4.70156">
        <ele>271.35028</ele>
        <time>2022-08-06T15:34:09.000Z</time>
      </trkpt>
      <trkpt lat="45.84626" lon="4.70154">
        <ele>270.9646</ele>
        <time>2022-08-06T15:34:10.000Z</time>
      </trkpt>
      <trkpt lat="45.84627" lon="4.70152">
        <ele>270.48853</ele>
        <time>2022-08-06T15:34:11.000Z</time>
      </trkpt>
      <trkpt lat="45.84628" lon="4.7015">
        <ele>269.9534</ele>
        <time>2022-08-06T15:34:13.000Z</time>
      </trkpt>
      <trkpt lat="45.84631" lon="4.70147">
        <ele>269.33347</ele>
        <time>2022-08-06T15:34:15.000Z</time>
      </trkpt>
      <trkpt lat="45.84633" lon="4.70146">
        <ele>268.76382</ele>
        <time>2022-08-06T15:34:16.000Z</time>
      </trkpt>
      <trkpt lat="45.84635" lon="4.70145">
        <ele>268.20544</ele>
        <time>2022-08-06T15:34:17.000Z</time>
      </trkpt>
      <trkpt lat="45.84636" lon="4.70144">
        <ele>267.65933</ele>
        <time>2022-08-06T15:34:18.000Z</time>
      </trkpt>
      <trkpt lat="45.84639" lon="4.70142">
        <ele>267.09525</ele>
        <time>2022-08-06T15:34:20.000Z</time>
      </trkpt>
      <trkpt lat="45.8464" lon="4.70138">
        <ele>266.52362</ele>
        <time>2022-08-06T15:34:23.000Z</time>
      </trkpt>
      <trkpt lat="45.84642" lon="4.70136">
        <ele>266.1647</ele>
        <time>2022-08-06T15:34:26.000Z</time>
      </trkpt>
      <trkpt lat="45.84644" lon="4.70134">
        <ele>265.90555</ele>
        <time>2022-08-06T15:34:29.000Z</time>
      </trkpt>
      <trkpt lat="45.84645" lon="4.70132">
        <ele>265.74136</ele>
        <time>2022-08-06T15:34:37.000Z</time>
      </trkpt>
      <trkpt lat="45.84646" lon="4.70126">
        <ele>265.66122</ele>
        <time>2022-08-06T15:34:57.000Z</time>
      </trkpt>
      <trkpt lat="45.84647" lon="4.70122">
        <ele>265.65826</ele>
        <time>2022-08-06T15:34:58.000Z</time>
      </trkpt>
      <trkpt lat="45.84649" lon="4.70118">
        <ele>265.73697</ele>
        <time>2022-08-06T15:34:59.000Z</time>
      </trkpt>
      <trkpt lat="45.84653" lon="4.70112">
        <ele>265.72064</ele>
        <time>2022-08-06T15:35:00.000Z</time>
      </trkpt>
      <trkpt lat="45.84665" lon="4.70101">
        <ele>265.73996</ele>
        <time>2022-08-06T15:35:01.000Z</time>
      </trkpt>
      <trkpt lat="45.84671" lon="4.70096">
        <ele>265.69907</ele>
        <time>2022-08-06T15:35:02.000Z</time>
      </trkpt>
      <trkpt lat="45.84678" lon="4.70092">
        <ele>265.50009</ele>
        <time>2022-08-06T15:35:03.000Z</time>
      </trkpt>
      <trkpt lat="45.84684" lon="4.70086">
        <ele>265.32758</ele>
        <time>2022-08-06T15:35:04.000Z</time>
      </trkpt>
      <trkpt lat="45.84689" lon="4.70083">
        <ele>265.17639</ele>
        <time>2022-08-06T15:35:05.000Z</time>
      </trkpt>
      <trkpt lat="45.84693" lon="4.7008">
        <ele>265.05048</ele>
        <time>2022-08-06T15:35:06.000Z</time>
      </trkpt>
      <trkpt lat="45.84696" lon="4.70079">
        <ele>264.94489</ele>
        <time>2022-08-06T15:35:07.000Z</time>
      </trkpt>
      <trkpt lat="45.847" lon="4.70076">
        <ele>264.87836</ele>
        <time>2022-08-06T15:35:08.000Z</time>
      </trkpt>
      <trkpt lat="45.84704" lon="4.70073">
        <ele>264.82578</ele>
        <time>2022-08-06T15:35:09.000Z</time>
      </trkpt>
      <trkpt lat="45.84706" lon="4.70062">
        <ele>264.85638</ele>
        <time>2022-08-06T15:35:10.000Z</time>
      </trkpt>
      <trkpt lat="45.84708" lon="4.70055">
        <ele>264.96552</ele>
        <time>2022-08-06T15:35:11.000Z</time>
      </trkpt>
      <trkpt lat="45.8471" lon="4.70049">
        <ele>265.18536</ele>
        <time>2022-08-06T15:35:12.000Z</time>
      </trkpt>
      <trkpt lat="45.84711" lon="4.70044">
        <ele>265.43268</ele>
        <time>2022-08-06T15:35:13.000Z</time>
      </trkpt>
      <trkpt lat="45.84714" lon="4.70039">
        <ele>265.5892</ele>
        <time>2022-08-06T15:35:14.000Z</time>
      </trkpt>
      <trkpt lat="45.84718" lon="4.70036">
        <ele>265.71283</ele>
        <time>2022-08-06T15:35:15.000Z</time>
      </trkpt>
      <trkpt lat="45.84721" lon="4.70034">
        <ele>265.82956</ele>
        <time>2022-08-06T15:35:16.000Z</time>
      </trkpt>
      <trkpt lat="45.84725" lon="4.70031">
        <ele>265.91388</ele>
        <time>2022-08-06T15:35:17.000Z</time>
      </trkpt>
      <trkpt lat="45.8473" lon="4.7003">
        <ele>265.9425</ele>
        <time>2022-08-06T15:35:18.000Z</time>
      </trkpt>
      <trkpt lat="45.84734" lon="4.70028">
        <ele>265.88425</ele>
        <time>2022-08-06T15:35:19.000Z</time>
      </trkpt>
      <trkpt lat="45.84738" lon="4.70027">
        <ele>265.8399</ele>
        <time>2022-08-06T15:35:20.000Z</time>
      </trkpt>
      <trkpt lat="45.84742" lon="4.70024">
        <ele>265.70914</ele>
        <time>2022-08-06T15:35:21.000Z</time>
      </trkpt>
      <trkpt lat="45.84745" lon="4.70022">
        <ele>265.65442</ele>
        <time>2022-08-06T15:35:22.000Z</time>
      </trkpt>
      <trkpt lat="45.84748" lon="4.7002">
        <ele>265.84003</ele>
        <time>2022-08-06T15:35:23.000Z</time>
      </trkpt>
      <trkpt lat="45.84751" lon="4.70018">
        <ele>266.03882</ele>
        <time>2022-08-06T15:35:24.000Z</time>
      </trkpt>
      <trkpt lat="45.84754" lon="4.70016">
        <ele>266.23868</ele>
        <time>2022-08-06T15:35:25.000Z</time>
      </trkpt>
      <trkpt lat="45.84756" lon="4.70015">
        <ele>266.47971</ele>
        <time>2022-08-06T15:35:26.000Z</time>
      </trkpt>
      <trkpt lat="45.84759" lon="4.70014">
        <ele>266.70779</ele>
        <time>2022-08-06T15:35:27.000Z</time>
      </trkpt>
      <trkpt lat="45.84762" lon="4.70014">
        <ele>266.9913</ele>
        <time>2022-08-06T15:35:28.000Z</time>
      </trkpt>
      <trkpt lat="45.84765" lon="4.70014">
        <ele>267.29428</ele>
        <time>2022-08-06T15:35:29.000Z</time>
      </trkpt>
      <trkpt lat="45.84767" lon="4.70014">
        <ele>267.54883</ele>
        <time>2022-08-06T15:35:30.000Z</time>
      </trkpt>
      <trkpt lat="45.84769" lon="4.70013">
        <ele>267.76462</ele>
        <time>2022-08-06T15:35:31.000Z</time>
      </trkpt>
      <trkpt lat="45.84772" lon="4.70011">
        <ele>267.96344</ele>
        <time>2022-08-06T15:35:32.000Z</time>
      </trkpt>
      <trkpt lat="45.84776" lon="4.70008">
        <ele>268.17316</ele>
        <time>2022-08-06T15:35:33.000Z</time>
      </trkpt>
      <trkpt lat="45.8478" lon="4.70006">
        <ele>268.2605</ele>
        <time>2022-08-06T15:35:34.000Z</time>
      </trkpt>
      <trkpt lat="45.84785" lon="4.70004">
        <ele>268.29761</ele>
        <time>2022-08-06T15:35:35.000Z</time>
      </trkpt>
      <trkpt lat="45.84789" lon="4.70003">
        <ele>268.39389</ele>
        <time>2022-08-06T15:35:36.000Z</time>
      </trkpt>
      <trkpt lat="45.84793" lon="4.70002">
        <ele>268.42938</ele>
        <time>2022-08-06T15:35:37.000Z</time>
      </trkpt>
      <trkpt lat="45.84798" lon="4.70001">
        <ele>268.38727</ele>
        <time>2022-08-06T15:35:38.000Z</time>
      </trkpt>
      <trkpt lat="45.84808" lon="4.70001">
        <ele>268.27325</ele>
        <time>2022-08-06T15:35:43.000Z</time>
      </trkpt>
      <trkpt lat="45.8481" lon="4.70002">
        <ele>268.22882</ele>
        <time>2022-08-06T15:35:44.000Z</time>
      </trkpt>
      <trkpt lat="45.84812" lon="4.70002">
        <ele>268.19946</ele>
        <time>2022-08-06T15:35:45.000Z</time>
      </trkpt>
      <trkpt lat="45.84815" lon="4.70001">
        <ele>268.15134</ele>
        <time>2022-08-06T15:35:46.000Z</time>
      </trkpt>
      <trkpt lat="45.84817" lon="4.69999">
        <ele>267.96469</ele>
        <time>2022-08-06T15:35:47.000Z</time>
      </trkpt>
      <trkpt lat="45.8482" lon="4.69997">
        <ele>267.71338</ele>
        <time>2022-08-06T15:35:48.000Z</time>
      </trkpt>
      <trkpt lat="45.84822" lon="4.69993">
        <ele>267.45276</ele>
        <time>2022-08-06T15:35:49.000Z</time>
      </trkpt>
      <trkpt lat="45.84825" lon="4.69988">
        <ele>267.28979</ele>
        <time>2022-08-06T15:35:50.000Z</time>
      </trkpt>
      <trkpt lat="45.84827" lon="4.69983">
        <ele>267.22693</ele>
        <time>2022-08-06T15:35:51.000Z</time>
      </trkpt>
      <trkpt lat="45.84829" lon="4.69979">
        <ele>267.13074</ele>
        <time>2022-08-06T15:35:52.000Z</time>
      </trkpt>
      <trkpt lat="45.84832" lon="4.69975">
        <ele>266.99045</ele>
        <time>2022-08-06T15:35:53.000Z</time>
      </trkpt>
      <trkpt lat="45.84835" lon="4.69971">
        <ele>266.79721</ele>
        <time>2022-08-06T15:35:54.000Z</time>
      </trkpt>
      <trkpt lat="45.84838" lon="4.69969">
        <ele>266.54761</ele>
        <time>2022-08-06T15:35:55.000Z</time>
      </trkpt>
      <trkpt lat="45.84842" lon="4.69967">
        <ele>266.25598</ele>
        <time>2022-08-06T15:35:56.000Z</time>
      </trkpt>
      <trkpt lat="45.84846" lon="4.69964">
        <ele>265.90875</ele>
        <time>2022-08-06T15:35:57.000Z</time>
      </trkpt>
      <trkpt lat="45.84857" lon="4.6996">
        <ele>265.35825</ele>
        <time>2022-08-06T15:35:59.000Z</time>
      </trkpt>
      <trkpt lat="45.84861" lon="4.69958">
        <ele>264.91339</ele>
        <time>2022-08-06T15:36:00.000Z</time>
      </trkpt>
      <trkpt lat="45.84865" lon="4.69957">
        <ele>264.4101</ele>
        <time>2022-08-06T15:36:01.000Z</time>
      </trkpt>
      <trkpt lat="45.84868" lon="4.69955">
        <ele>264.02789</ele>
        <time>2022-08-06T15:36:02.000Z</time>
      </trkpt>
      <trkpt lat="45.84873" lon="4.69952">
        <ele>263.67029</ele>
        <time>2022-08-06T15:36:03.000Z</time>
      </trkpt>
      <trkpt lat="45.84886" lon="4.6995">
        <ele>263.2446</ele>
        <time>2022-08-06T15:36:04.000Z</time>
      </trkpt>
      <trkpt lat="45.84894" lon="4.69945">
        <ele>262.8562</ele>
        <time>2022-08-06T15:36:05.000Z</time>
      </trkpt>
      <trkpt lat="45.84901" lon="4.69947">
        <ele>262.42987</ele>
        <time>2022-08-06T15:36:06.000Z</time>
      </trkpt>
      <trkpt lat="45.84907" lon="4.69946">
        <ele>262.03909</ele>
        <time>2022-08-06T15:36:07.000Z</time>
      </trkpt>
      <trkpt lat="45.84915" lon="4.69944">
        <ele>261.66284</ele>
        <time>2022-08-06T15:36:08.000Z</time>
      </trkpt>
      <trkpt lat="45.84923" lon="4.69939">
        <ele>261.32227</ele>
        <time>2022-08-06T15:36:09.000Z</time>
      </trkpt>
      <trkpt lat="45.84929" lon="4.69933">
        <ele>261.09793</ele>
        <time>2022-08-06T15:36:10.000Z</time>
      </trkpt>
      <trkpt lat="45.84931" lon="4.69931">
        <ele>260.81723</ele>
        <time>2022-08-06T15:36:12.000Z</time>
      </trkpt>
      <trkpt lat="45.84936" lon="4.69931">
        <ele>260.42569</ele>
        <time>2022-08-06T15:36:13.000Z</time>
      </trkpt>
      <trkpt lat="45.84941" lon="4.69928">
        <ele>260.00217</ele>
        <time>2022-08-06T15:36:14.000Z</time>
      </trkpt>
      <trkpt lat="45.84943" lon="4.69928">
        <ele>259.59119</ele>
        <time>2022-08-06T15:36:15.000Z</time>
      </trkpt>
      <trkpt lat="45.84947" lon="4.69925">
        <ele>259.2041</ele>
        <time>2022-08-06T15:36:16.000Z</time>
      </trkpt>
      <trkpt lat="45.84954" lon="4.69927">
        <ele>258.82245</ele>
        <time>2022-08-06T15:36:18.000Z</time>
      </trkpt>
      <trkpt lat="45.84958" lon="4.69924">
        <ele>258.42429</ele>
        <time>2022-08-06T15:36:19.000Z</time>
      </trkpt>
      <trkpt lat="45.84961" lon="4.69922">
        <ele>257.99228</ele>
        <time>2022-08-06T15:36:20.000Z</time>
      </trkpt>
      <trkpt lat="45.84964" lon="4.69919">
        <ele>257.81409</ele>
        <time>2022-08-06T15:36:21.000Z</time>
      </trkpt>
      <trkpt lat="45.84967" lon="4.69916">
        <ele>257.44843</ele>
        <time>2022-08-06T15:36:22.000Z</time>
      </trkpt>
      <trkpt lat="45.8497" lon="4.69913">
        <ele>256.96701</ele>
        <time>2022-08-06T15:36:23.000Z</time>
      </trkpt>
      <trkpt lat="45.84973" lon="4.69911">
        <ele>256.33612</ele>
        <time>2022-08-06T15:36:24.000Z</time>
      </trkpt>
      <trkpt lat="45.84978" lon="4.69907">
        <ele>255.80106</ele>
        <time>2022-08-06T15:36:25.000Z</time>
      </trkpt>
      <trkpt lat="45.84983" lon="4.69904">
        <ele>255.51294</ele>
        <time>2022-08-06T15:36:26.000Z</time>
      </trkpt>
      <trkpt lat="45.84997" lon="4.69905">
        <ele>255.12871</ele>
        <time>2022-08-06T15:36:27.000Z</time>
      </trkpt>
      <trkpt lat="45.85001" lon="4.69904">
        <ele>254.77341</ele>
        <time>2022-08-06T15:36:28.000Z</time>
      </trkpt>
      <trkpt lat="45.85003" lon="4.69904">
        <ele>254.43454</ele>
        <time>2022-08-06T15:36:29.000Z</time>
      </trkpt>
      <trkpt lat="45.8501" lon="4.69901">
        <ele>254.01315</ele>
        <time>2022-08-06T15:36:30.000Z</time>
      </trkpt>
      <trkpt lat="45.85014" lon="4.69899">
        <ele>253.53374</ele>
        <time>2022-08-06T15:36:31.000Z</time>
      </trkpt>
      <trkpt lat="45.85016" lon="4.69897">
        <ele>252.86862</ele>
        <time>2022-08-06T15:36:32.000Z</time>
      </trkpt>
      <trkpt lat="45.85021" lon="4.69894">
        <ele>252.07681</ele>
        <time>2022-08-06T15:36:33.000Z</time>
      </trkpt>
      <trkpt lat="45.85025" lon="4.69895">
        <ele>251.2944</ele>
        <time>2022-08-06T15:36:34.000Z</time>
      </trkpt>
      <trkpt lat="45.85027" lon="4.69896">
        <ele>250.51462</ele>
        <time>2022-08-06T15:36:35.000Z</time>
      </trkpt>
      <trkpt lat="45.8503" lon="4.69892">
        <ele>249.70638</ele>
        <time>2022-08-06T15:36:36.000Z</time>
      </trkpt>
      <trkpt lat="45.85033" lon="4.69892">
        <ele>248.8448</ele>
        <time>2022-08-06T15:36:37.000Z</time>
      </trkpt>
      <trkpt lat="45.85037" lon="4.69891">
        <ele>247.94487</ele>
        <time>2022-08-06T15:36:39.000Z</time>
      </trkpt>
      <trkpt lat="45.8504" lon="4.69891">
        <ele>246.96867</ele>
        <time>2022-08-06T15:36:41.000Z</time>
      </trkpt>
      <trkpt lat="45.85042" lon="4.69891">
        <ele>246.02676</ele>
        <time>2022-08-06T15:36:42.000Z</time>
      </trkpt>
      <trkpt lat="45.85044" lon="4.69892">
        <ele>245.03482</ele>
        <time>2022-08-06T15:36:43.000Z</time>
      </trkpt>
      <trkpt lat="45.85047" lon="4.69893">
        <ele>244.2041</ele>
        <time>2022-08-06T15:36:44.000Z</time>
      </trkpt>
      <trkpt lat="45.85049" lon="4.69893">
        <ele>243.46614</ele>
        <time>2022-08-06T15:36:45.000Z</time>
      </trkpt>
      <trkpt lat="45.85053" lon="4.69893">
        <ele>242.81026</ele>
        <time>2022-08-06T15:36:47.000Z</time>
      </trkpt>
      <trkpt lat="45.85055" lon="4.69893">
        <ele>242.13977</ele>
        <time>2022-08-06T15:36:48.000Z</time>
      </trkpt>
      <trkpt lat="45.85058" lon="4.69893">
        <ele>241.41873</ele>
        <time>2022-08-06T15:36:49.000Z</time>
      </trkpt>
      <trkpt lat="45.85062" lon="4.69892">
        <ele>240.78519</ele>
        <time>2022-08-06T15:36:50.000Z</time>
      </trkpt>
      <trkpt lat="45.85064" lon="4.69891">
        <ele>240.15479</ele>
        <time>2022-08-06T15:36:51.000Z</time>
      </trkpt>
      <trkpt lat="45.85067" lon="4.6989">
        <ele>239.49997</ele>
        <time>2022-08-06T15:36:52.000Z</time>
      </trkpt>
      <trkpt lat="45.8507" lon="4.69887">
        <ele>238.94009</ele>
        <time>2022-08-06T15:36:53.000Z</time>
      </trkpt>
      <trkpt lat="45.85072" lon="4.69885">
        <ele>238.45219</ele>
        <time>2022-08-06T15:36:54.000Z</time>
      </trkpt>
      <trkpt lat="45.85075" lon="4.69883">
        <ele>238.01901</ele>
        <time>2022-08-06T15:36:55.000Z</time>
      </trkpt>
      <trkpt lat="45.85078" lon="4.6988">
        <ele>237.62207</ele>
        <time>2022-08-06T15:36:56.000Z</time>
      </trkpt>
      <trkpt lat="45.85082" lon="4.69877">
        <ele>237.20377</ele>
        <time>2022-08-06T15:36:57.000Z</time>
      </trkpt>
      <trkpt lat="45.85086" lon="4.69874">
        <ele>236.85831</ele>
        <time>2022-08-06T15:36:58.000Z</time>
      </trkpt>
      <trkpt lat="45.85089" lon="4.69871">
        <ele>236.52466</ele>
        <time>2022-08-06T15:36:59.000Z</time>
      </trkpt>
      <trkpt lat="45.85092" lon="4.69868">
        <ele>236.29416</ele>
        <time>2022-08-06T15:37:00.000Z</time>
      </trkpt>
      <trkpt lat="45.85094" lon="4.69865">
        <ele>236.0831</ele>
        <time>2022-08-06T15:37:01.000Z</time>
      </trkpt>
      <trkpt lat="45.85097" lon="4.69862">
        <ele>236.00638</ele>
        <time>2022-08-06T15:37:02.000Z</time>
      </trkpt>
      <trkpt lat="45.85101" lon="4.69859">
        <ele>235.8886</ele>
        <time>2022-08-06T15:37:03.000Z</time>
      </trkpt>
      <trkpt lat="45.85104" lon="4.69856">
        <ele>235.84451</ele>
        <time>2022-08-06T15:37:04.000Z</time>
      </trkpt>
      <trkpt lat="45.85107" lon="4.69852">
        <ele>235.75381</ele>
        <time>2022-08-06T15:37:05.000Z</time>
      </trkpt>
      <trkpt lat="45.85111" lon="4.69847">
        <ele>235.65771</ele>
        <time>2022-08-06T15:37:06.000Z</time>
      </trkpt>
      <trkpt lat="45.85115" lon="4.69844">
        <ele>235.55908</ele>
        <time>2022-08-06T15:37:07.000Z</time>
      </trkpt>
      <trkpt lat="45.85119" lon="4.6984">
        <ele>235.42134</ele>
        <time>2022-08-06T15:37:08.000Z</time>
      </trkpt>
      <trkpt lat="45.85124" lon="4.69838">
        <ele>235.17944</ele>
        <time>2022-08-06T15:37:09.000Z</time>
      </trkpt>
      <trkpt lat="45.85129" lon="4.69837">
        <ele>234.83365</ele>
        <time>2022-08-06T15:37:10.000Z</time>
      </trkpt>
      <trkpt lat="45.85137" lon="4.69835">
        <ele>234.47122</ele>
        <time>2022-08-06T15:37:12.000Z</time>
      </trkpt>
      <trkpt lat="45.85139" lon="4.69834">
        <ele>234.12422</ele>
        <time>2022-08-06T15:37:13.000Z</time>
      </trkpt>
      <trkpt lat="45.8514" lon="4.69833">
        <ele>233.79729</ele>
        <time>2022-08-06T15:37:14.000Z</time>
      </trkpt>
      <trkpt lat="45.85141" lon="4.69831">
        <ele>233.45134</ele>
        <time>2022-08-06T15:37:15.000Z</time>
      </trkpt>
      <trkpt lat="45.85143" lon="4.69824">
        <ele>233.08565</ele>
        <time>2022-08-06T15:37:17.000Z</time>
      </trkpt>
      <trkpt lat="45.85143" lon="4.69821">
        <ele>232.79805</ele>
        <time>2022-08-06T15:37:18.000Z</time>
      </trkpt>
      <trkpt lat="45.85143" lon="4.69818">
        <ele>232.55891</ele>
        <time>2022-08-06T15:37:19.000Z</time>
      </trkpt>
      <trkpt lat="45.85143" lon="4.69814">
        <ele>232.34062</ele>
        <time>2022-08-06T15:37:20.000Z</time>
      </trkpt>
      <trkpt lat="45.85143" lon="4.69811">
        <ele>232.06425</ele>
        <time>2022-08-06T15:37:21.000Z</time>
      </trkpt>
      <trkpt lat="45.85141" lon="4.69808">
        <ele>231.72737</ele>
        <time>2022-08-06T15:37:22.000Z</time>
      </trkpt>
      <trkpt lat="45.85138" lon="4.69805">
        <ele>231.47217</ele>
        <time>2022-08-06T15:37:23.000Z</time>
      </trkpt>
      <trkpt lat="45.85135" lon="4.69801">
        <ele>231.36938</ele>
        <time>2022-08-06T15:37:24.000Z</time>
      </trkpt>
      <trkpt lat="45.85132" lon="4.69796">
        <ele>231.42265</ele>
        <time>2022-08-06T15:37:25.000Z</time>
      </trkpt>
      <trkpt lat="45.85129" lon="4.69791">
        <ele>231.45193</ele>
        <time>2022-08-06T15:37:26.000Z</time>
      </trkpt>
      <trkpt lat="45.85126" lon="4.69785">
        <ele>231.53377</ele>
        <time>2022-08-06T15:37:27.000Z</time>
      </trkpt>
      <trkpt lat="45.85124" lon="4.6978">
        <ele>231.68062</ele>
        <time>2022-08-06T15:37:28.000Z</time>
      </trkpt>
      <trkpt lat="45.85121" lon="4.69774">
        <ele>231.83176</ele>
        <time>2022-08-06T15:37:29.000Z</time>
      </trkpt>
      <trkpt lat="45.85119" lon="4.69769">
        <ele>232.02847</ele>
        <time>2022-08-06T15:37:30.000Z</time>
      </trkpt>
      <trkpt lat="45.8512" lon="4.69755">
        <ele>232.29207</ele>
        <time>2022-08-06T15:37:31.000Z</time>
      </trkpt>
      <trkpt lat="45.85121" lon="4.69743">
        <ele>232.57889</ele>
        <time>2022-08-06T15:37:32.000Z</time>
      </trkpt>
      <trkpt lat="45.85124" lon="4.69749">
        <ele>232.87093</ele>
        <time>2022-08-06T15:37:33.000Z</time>
      </trkpt>
      <trkpt lat="45.85124" lon="4.69744">
        <ele>233.2482</ele>
        <time>2022-08-06T15:37:34.000Z</time>
      </trkpt>
      <trkpt lat="45.85126" lon="4.69731">
        <ele>233.48303</ele>
        <time>2022-08-06T15:37:35.000Z</time>
      </trkpt>
      <trkpt lat="45.85124" lon="4.69731">
        <ele>233.67056</ele>
        <time>2022-08-06T15:37:36.000Z</time>
      </trkpt>
      <trkpt lat="45.85126" lon="4.69732">
        <ele>233.82993</ele>
        <time>2022-08-06T15:37:37.000Z</time>
      </trkpt>
      <trkpt lat="45.85128" lon="4.6973">
        <ele>233.85989</ele>
        <time>2022-08-06T15:37:39.000Z</time>
      </trkpt>
      <trkpt lat="45.85128" lon="4.69727">
        <ele>233.842</ele>
        <time>2022-08-06T15:37:40.000Z</time>
      </trkpt>
      <trkpt lat="45.8513" lon="4.6972">
        <ele>233.62459</ele>
        <time>2022-08-06T15:37:42.000Z</time>
      </trkpt>
      <trkpt lat="45.85132" lon="4.69718">
        <ele>233.36087</ele>
        <time>2022-08-06T15:37:44.000Z</time>
      </trkpt>
      <trkpt lat="45.85131" lon="4.69715">
        <ele>233.01128</ele>
        <time>2022-08-06T15:37:47.000Z</time>
      </trkpt>
      <trkpt lat="45.8513" lon="4.69712">
        <ele>232.54099</ele>
        <time>2022-08-06T15:37:49.000Z</time>
      </trkpt>
      <trkpt lat="45.8513" lon="4.6971">
        <ele>231.93774</ele>
        <time>2022-08-06T15:37:52.000Z</time>
      </trkpt>
      <trkpt lat="45.85129" lon="4.69707">
        <ele>231.15193</ele>
        <time>2022-08-06T15:37:58.000Z</time>
      </trkpt>
      <trkpt lat="45.85131" lon="4.6971">
        <ele>230.2341</ele>
        <time>2022-08-06T15:38:51.000Z</time>
      </trkpt>
      <trkpt lat="45.85132" lon="4.69703">
        <ele>229.26212</ele>
        <time>2022-08-06T15:39:05.000Z</time>
      </trkpt>
      <trkpt lat="45.85132" lon="4.69698">
        <ele>228.30411</ele>
        <time>2022-08-06T15:39:06.000Z</time>
      </trkpt>
      <trkpt lat="45.85131" lon="4.69693">
        <ele>227.42436</ele>
        <time>2022-08-06T15:39:07.000Z</time>
      </trkpt>
      <trkpt lat="45.85129" lon="4.69688">
        <ele>226.48543</ele>
        <time>2022-08-06T15:39:08.000Z</time>
      </trkpt>
      <trkpt lat="45.85128" lon="4.69684">
        <ele>225.52364</ele>
        <time>2022-08-06T15:39:09.000Z</time>
      </trkpt>
      <trkpt lat="45.85124" lon="4.69677">
        <ele>224.57727</ele>
        <time>2022-08-06T15:39:11.000Z</time>
      </trkpt>
      <trkpt lat="45.8512" lon="4.69673">
        <ele>223.71677</ele>
        <time>2022-08-06T15:39:13.000Z</time>
      </trkpt>
      <trkpt lat="45.85118" lon="4.69673">
        <ele>222.82051</ele>
        <time>2022-08-06T15:39:14.000Z</time>
      </trkpt>
      <trkpt lat="45.85115" lon="4.69673">
        <ele>221.94833</ele>
        <time>2022-08-06T15:39:15.000Z</time>
      </trkpt>
      <trkpt lat="45.85113" lon="4.69674">
        <ele>221.13034</ele>
        <time>2022-08-06T15:39:16.000Z</time>
      </trkpt>
      <trkpt lat="45.85111" lon="4.69675">
        <ele>220.38022</ele>
        <time>2022-08-06T15:39:17.000Z</time>
      </trkpt>
      <trkpt lat="45.85108" lon="4.69675">
        <ele>219.80777</ele>
        <time>2022-08-06T15:39:18.000Z</time>
      </trkpt>
      <trkpt lat="45.85106" lon="4.69675">
        <ele>219.33296</ele>
        <time>2022-08-06T15:39:19.000Z</time>
      </trkpt>
      <trkpt lat="45.85102" lon="4.69673">
        <ele>219.13864</ele>
        <time>2022-08-06T15:39:21.000Z</time>
      </trkpt>
      <trkpt lat="45.851" lon="4.69672">
        <ele>219.11728</ele>
        <time>2022-08-06T15:39:23.000Z</time>
      </trkpt>
      <trkpt lat="45.85098" lon="4.69669">
        <ele>219.05757</ele>
        <time>2022-08-06T15:39:25.000Z</time>
      </trkpt>
      <trkpt lat="45.85096" lon="4.69667">
        <ele>219.09419</ele>
        <time>2022-08-06T15:39:26.000Z</time>
      </trkpt>
      <trkpt lat="45.85095" lon="4.69664">
        <ele>219.15775</ele>
        <time>2022-08-06T15:39:27.000Z</time>
      </trkpt>
      <trkpt lat="45.85091" lon="4.69662">
        <ele>219.44437</ele>
        <time>2022-08-06T15:39:29.000Z</time>
      </trkpt>
      <trkpt lat="45.85089" lon="4.69661">
        <ele>219.79366</ele>
        <time>2022-08-06T15:39:30.000Z</time>
      </trkpt>
      <trkpt lat="45.85086" lon="4.69661">
        <ele>220.0686</ele>
        <time>2022-08-06T15:39:31.000Z</time>
      </trkpt>
      <trkpt lat="45.85084" lon="4.69661">
        <ele>220.18816</ele>
        <time>2022-08-06T15:39:32.000Z</time>
      </trkpt>
      <trkpt lat="45.85079" lon="4.6966">
        <ele>220.25613</ele>
        <time>2022-08-06T15:39:34.000Z</time>
      </trkpt>
      <trkpt lat="45.85076" lon="4.69661">
        <ele>220.33932</ele>
        <time>2022-08-06T15:39:35.000Z</time>
      </trkpt>
      <trkpt lat="45.85073" lon="4.69661">
        <ele>220.53047</ele>
        <time>2022-08-06T15:39:36.000Z</time>
      </trkpt>
      <trkpt lat="45.8507" lon="4.69661">
        <ele>220.83163</ele>
        <time>2022-08-06T15:39:37.000Z</time>
      </trkpt>
      <trkpt lat="45.85067" lon="4.69661">
        <ele>221.04268</ele>
        <time>2022-08-06T15:39:38.000Z</time>
      </trkpt>
      <trkpt lat="45.85065" lon="4.69661">
        <ele>221.23779</ele>
        <time>2022-08-06T15:39:39.000Z</time>
      </trkpt>
      <trkpt lat="45.85062" lon="4.69661">
        <ele>221.60527</ele>
        <time>2022-08-06T15:39:40.000Z</time>
      </trkpt>
      <trkpt lat="45.85059" lon="4.6966">
        <ele>222.00005</ele>
        <time>2022-08-06T15:39:41.000Z</time>
      </trkpt>
      <trkpt lat="45.85056" lon="4.69659">
        <ele>222.4108</ele>
        <time>2022-08-06T15:39:42.000Z</time>
      </trkpt>
      <trkpt lat="45.85053" lon="4.69658">
        <ele>222.74678</ele>
        <time>2022-08-06T15:39:43.000Z</time>
      </trkpt>
      <trkpt lat="45.85051" lon="4.69658">
        <ele>223.04192</ele>
        <time>2022-08-06T15:39:44.000Z</time>
      </trkpt>
      <trkpt lat="45.85048" lon="4.69658">
        <ele>223.22383</ele>
        <time>2022-08-06T15:39:45.000Z</time>
      </trkpt>
      <trkpt lat="45.85045" lon="4.69657">
        <ele>223.40024</ele>
        <time>2022-08-06T15:39:46.000Z</time>
      </trkpt>
      <trkpt lat="45.85043" lon="4.69657">
        <ele>223.63937</ele>
        <time>2022-08-06T15:39:47.000Z</time>
      </trkpt>
      <trkpt lat="45.8504" lon="4.69655">
        <ele>223.88138</ele>
        <time>2022-08-06T15:39:49.000Z</time>
      </trkpt>
      <trkpt lat="45.85038" lon="4.69654">
        <ele>223.98087</ele>
        <time>2022-08-06T15:39:50.000Z</time>
      </trkpt>
      <trkpt lat="45.85036" lon="4.69652">
        <ele>223.95285</ele>
        <time>2022-08-06T15:39:51.000Z</time>
      </trkpt>
      <trkpt lat="45.85033" lon="4.6965">
        <ele>224.04922</ele>
        <time>2022-08-06T15:39:52.000Z</time>
      </trkpt>
      <trkpt lat="45.85031" lon="4.69649">
        <ele>224.2319</ele>
        <time>2022-08-06T15:39:53.000Z</time>
      </trkpt>
      <trkpt lat="45.85029" lon="4.69649">
        <ele>224.49973</ele>
        <time>2022-08-06T15:39:54.000Z</time>
      </trkpt>
      <trkpt lat="45.85027" lon="4.69649">
        <ele>224.77034</ele>
        <time>2022-08-06T15:39:55.000Z</time>
      </trkpt>
      <trkpt lat="45.85024" lon="4.69648">
        <ele>225.11661</ele>
        <time>2022-08-06T15:39:56.000Z</time>
      </trkpt>
      <trkpt lat="45.85022" lon="4.69648">
        <ele>225.32919</ele>
        <time>2022-08-06T15:39:57.000Z</time>
      </trkpt>
      <trkpt lat="45.85019" lon="4.69647">
        <ele>225.46945</ele>
        <time>2022-08-06T15:39:58.000Z</time>
      </trkpt>
      <trkpt lat="45.85017" lon="4.69647">
        <ele>225.66086</ele>
        <time>2022-08-06T15:39:59.000Z</time>
      </trkpt>
      <trkpt lat="45.85013" lon="4.69647">
        <ele>225.7867</ele>
        <time>2022-08-06T15:40:00.000Z</time>
      </trkpt>
      <trkpt lat="45.85009" lon="4.69647">
        <ele>225.88327</ele>
        <time>2022-08-06T15:40:01.000Z</time>
      </trkpt>
      <trkpt lat="45.85006" lon="4.69647">
        <ele>225.91988</ele>
        <time>2022-08-06T15:40:02.000Z</time>
      </trkpt>
      <trkpt lat="45.85004" lon="4.69647">
        <ele>225.88492</ele>
        <time>2022-08-06T15:40:03.000Z</time>
      </trkpt>
      <trkpt lat="45.85001" lon="4.69647">
        <ele>225.83301</ele>
        <time>2022-08-06T15:40:04.000Z</time>
      </trkpt>
      <trkpt lat="45.84999" lon="4.69647">
        <ele>225.74236</ele>
        <time>2022-08-06T15:40:05.000Z</time>
      </trkpt>
      <trkpt lat="45.84996" lon="4.69646">
        <ele>225.62845</ele>
        <time>2022-08-06T15:40:06.000Z</time>
      </trkpt>
      <trkpt lat="45.84994" lon="4.69646">
        <ele>225.50908</ele>
        <time>2022-08-06T15:40:07.000Z</time>
      </trkpt>
      <trkpt lat="45.84989" lon="4.69645">
        <ele>225.50638</ele>
        <time>2022-08-06T15:40:09.000Z</time>
      </trkpt>
      <trkpt lat="45.84986" lon="4.69645">
        <ele>225.50455</ele>
        <time>2022-08-06T15:40:10.000Z</time>
      </trkpt>
      <trkpt lat="45.84983" lon="4.69645">
        <ele>225.52376</ele>
        <time>2022-08-06T15:40:11.000Z</time>
      </trkpt>
      <trkpt lat="45.8498" lon="4.69644">
        <ele>225.53494</ele>
        <time>2022-08-06T15:40:12.000Z</time>
      </trkpt>
      <trkpt lat="45.84975" lon="4.69644">
        <ele>225.49004</ele>
        <time>2022-08-06T15:40:14.000Z</time>
      </trkpt>
      <trkpt lat="45.84973" lon="4.69644">
        <ele>225.45927</ele>
        <time>2022-08-06T15:40:15.000Z</time>
      </trkpt>
      <trkpt lat="45.8497" lon="4.69644">
        <ele>225.42725</ele>
        <time>2022-08-06T15:40:16.000Z</time>
      </trkpt>
      <trkpt lat="45.84967" lon="4.69644">
        <ele>225.32278</ele>
        <time>2022-08-06T15:40:17.000Z</time>
      </trkpt>
      <trkpt lat="45.84964" lon="4.69643">
        <ele>225.19548</ele>
        <time>2022-08-06T15:40:18.000Z</time>
      </trkpt>
      <trkpt lat="45.84962" lon="4.69641">
        <ele>225.04532</ele>
        <time>2022-08-06T15:40:19.000Z</time>
      </trkpt>
      <trkpt lat="45.8496" lon="4.6964">
        <ele>224.90628</ele>
        <time>2022-08-06T15:40:20.000Z</time>
      </trkpt>
      <trkpt lat="45.84957" lon="4.69639">
        <ele>224.83691</ele>
        <time>2022-08-06T15:40:21.000Z</time>
      </trkpt>
      <trkpt lat="45.84954" lon="4.69637">
        <ele>224.86519</ele>
        <time>2022-08-06T15:40:22.000Z</time>
      </trkpt>
      <trkpt lat="45.8495" lon="4.69635">
        <ele>224.82034</ele>
        <time>2022-08-06T15:40:23.000Z</time>
      </trkpt>
      <trkpt lat="45.84946" lon="4.69633">
        <ele>224.77927</ele>
        <time>2022-08-06T15:40:24.000Z</time>
      </trkpt>
      <trkpt lat="45.84943" lon="4.69631">
        <ele>224.83154</ele>
        <time>2022-08-06T15:40:25.000Z</time>
      </trkpt>
      <trkpt lat="45.84939" lon="4.69629">
        <ele>224.8311</ele>
        <time>2022-08-06T15:40:26.000Z</time>
      </trkpt>
      <trkpt lat="45.84937" lon="4.69627">
        <ele>224.79793</ele>
        <time>2022-08-06T15:40:27.000Z</time>
      </trkpt>
      <trkpt lat="45.84934" lon="4.69625">
        <ele>224.73433</ele>
        <time>2022-08-06T15:40:28.000Z</time>
      </trkpt>
      <trkpt lat="45.84932" lon="4.69623">
        <ele>224.63257</ele>
        <time>2022-08-06T15:40:29.000Z</time>
      </trkpt>
      <trkpt lat="45.84929" lon="4.69621">
        <ele>224.47726</ele>
        <time>2022-08-06T15:40:30.000Z</time>
      </trkpt>
      <trkpt lat="45.84926" lon="4.6962">
        <ele>224.31059</ele>
        <time>2022-08-06T15:40:31.000Z</time>
      </trkpt>
      <trkpt lat="45.84922" lon="4.69618">
        <ele>224.23491</ele>
        <time>2022-08-06T15:40:32.000Z</time>
      </trkpt>
      <trkpt lat="45.84919" lon="4.69615">
        <ele>224.15645</ele>
        <time>2022-08-06T15:40:33.000Z</time>
      </trkpt>
      <trkpt lat="45.84915" lon="4.69612">
        <ele>224.18555</ele>
        <time>2022-08-06T15:40:34.000Z</time>
      </trkpt>
      <trkpt lat="45.84912" lon="4.6961">
        <ele>224.23836</ele>
        <time>2022-08-06T15:40:35.000Z</time>
      </trkpt>
      <trkpt lat="45.84909" lon="4.69607">
        <ele>224.27054</ele>
        <time>2022-08-06T15:40:36.000Z</time>
      </trkpt>
      <trkpt lat="45.84907" lon="4.69606">
        <ele>224.35837</ele>
        <time>2022-08-06T15:40:37.000Z</time>
      </trkpt>
      <trkpt lat="45.84904" lon="4.69605">
        <ele>224.39563</ele>
        <time>2022-08-06T15:40:38.000Z</time>
      </trkpt>
      <trkpt lat="45.84902" lon="4.69604">
        <ele>224.52229</ele>
        <time>2022-08-06T15:40:39.000Z</time>
      </trkpt>
      <trkpt lat="45.849" lon="4.69603">
        <ele>224.65475</ele>
        <time>2022-08-06T15:40:40.000Z</time>
      </trkpt>
      <trkpt lat="45.84898" lon="4.69602">
        <ele>224.75528</ele>
        <time>2022-08-06T15:40:41.000Z</time>
      </trkpt>
      <trkpt lat="45.84896" lon="4.696">
        <ele>224.86661</ele>
        <time>2022-08-06T15:40:42.000Z</time>
      </trkpt>
      <trkpt lat="45.84894" lon="4.69599">
        <ele>225.02116</ele>
        <time>2022-08-06T15:40:43.000Z</time>
      </trkpt>
      <trkpt lat="45.8489" lon="4.69598">
        <ele>225.20102</ele>
        <time>2022-08-06T15:40:45.000Z</time>
      </trkpt>
      <trkpt lat="45.84887" lon="4.69597">
        <ele>225.37976</ele>
        <time>2022-08-06T15:40:46.000Z</time>
      </trkpt>
      <trkpt lat="45.84883" lon="4.69594">
        <ele>225.55986</ele>
        <time>2022-08-06T15:40:48.000Z</time>
      </trkpt>
      <trkpt lat="45.84881" lon="4.69592">
        <ele>225.93753</ele>
        <time>2022-08-06T15:40:50.000Z</time>
      </trkpt>
      <trkpt lat="45.84878" lon="4.6959">
        <ele>226.37541</ele>
        <time>2022-08-06T15:40:53.000Z</time>
      </trkpt>
      <trkpt lat="45.84875" lon="4.69587">
        <ele>226.86252</ele>
        <time>2022-08-06T15:40:56.000Z</time>
      </trkpt>
      <trkpt lat="45.84871" lon="4.69588">
        <ele>227.33537</ele>
        <time>2022-08-06T15:40:58.000Z</time>
      </trkpt>
      <trkpt lat="45.84869" lon="4.69589">
        <ele>227.80583</ele>
        <time>2022-08-06T15:40:59.000Z</time>
      </trkpt>
      <trkpt lat="45.84868" lon="4.69592">
        <ele>228.31616</ele>
        <time>2022-08-06T15:41:01.000Z</time>
      </trkpt>
      <trkpt lat="45.84865" lon="4.69592">
        <ele>228.91696</ele>
        <time>2022-08-06T15:41:03.000Z</time>
      </trkpt>
      <trkpt lat="45.84863" lon="4.69591">
        <ele>229.40665</ele>
        <time>2022-08-06T15:41:04.000Z</time>
      </trkpt>
      <trkpt lat="45.84861" lon="4.6959">
        <ele>229.79512</ele>
        <time>2022-08-06T15:41:05.000Z</time>
      </trkpt>
      <trkpt lat="45.84859" lon="4.6959">
        <ele>230.21074</ele>
        <time>2022-08-06T15:41:06.000Z</time>
      </trkpt>
      <trkpt lat="45.84855" lon="4.69589">
        <ele>230.61105</ele>
        <time>2022-08-06T15:41:08.000Z</time>
      </trkpt>
      <trkpt lat="45.84852" lon="4.69588">
        <ele>231.02812</ele>
        <time>2022-08-06T15:41:10.000Z</time>
      </trkpt>
      <trkpt lat="45.84848" lon="4.69588">
        <ele>231.46965</ele>
        <time>2022-08-06T15:41:12.000Z</time>
      </trkpt>
      <trkpt lat="45.84845" lon="4.69587">
        <ele>231.87463</ele>
        <time>2022-08-06T15:41:14.000Z</time>
      </trkpt>
      <trkpt lat="45.84842" lon="4.69585">
        <ele>232.28162</ele>
        <time>2022-08-06T15:41:16.000Z</time>
      </trkpt>
      <trkpt lat="45.8484" lon="4.69583">
        <ele>232.6366</ele>
        <time>2022-08-06T15:41:17.000Z</time>
      </trkpt>
      <trkpt lat="45.84839" lon="4.69581">
        <ele>233.05322</ele>
        <time>2022-08-06T15:41:18.000Z</time>
      </trkpt>
      <trkpt lat="45.84837" lon="4.69579">
        <ele>233.45593</ele>
        <time>2022-08-06T15:41:19.000Z</time>
      </trkpt>
      <trkpt lat="45.84835" lon="4.69578">
        <ele>233.80319</ele>
        <time>2022-08-06T15:41:20.000Z</time>
      </trkpt>
      <trkpt lat="45.84833" lon="4.69576">
        <ele>234.18555</ele>
        <time>2022-08-06T15:41:21.000Z</time>
      </trkpt>
      <trkpt lat="45.84831" lon="4.69575">
        <ele>234.45364</ele>
        <time>2022-08-06T15:41:22.000Z</time>
      </trkpt>
      <trkpt lat="45.8483" lon="4.69573">
        <ele>234.74088</ele>
        <time>2022-08-06T15:41:23.000Z</time>
      </trkpt>
      <trkpt lat="45.84827" lon="4.69571">
        <ele>235.01302</ele>
        <time>2022-08-06T15:41:24.000Z</time>
      </trkpt>
      <trkpt lat="45.84826" lon="4.69569">
        <ele>235.26212</ele>
        <time>2022-08-06T15:41:25.000Z</time>
      </trkpt>
      <trkpt lat="45.84823" lon="4.69566">
        <ele>235.54228</ele>
        <time>2022-08-06T15:41:27.000Z</time>
      </trkpt>
      <trkpt lat="45.8482" lon="4.69562">
        <ele>235.8029</ele>
        <time>2022-08-06T15:41:29.000Z</time>
      </trkpt>
      <trkpt lat="45.84819" lon="4.69561">
        <ele>236.00883</ele>
        <time>2022-08-06T15:41:30.000Z</time>
      </trkpt>
      <trkpt lat="45.84816" lon="4.6956">
        <ele>236.24992</ele>
        <time>2022-08-06T15:41:32.000Z</time>
      </trkpt>
      <trkpt lat="45.84812" lon="4.69557">
        <ele>236.51236</ele>
        <time>2022-08-06T15:41:34.000Z</time>
      </trkpt>
      <trkpt lat="45.8481" lon="4.69555">
        <ele>236.76921</ele>
        <time>2022-08-06T15:41:35.000Z</time>
      </trkpt>
      <trkpt lat="45.84808" lon="4.69553">
        <ele>237.0739</ele>
        <time>2022-08-06T15:41:36.000Z</time>
      </trkpt>
      <trkpt lat="45.84807" lon="4.69551">
        <ele>237.41507</ele>
        <time>2022-08-06T15:41:37.000Z</time>
      </trkpt>
      <trkpt lat="45.84804" lon="4.69549">
        <ele>237.81462</ele>
        <time>2022-08-06T15:41:39.000Z</time>
      </trkpt>
      <trkpt lat="45.84803" lon="4.69547">
        <ele>238.26196</ele>
        <time>2022-08-06T15:41:40.000Z</time>
      </trkpt>
      <trkpt lat="45.84801" lon="4.69545">
        <ele>238.67874</ele>
        <time>2022-08-06T15:41:41.000Z</time>
      </trkpt>
      <trkpt lat="45.848" lon="4.69543">
        <ele>239.04196</ele>
        <time>2022-08-06T15:41:42.000Z</time>
      </trkpt>
      <trkpt lat="45.84799" lon="4.6954">
        <ele>239.34685</ele>
        <time>2022-08-06T15:41:43.000Z</time>
      </trkpt>
      <trkpt lat="45.84797" lon="4.69536">
        <ele>239.77563</ele>
        <time>2022-08-06T15:41:45.000Z</time>
      </trkpt>
      <trkpt lat="45.84795" lon="4.69534">
        <ele>240.21237</ele>
        <time>2022-08-06T15:41:47.000Z</time>
      </trkpt>
      <trkpt lat="45.84793" lon="4.69532">
        <ele>240.69841</ele>
        <time>2022-08-06T15:41:49.000Z</time>
      </trkpt>
      <trkpt lat="45.8479" lon="4.69531">
        <ele>241.18201</ele>
        <time>2022-08-06T15:41:51.000Z</time>
      </trkpt>
      <trkpt lat="45.84789" lon="4.69531">
        <ele>241.59441</ele>
        <time>2022-08-06T15:41:52.000Z</time>
      </trkpt>
      <trkpt lat="45.84786" lon="4.69528">
        <ele>241.93465</ele>
        <time>2022-08-06T15:41:53.000Z</time>
      </trkpt>
      <trkpt lat="45.84784" lon="4.69525">
        <ele>242.28862</ele>
        <time>2022-08-06T15:41:54.000Z</time>
      </trkpt>
      <trkpt lat="45.84782" lon="4.69521">
        <ele>242.58359</ele>
        <time>2022-08-06T15:41:55.000Z</time>
      </trkpt>
      <trkpt lat="45.8478" lon="4.69517">
        <ele>242.78659</ele>
        <time>2022-08-06T15:41:56.000Z</time>
      </trkpt>
      <trkpt lat="45.84779" lon="4.69514">
        <ele>242.9537</ele>
        <time>2022-08-06T15:41:57.000Z</time>
      </trkpt>
      <trkpt lat="45.84777" lon="4.69511">
        <ele>243.14639</ele>
        <time>2022-08-06T15:41:58.000Z</time>
      </trkpt>
      <trkpt lat="45.84776" lon="4.69508">
        <ele>243.37996</ele>
        <time>2022-08-06T15:41:59.000Z</time>
      </trkpt>
      <trkpt lat="45.84775" lon="4.69506">
        <ele>243.60442</ele>
        <time>2022-08-06T15:42:00.000Z</time>
      </trkpt>
      <trkpt lat="45.84774" lon="4.69503">
        <ele>243.79648</ele>
        <time>2022-08-06T15:42:01.000Z</time>
      </trkpt>
      <trkpt lat="45.84773" lon="4.695">
        <ele>243.96286</ele>
        <time>2022-08-06T15:42:02.000Z</time>
      </trkpt>
      <trkpt lat="45.84772" lon="4.69497">
        <ele>244.03532</ele>
        <time>2022-08-06T15:42:04.000Z</time>
      </trkpt>
      <trkpt lat="45.84771" lon="4.69493">
        <ele>244.11581</ele>
        <time>2022-08-06T15:42:06.000Z</time>
      </trkpt>
      <trkpt lat="45.84769" lon="4.69492">
        <ele>243.97112</ele>
        <time>2022-08-06T15:42:08.000Z</time>
      </trkpt>
      <trkpt lat="45.84766" lon="4.69494">
        <ele>244.04886</ele>
        <time>2022-08-06T15:42:10.000Z</time>
      </trkpt>
      <trkpt lat="45.84763" lon="4.69495">
        <ele>244.14339</ele>
        <time>2022-08-06T15:42:12.000Z</time>
      </trkpt>
      <trkpt lat="45.84761" lon="4.69495">
        <ele>244.16777</ele>
        <time>2022-08-06T15:42:13.000Z</time>
      </trkpt>
      <trkpt lat="45.84758" lon="4.69493">
        <ele>244.2618</ele>
        <time>2022-08-06T15:42:15.000Z</time>
      </trkpt>
      <trkpt lat="45.84757" lon="4.6949">
        <ele>244.26884</ele>
        <time>2022-08-06T15:42:17.000Z</time>
      </trkpt>
      <trkpt lat="45.84756" lon="4.69487">
        <ele>244.31021</ele>
        <time>2022-08-06T15:42:19.000Z</time>
      </trkpt>
      <trkpt lat="45.84756" lon="4.69485">
        <ele>244.44341</ele>
        <time>2022-08-06T15:42:20.000Z</time>
      </trkpt>
      <trkpt lat="45.84755" lon="4.69482">
        <ele>244.63632</ele>
        <time>2022-08-06T15:42:21.000Z</time>
      </trkpt>
      <trkpt lat="45.84754" lon="4.69479">
        <ele>244.84612</ele>
        <time>2022-08-06T15:42:22.000Z</time>
      </trkpt>
      <trkpt lat="45.84752" lon="4.69477">
        <ele>245.02531</ele>
        <time>2022-08-06T15:42:23.000Z</time>
      </trkpt>
      <trkpt lat="45.8475" lon="4.69473">
        <ele>245.15256</ele>
        <time>2022-08-06T15:42:24.000Z</time>
      </trkpt>
      <trkpt lat="45.84749" lon="4.6947">
        <ele>245.28354</ele>
        <time>2022-08-06T15:42:25.000Z</time>
      </trkpt>
      <trkpt lat="45.84747" lon="4.69467">
        <ele>245.39973</ele>
        <time>2022-08-06T15:42:26.000Z</time>
      </trkpt>
      <trkpt lat="45.84745" lon="4.69465">
        <ele>245.53564</ele>
        <time>2022-08-06T15:42:27.000Z</time>
      </trkpt>
      <trkpt lat="45.84743" lon="4.69463">
        <ele>245.64774</ele>
        <time>2022-08-06T15:42:28.000Z</time>
      </trkpt>
      <trkpt lat="45.84742" lon="4.69461">
        <ele>245.70088</ele>
        <time>2022-08-06T15:42:29.000Z</time>
      </trkpt>
      <trkpt lat="45.8474" lon="4.69457">
        <ele>245.77563</ele>
        <time>2022-08-06T15:42:31.000Z</time>
      </trkpt>
      <trkpt lat="45.84739" lon="4.69454">
        <ele>245.83891</ele>
        <time>2022-08-06T15:42:32.000Z</time>
      </trkpt>
      <trkpt lat="45.84737" lon="4.69453">
        <ele>245.8884</ele>
        <time>2022-08-06T15:42:33.000Z</time>
      </trkpt>
      <trkpt lat="45.84736" lon="4.69451">
        <ele>246.23604</ele>
        <time>2022-08-06T15:42:34.000Z</time>
      </trkpt>
      <trkpt lat="45.84733" lon="4.69449">
        <ele>246.4158</ele>
        <time>2022-08-06T15:42:35.000Z</time>
      </trkpt>
      <trkpt lat="45.84731" lon="4.69448">
        <ele>246.57344</ele>
        <time>2022-08-06T15:42:36.000Z</time>
      </trkpt>
      <trkpt lat="45.8473" lon="4.69446">
        <ele>246.65942</ele>
        <time>2022-08-06T15:42:37.000Z</time>
      </trkpt>
      <trkpt lat="45.84728" lon="4.69445">
        <ele>246.58122</ele>
        <time>2022-08-06T15:42:38.000Z</time>
      </trkpt>
      <trkpt lat="45.84727" lon="4.69442">
        <ele>246.59427</ele>
        <time>2022-08-06T15:42:39.000Z</time>
      </trkpt>
      <trkpt lat="45.84726" lon="4.6944">
        <ele>246.55655</ele>
        <time>2022-08-06T15:42:40.000Z</time>
      </trkpt>
      <trkpt lat="45.84724" lon="4.69438">
        <ele>246.48738</ele>
        <time>2022-08-06T15:42:41.000Z</time>
      </trkpt>
      <trkpt lat="45.84721" lon="4.69436">
        <ele>246.52266</ele>
        <time>2022-08-06T15:42:43.000Z</time>
      </trkpt>
      <trkpt lat="45.84719" lon="4.69435">
        <ele>246.55362</ele>
        <time>2022-08-06T15:42:44.000Z</time>
      </trkpt>
      <trkpt lat="45.84717" lon="4.69433">
        <ele>246.64047</ele>
        <time>2022-08-06T15:42:45.000Z</time>
      </trkpt>
      <trkpt lat="45.84715" lon="4.6943">
        <ele>246.80991</ele>
        <time>2022-08-06T15:42:46.000Z</time>
      </trkpt>
      <trkpt lat="45.84713" lon="4.69426">
        <ele>247.02176</ele>
        <time>2022-08-06T15:42:47.000Z</time>
      </trkpt>
      <trkpt lat="45.84711" lon="4.69423">
        <ele>247.23296</ele>
        <time>2022-08-06T15:42:48.000Z</time>
      </trkpt>
      <trkpt lat="45.8471" lon="4.69421">
        <ele>247.43909</ele>
        <time>2022-08-06T15:42:50.000Z</time>
      </trkpt>
      <trkpt lat="45.84707" lon="4.69421">
        <ele>247.70805</ele>
        <time>2022-08-06T15:42:52.000Z</time>
      </trkpt>
      <trkpt lat="45.84704" lon="4.69418">
        <ele>248.02812</ele>
        <time>2022-08-06T15:42:54.000Z</time>
      </trkpt>
      <trkpt lat="45.84701" lon="4.69416">
        <ele>248.2963</ele>
        <time>2022-08-06T15:42:56.000Z</time>
      </trkpt>
      <trkpt lat="45.84698" lon="4.69411">
        <ele>248.56042</ele>
        <time>2022-08-06T15:42:59.000Z</time>
      </trkpt>
      <trkpt lat="45.84695" lon="4.69407">
        <ele>248.95102</ele>
        <time>2022-08-06T15:43:01.000Z</time>
      </trkpt>
      <trkpt lat="45.84693" lon="4.69405">
        <ele>249.28146</ele>
        <time>2022-08-06T15:43:02.000Z</time>
      </trkpt>
      <trkpt lat="45.8469" lon="4.69404">
        <ele>249.57239</ele>
        <time>2022-08-06T15:43:03.000Z</time>
      </trkpt>
      <trkpt lat="45.84688" lon="4.69404">
        <ele>249.88358</ele>
        <time>2022-08-06T15:43:04.000Z</time>
      </trkpt>
      <trkpt lat="45.84686" lon="4.69405">
        <ele>250.22763</ele>
        <time>2022-08-06T15:43:05.000Z</time>
      </trkpt>
      <trkpt lat="45.8468" lon="4.69402">
        <ele>250.56738</ele>
        <time>2022-08-06T15:43:08.000Z</time>
      </trkpt>
      <trkpt lat="45.84678" lon="4.694">
        <ele>250.89229</ele>
        <time>2022-08-06T15:43:09.000Z</time>
      </trkpt>
      <trkpt lat="45.84676" lon="4.69399">
        <ele>251.20894</ele>
        <time>2022-08-06T15:43:10.000Z</time>
      </trkpt>
      <trkpt lat="45.84674" lon="4.69398">
        <ele>251.5466</ele>
        <time>2022-08-06T15:43:11.000Z</time>
      </trkpt>
      <trkpt lat="45.84672" lon="4.69398">
        <ele>251.78801</ele>
        <time>2022-08-06T15:43:12.000Z</time>
      </trkpt>
      <trkpt lat="45.84669" lon="4.69397">
        <ele>252.01254</ele>
        <time>2022-08-06T15:43:13.000Z</time>
      </trkpt>
      <trkpt lat="45.84667" lon="4.69396">
        <ele>252.21054</ele>
        <time>2022-08-06T15:43:14.000Z</time>
      </trkpt>
      <trkpt lat="45.84664" lon="4.69394">
        <ele>252.37236</ele>
        <time>2022-08-06T15:43:15.000Z</time>
      </trkpt>
      <trkpt lat="45.84662" lon="4.69393">
        <ele>252.50749</ele>
        <time>2022-08-06T15:43:16.000Z</time>
      </trkpt>
      <trkpt lat="45.8466" lon="4.69392">
        <ele>252.55144</ele>
        <time>2022-08-06T15:43:17.000Z</time>
      </trkpt>
      <trkpt lat="45.84659" lon="4.69391">
        <ele>252.55832</ele>
        <time>2022-08-06T15:43:18.000Z</time>
      </trkpt>
      <trkpt lat="45.84657" lon="4.6939">
        <ele>252.56755</ele>
        <time>2022-08-06T15:43:19.000Z</time>
      </trkpt>
      <trkpt lat="45.84655" lon="4.69389">
        <ele>252.58028</ele>
        <time>2022-08-06T15:43:20.000Z</time>
      </trkpt>
      <trkpt lat="45.84653" lon="4.69387">
        <ele>252.59903</ele>
        <time>2022-08-06T15:43:21.000Z</time>
      </trkpt>
      <trkpt lat="45.8465" lon="4.69385">
        <ele>252.60324</ele>
        <time>2022-08-06T15:43:22.000Z</time>
      </trkpt>
      <trkpt lat="45.84648" lon="4.69383">
        <ele>252.52544</ele>
        <time>2022-08-06T15:43:23.000Z</time>
      </trkpt>
      <trkpt lat="45.84646" lon="4.6938">
        <ele>252.45609</ele>
        <time>2022-08-06T15:43:25.000Z</time>
      </trkpt>
      <trkpt lat="45.84645" lon="4.69376">
        <ele>252.52312</ele>
        <time>2022-08-06T15:43:28.000Z</time>
      </trkpt>
      <trkpt lat="45.84643" lon="4.69373">
        <ele>252.47977</ele>
        <time>2022-08-06T15:43:31.000Z</time>
      </trkpt>
      <trkpt lat="45.84641" lon="4.69372">
        <ele>252.48149</ele>
        <time>2022-08-06T15:43:32.000Z</time>
      </trkpt>
      <trkpt lat="45.8464" lon="4.69369">
        <ele>252.66537</ele>
        <time>2022-08-06T15:43:34.000Z</time>
      </trkpt>
      <trkpt lat="45.8464" lon="4.69366">
        <ele>252.73685</ele>
        <time>2022-08-06T15:43:42.000Z</time>
      </trkpt>
      <trkpt lat="45.84639" lon="4.69363">
        <ele>252.8405</ele>
        <time>2022-08-06T15:43:49.000Z</time>
      </trkpt>
      <trkpt lat="45.8464" lon="4.69366">
        <ele>252.922</ele>
        <time>2022-08-06T15:45:32.000Z</time>
      </trkpt>
      <trkpt lat="45.84639" lon="4.69368">
        <ele>252.81401</ele>
        <time>2022-08-06T15:45:36.000Z</time>
      </trkpt>
      <trkpt lat="45.84638" lon="4.69365">
        <ele>252.75504</ele>
        <time>2022-08-06T15:45:39.000Z</time>
      </trkpt>
      <trkpt lat="45.8464" lon="4.69367">
        <ele>252.73157</ele>
        <time>2022-08-06T15:45:57.000Z</time>
      </trkpt>
      <trkpt lat="45.84642" lon="4.69366">
        <ele>252.92741</ele>
        <time>2022-08-06T15:46:00.000Z</time>
      </trkpt>
      <trkpt lat="45.84639" lon="4.69368">
        <ele>253.10718</ele>
        <time>2022-08-06T15:47:16.000Z</time>
      </trkpt>
      <trkpt lat="45.84637" lon="4.6937">
        <ele>253.22922</ele>
        <time>2022-08-06T15:47:18.000Z</time>
      </trkpt>
      <trkpt lat="45.84635" lon="4.69372">
        <ele>253.38553</ele>
        <time>2022-08-06T15:47:19.000Z</time>
      </trkpt>
      <trkpt lat="45.84634" lon="4.69374">
        <ele>253.46838</ele>
        <time>2022-08-06T15:47:20.000Z</time>
      </trkpt>
      <trkpt lat="45.84632" lon="4.69375">
        <ele>253.55383</ele>
        <time>2022-08-06T15:47:21.000Z</time>
      </trkpt>
      <trkpt lat="45.8463" lon="4.69377">
        <ele>253.70779</ele>
        <time>2022-08-06T15:47:22.000Z</time>
      </trkpt>
      <trkpt lat="45.84628" lon="4.69379">
        <ele>253.84444</ele>
        <time>2022-08-06T15:47:23.000Z</time>
      </trkpt>
      <trkpt lat="45.84627" lon="4.69382">
        <ele>253.90823</ele>
        <time>2022-08-06T15:47:24.000Z</time>
      </trkpt>
      <trkpt lat="45.84623" lon="4.69386">
        <ele>253.91617</ele>
        <time>2022-08-06T15:47:26.000Z</time>
      </trkpt>
      <trkpt lat="45.84621" lon="4.69387">
        <ele>253.77634</ele>
        <time>2022-08-06T15:47:27.000Z</time>
      </trkpt>
      <trkpt lat="45.84617" lon="4.6939">
        <ele>253.78787</ele>
        <time>2022-08-06T15:47:29.000Z</time>
      </trkpt>
      <trkpt lat="45.84616" lon="4.69392">
        <ele>253.74995</ele>
        <time>2022-08-06T15:47:30.000Z</time>
      </trkpt>
      <trkpt lat="45.84614" lon="4.69394">
        <ele>253.6263</ele>
        <time>2022-08-06T15:47:31.000Z</time>
      </trkpt>
      <trkpt lat="45.84613" lon="4.69396">
        <ele>253.56149</ele>
        <time>2022-08-06T15:47:32.000Z</time>
      </trkpt>
      <trkpt lat="45.84611" lon="4.694">
        <ele>253.35803</ele>
        <time>2022-08-06T15:47:34.000Z</time>
      </trkpt>
      <trkpt lat="45.8461" lon="4.69402">
        <ele>253.0667</ele>
        <time>2022-08-06T15:47:36.000Z</time>
      </trkpt>
      <trkpt lat="45.84607" lon="4.69405">
        <ele>252.76938</ele>
        <time>2022-08-06T15:47:38.000Z</time>
      </trkpt>
      <trkpt lat="45.84605" lon="4.69407">
        <ele>252.41377</ele>
        <time>2022-08-06T15:47:39.000Z</time>
      </trkpt>
      <trkpt lat="45.84603" lon="4.69408">
        <ele>252.01022</ele>
        <time>2022-08-06T15:47:40.000Z</time>
      </trkpt>
      <trkpt lat="45.84601" lon="4.6941">
        <ele>251.47958</ele>
        <time>2022-08-06T15:47:42.000Z</time>
      </trkpt>
      <trkpt lat="45.84599" lon="4.69413">
        <ele>250.8093</ele>
        <time>2022-08-06T15:47:44.000Z</time>
      </trkpt>
      <trkpt lat="45.84597" lon="4.69414">
        <ele>250.19011</ele>
        <time>2022-08-06T15:47:46.000Z</time>
      </trkpt>
      <trkpt lat="45.84594" lon="4.69417">
        <ele>249.48709</ele>
        <time>2022-08-06T15:47:48.000Z</time>
      </trkpt>
      <trkpt lat="45.84593" lon="4.6942">
        <ele>248.88663</ele>
        <time>2022-08-06T15:47:49.000Z</time>
      </trkpt>
      <trkpt lat="45.84592" lon="4.69423">
        <ele>248.21231</ele>
        <time>2022-08-06T15:47:50.000Z</time>
      </trkpt>
      <trkpt lat="45.8459" lon="4.69427">
        <ele>247.55685</ele>
        <time>2022-08-06T15:47:51.000Z</time>
      </trkpt>
      <trkpt lat="45.84588" lon="4.69429">
        <ele>246.96851</ele>
        <time>2022-08-06T15:47:52.000Z</time>
      </trkpt>
      <trkpt lat="45.84586" lon="4.6943">
        <ele>246.47281</ele>
        <time>2022-08-06T15:47:53.000Z</time>
      </trkpt>
      <trkpt lat="45.84584" lon="4.69431">
        <ele>245.9727</ele>
        <time>2022-08-06T15:47:54.000Z</time>
      </trkpt>
      <trkpt lat="45.84582" lon="4.69433">
        <ele>245.55124</ele>
        <time>2022-08-06T15:47:55.000Z</time>
      </trkpt>
      <trkpt lat="45.8458" lon="4.69435">
        <ele>245.12277</ele>
        <time>2022-08-06T15:47:56.000Z</time>
      </trkpt>
      <trkpt lat="45.84577" lon="4.69437">
        <ele>244.73593</ele>
        <time>2022-08-06T15:47:57.000Z</time>
      </trkpt>
      <trkpt lat="45.84574" lon="4.69439">
        <ele>244.41548</ele>
        <time>2022-08-06T15:47:58.000Z</time>
      </trkpt>
      <trkpt lat="45.84572" lon="4.69441">
        <ele>244.10501</ele>
        <time>2022-08-06T15:47:59.000Z</time>
      </trkpt>
      <trkpt lat="45.8457" lon="4.69442">
        <ele>243.88712</ele>
        <time>2022-08-06T15:48:00.000Z</time>
      </trkpt>
      <trkpt lat="45.84569" lon="4.69444">
        <ele>243.80212</ele>
        <time>2022-08-06T15:48:01.000Z</time>
      </trkpt>
      <trkpt lat="45.84567" lon="4.69446">
        <ele>243.8555</ele>
        <time>2022-08-06T15:48:02.000Z</time>
      </trkpt>
      <trkpt lat="45.84565" lon="4.69447">
        <ele>243.89986</ele>
        <time>2022-08-06T15:48:03.000Z</time>
      </trkpt>
      <trkpt lat="45.84563" lon="4.69449">
        <ele>244.00912</ele>
        <time>2022-08-06T15:48:04.000Z</time>
      </trkpt>
      <trkpt lat="45.8456" lon="4.69451">
        <ele>244.08488</ele>
        <time>2022-08-06T15:48:05.000Z</time>
      </trkpt>
      <trkpt lat="45.84558" lon="4.69451">
        <ele>244.27214</ele>
        <time>2022-08-06T15:48:06.000Z</time>
      </trkpt>
      <trkpt lat="45.84553" lon="4.69454">
        <ele>244.52657</ele>
        <time>2022-08-06T15:48:09.000Z</time>
      </trkpt>
      <trkpt lat="45.84551" lon="4.69455">
        <ele>244.89568</ele>
        <time>2022-08-06T15:48:10.000Z</time>
      </trkpt>
      <trkpt lat="45.84549" lon="4.69457">
        <ele>245.20898</ele>
        <time>2022-08-06T15:48:11.000Z</time>
      </trkpt>
      <trkpt lat="45.84547" lon="4.69459">
        <ele>245.63054</ele>
        <time>2022-08-06T15:48:12.000Z</time>
      </trkpt>
      <trkpt lat="45.84545" lon="4.69461">
        <ele>246.0623</ele>
        <time>2022-08-06T15:48:13.000Z</time>
      </trkpt>
      <trkpt lat="45.84544" lon="4.69462">
        <ele>246.46602</ele>
        <time>2022-08-06T15:48:14.000Z</time>
      </trkpt>
      <trkpt lat="45.84539" lon="4.69465">
        <ele>246.8129</ele>
        <time>2022-08-06T15:48:16.000Z</time>
      </trkpt>
      <trkpt lat="45.84537" lon="4.69466">
        <ele>247.19119</ele>
        <time>2022-08-06T15:48:17.000Z</time>
      </trkpt>
      <trkpt lat="45.84535" lon="4.69468">
        <ele>247.55103</ele>
        <time>2022-08-06T15:48:18.000Z</time>
      </trkpt>
      <trkpt lat="45.84532" lon="4.69469">
        <ele>247.87137</ele>
        <time>2022-08-06T15:48:19.000Z</time>
      </trkpt>
      <trkpt lat="45.84529" lon="4.6947">
        <ele>248.12296</ele>
        <time>2022-08-06T15:48:20.000Z</time>
      </trkpt>
      <trkpt lat="45.84526" lon="4.69472">
        <ele>248.28828</ele>
        <time>2022-08-06T15:48:21.000Z</time>
      </trkpt>
      <trkpt lat="45.84524" lon="4.69474">
        <ele>248.4509</ele>
        <time>2022-08-06T15:48:22.000Z</time>
      </trkpt>
      <trkpt lat="45.84521" lon="4.69476">
        <ele>248.62447</ele>
        <time>2022-08-06T15:48:23.000Z</time>
      </trkpt>
      <trkpt lat="45.84519" lon="4.69477">
        <ele>248.75546</ele>
        <time>2022-08-06T15:48:24.000Z</time>
      </trkpt>
      <trkpt lat="45.84517" lon="4.69479">
        <ele>248.9008</ele>
        <time>2022-08-06T15:48:25.000Z</time>
      </trkpt>
      <trkpt lat="45.84515" lon="4.69481">
        <ele>249.11739</ele>
        <time>2022-08-06T15:48:26.000Z</time>
      </trkpt>
      <trkpt lat="45.84513" lon="4.69483">
        <ele>249.29907</ele>
        <time>2022-08-06T15:48:27.000Z</time>
      </trkpt>
      <trkpt lat="45.84511" lon="4.69485">
        <ele>249.37675</ele>
        <time>2022-08-06T15:48:28.000Z</time>
      </trkpt>
      <trkpt lat="45.84509" lon="4.69487">
        <ele>249.46072</ele>
        <time>2022-08-06T15:48:29.000Z</time>
      </trkpt>
      <trkpt lat="45.84506" lon="4.69489">
        <ele>249.53418</ele>
        <time>2022-08-06T15:48:30.000Z</time>
      </trkpt>
      <trkpt lat="45.84503" lon="4.69491">
        <ele>249.49167</ele>
        <time>2022-08-06T15:48:31.000Z</time>
      </trkpt>
      <trkpt lat="45.845" lon="4.69492">
        <ele>249.42404</ele>
        <time>2022-08-06T15:48:32.000Z</time>
      </trkpt>
      <trkpt lat="45.84496" lon="4.69494">
        <ele>249.27022</ele>
        <time>2022-08-06T15:48:33.000Z</time>
      </trkpt>
      <trkpt lat="45.84493" lon="4.69495">
        <ele>248.99873</ele>
        <time>2022-08-06T15:48:34.000Z</time>
      </trkpt>
      <trkpt lat="45.8449" lon="4.69497">
        <ele>248.72791</ele>
        <time>2022-08-06T15:48:35.000Z</time>
      </trkpt>
      <trkpt lat="45.84487" lon="4.69498">
        <ele>248.4462</ele>
        <time>2022-08-06T15:48:36.000Z</time>
      </trkpt>
      <trkpt lat="45.84484" lon="4.69499">
        <ele>248.22224</ele>
        <time>2022-08-06T15:48:37.000Z</time>
      </trkpt>
      <trkpt lat="45.8448" lon="4.69501">
        <ele>247.96082</ele>
        <time>2022-08-06T15:48:38.000Z</time>
      </trkpt>
      <trkpt lat="45.84477" lon="4.69502">
        <ele>247.71408</ele>
        <time>2022-08-06T15:48:39.000Z</time>
      </trkpt>
      <trkpt lat="45.84475" lon="4.69503">
        <ele>247.55049</ele>
        <time>2022-08-06T15:48:40.000Z</time>
      </trkpt>
      <trkpt lat="45.84473" lon="4.69504">
        <ele>247.4613</ele>
        <time>2022-08-06T15:48:41.000Z</time>
      </trkpt>
      <trkpt lat="45.84471" lon="4.69505">
        <ele>247.32683</ele>
        <time>2022-08-06T15:48:42.000Z</time>
      </trkpt>
      <trkpt lat="45.84468" lon="4.69507">
        <ele>247.23555</ele>
        <time>2022-08-06T15:48:43.000Z</time>
      </trkpt>
      <trkpt lat="45.84465" lon="4.69508">
        <ele>247.15271</ele>
        <time>2022-08-06T15:48:44.000Z</time>
      </trkpt>
      <trkpt lat="45.84463" lon="4.69509">
        <ele>247.15955</ele>
        <time>2022-08-06T15:48:45.000Z</time>
      </trkpt>
      <trkpt lat="45.84459" lon="4.6951">
        <ele>247.18465</ele>
        <time>2022-08-06T15:48:46.000Z</time>
      </trkpt>
      <trkpt lat="45.84456" lon="4.69511">
        <ele>247.15152</ele>
        <time>2022-08-06T15:48:47.000Z</time>
      </trkpt>
      <trkpt lat="45.84454" lon="4.69512">
        <ele>247.19266</ele>
        <time>2022-08-06T15:48:48.000Z</time>
      </trkpt>
      <trkpt lat="45.84451" lon="4.69512">
        <ele>247.28015</ele>
        <time>2022-08-06T15:48:49.000Z</time>
      </trkpt>
      <trkpt lat="45.84448" lon="4.69514">
        <ele>247.50151</ele>
        <time>2022-08-06T15:48:50.000Z</time>
      </trkpt>
      <trkpt lat="45.84445" lon="4.69515">
        <ele>247.8765</ele>
        <time>2022-08-06T15:48:51.000Z</time>
      </trkpt>
      <trkpt lat="45.84443" lon="4.69516">
        <ele>248.27444</ele>
        <time>2022-08-06T15:48:52.000Z</time>
      </trkpt>
      <trkpt lat="45.84441" lon="4.69517">
        <ele>248.77145</ele>
        <time>2022-08-06T15:48:53.000Z</time>
      </trkpt>
      <trkpt lat="45.84438" lon="4.69518">
        <ele>249.3063</ele>
        <time>2022-08-06T15:48:54.000Z</time>
      </trkpt>
      <trkpt lat="45.84435" lon="4.69519">
        <ele>249.74622</ele>
        <time>2022-08-06T15:48:55.000Z</time>
      </trkpt>
      <trkpt lat="45.84433" lon="4.6952">
        <ele>250.17282</ele>
        <time>2022-08-06T15:48:56.000Z</time>
      </trkpt>
      <trkpt lat="45.84431" lon="4.69521">
        <ele>250.61028</ele>
        <time>2022-08-06T15:48:57.000Z</time>
      </trkpt>
      <trkpt lat="45.84429" lon="4.69522">
        <ele>251.14584</ele>
        <time>2022-08-06T15:48:58.000Z</time>
      </trkpt>
      <trkpt lat="45.84426" lon="4.69523">
        <ele>251.72844</ele>
        <time>2022-08-06T15:48:59.000Z</time>
      </trkpt>
      <trkpt lat="45.84422" lon="4.69525">
        <ele>252.29074</ele>
        <time>2022-08-06T15:49:00.000Z</time>
      </trkpt>
      <trkpt lat="45.84419" lon="4.69526">
        <ele>252.87964</ele>
        <time>2022-08-06T15:49:01.000Z</time>
      </trkpt>
      <trkpt lat="45.84416" lon="4.69527">
        <ele>253.53325</ele>
        <time>2022-08-06T15:49:02.000Z</time>
      </trkpt>
      <trkpt lat="45.84412" lon="4.69528">
        <ele>254.23389</ele>
        <time>2022-08-06T15:49:03.000Z</time>
      </trkpt>
      <trkpt lat="45.84409" lon="4.69529">
        <ele>254.86288</ele>
        <time>2022-08-06T15:49:04.000Z</time>
      </trkpt>
      <trkpt lat="45.84407" lon="4.69529">
        <ele>255.45493</ele>
        <time>2022-08-06T15:49:05.000Z</time>
      </trkpt>
      <trkpt lat="45.84404" lon="4.6953">
        <ele>255.98349</ele>
        <time>2022-08-06T15:49:06.000Z</time>
      </trkpt>
      <trkpt lat="45.844" lon="4.69531">
        <ele>256.5834</ele>
        <time>2022-08-06T15:49:07.000Z</time>
      </trkpt>
      <trkpt lat="45.84397" lon="4.69531">
        <ele>257.1282</ele>
        <time>2022-08-06T15:49:08.000Z</time>
      </trkpt>
      <trkpt lat="45.84395" lon="4.69531">
        <ele>257.66058</ele>
        <time>2022-08-06T15:49:09.000Z</time>
      </trkpt>
      <trkpt lat="45.84389" lon="4.69532">
        <ele>258.17969</ele>
        <time>2022-08-06T15:49:11.000Z</time>
      </trkpt>
      <trkpt lat="45.84387" lon="4.69532">
        <ele>258.61682</ele>
        <time>2022-08-06T15:49:12.000Z</time>
      </trkpt>
      <trkpt lat="45.84384" lon="4.69531">
        <ele>259.08255</ele>
        <time>2022-08-06T15:49:13.000Z</time>
      </trkpt>
      <trkpt lat="45.84382" lon="4.6953">
        <ele>259.46381</ele>
        <time>2022-08-06T15:49:14.000Z</time>
      </trkpt>
      <trkpt lat="45.84379" lon="4.6953">
        <ele>259.87704</ele>
        <time>2022-08-06T15:49:15.000Z</time>
      </trkpt>
      <trkpt lat="45.84377" lon="4.69529">
        <ele>260.42331</ele>
        <time>2022-08-06T15:49:16.000Z</time>
      </trkpt>
      <trkpt lat="45.84375" lon="4.69529">
        <ele>261.00201</ele>
        <time>2022-08-06T15:49:17.000Z</time>
      </trkpt>
      <trkpt lat="45.84373" lon="4.6953">
        <ele>261.50995</ele>
        <time>2022-08-06T15:49:18.000Z</time>
      </trkpt>
      <trkpt lat="45.84371" lon="4.6953">
        <ele>261.9523</ele>
        <time>2022-08-06T15:49:19.000Z</time>
      </trkpt>
      <trkpt lat="45.84368" lon="4.6953">
        <ele>262.26389</ele>
        <time>2022-08-06T15:49:20.000Z</time>
      </trkpt>
      <trkpt lat="45.84366" lon="4.6953">
        <ele>262.61029</ele>
        <time>2022-08-06T15:49:21.000Z</time>
      </trkpt>
      <trkpt lat="45.84364" lon="4.6953">
        <ele>262.89911</ele>
        <time>2022-08-06T15:49:22.000Z</time>
      </trkpt>
      <trkpt lat="45.84362" lon="4.69531">
        <ele>263.18344</ele>
        <time>2022-08-06T15:49:23.000Z</time>
      </trkpt>
      <trkpt lat="45.84359" lon="4.69531">
        <ele>263.41925</ele>
        <time>2022-08-06T15:49:24.000Z</time>
      </trkpt>
      <trkpt lat="45.84356" lon="4.6953">
        <ele>263.68912</ele>
        <time>2022-08-06T15:49:25.000Z</time>
      </trkpt>
      <trkpt lat="45.84353" lon="4.69529">
        <ele>263.92905</ele>
        <time>2022-08-06T15:49:26.000Z</time>
      </trkpt>
      <trkpt lat="45.8435" lon="4.69528">
        <ele>264.22211</ele>
        <time>2022-08-06T15:49:27.000Z</time>
      </trkpt>
      <trkpt lat="45.84348" lon="4.69528">
        <ele>264.44418</ele>
        <time>2022-08-06T15:49:28.000Z</time>
      </trkpt>
      <trkpt lat="45.84345" lon="4.69528">
        <ele>264.71072</ele>
        <time>2022-08-06T15:49:29.000Z</time>
      </trkpt>
      <trkpt lat="45.84343" lon="4.69526">
        <ele>264.90497</ele>
        <time>2022-08-06T15:49:30.000Z</time>
      </trkpt>
      <trkpt lat="45.8434" lon="4.69525">
        <ele>265.01001</ele>
        <time>2022-08-06T15:49:31.000Z</time>
      </trkpt>
      <trkpt lat="45.84338" lon="4.69524">
        <ele>265.0986</ele>
        <time>2022-08-06T15:49:32.000Z</time>
      </trkpt>
      <trkpt lat="45.84335" lon="4.69523">
        <ele>265.1377</ele>
        <time>2022-08-06T15:49:33.000Z</time>
      </trkpt>
      <trkpt lat="45.84332" lon="4.69523">
        <ele>265.14157</ele>
        <time>2022-08-06T15:49:34.000Z</time>
      </trkpt>
      <trkpt lat="45.8433" lon="4.69523">
        <ele>265.1785</ele>
        <time>2022-08-06T15:49:35.000Z</time>
      </trkpt>
      <trkpt lat="45.84328" lon="4.69524">
        <ele>265.20316</ele>
        <time>2022-08-06T15:49:36.000Z</time>
      </trkpt>
      <trkpt lat="45.84325" lon="4.69525">
        <ele>265.2926</ele>
        <time>2022-08-06T15:49:38.000Z</time>
      </trkpt>
      <trkpt lat="45.84323" lon="4.69524">
        <ele>265.3566</ele>
        <time>2022-08-06T15:49:39.000Z</time>
      </trkpt>
      <trkpt lat="45.84321" lon="4.69524">
        <ele>265.35587</ele>
        <time>2022-08-06T15:49:40.000Z</time>
      </trkpt>
      <trkpt lat="45.84319" lon="4.69523">
        <ele>265.46356</ele>
        <time>2022-08-06T15:49:41.000Z</time>
      </trkpt>
      <trkpt lat="45.84316" lon="4.69522">
        <ele>265.52383</ele>
        <time>2022-08-06T15:49:42.000Z</time>
      </trkpt>
      <trkpt lat="45.84314" lon="4.69521">
        <ele>265.67178</ele>
        <time>2022-08-06T15:49:43.000Z</time>
      </trkpt>
      <trkpt lat="45.84311" lon="4.69521">
        <ele>265.8428</ele>
        <time>2022-08-06T15:49:44.000Z</time>
      </trkpt>
      <trkpt lat="45.84308" lon="4.6952">
        <ele>265.98938</ele>
        <time>2022-08-06T15:49:45.000Z</time>
      </trkpt>
      <trkpt lat="45.84304" lon="4.69519">
        <ele>266.04684</ele>
        <time>2022-08-06T15:49:46.000Z</time>
      </trkpt>
      <trkpt lat="45.84299" lon="4.69519">
        <ele>266.0961</ele>
        <time>2022-08-06T15:49:47.000Z</time>
      </trkpt>
      <trkpt lat="45.84295" lon="4.6952">
        <ele>266.20105</ele>
        <time>2022-08-06T15:49:48.000Z</time>
      </trkpt>
      <trkpt lat="45.84291" lon="4.6952">
        <ele>266.34625</ele>
        <time>2022-08-06T15:49:49.000Z</time>
      </trkpt>
      <trkpt lat="45.84288" lon="4.6952">
        <ele>266.4715</ele>
        <time>2022-08-06T15:49:50.000Z</time>
      </trkpt>
      <trkpt lat="45.84285" lon="4.69521">
        <ele>266.71173</ele>
        <time>2022-08-06T15:49:51.000Z</time>
      </trkpt>
      <trkpt lat="45.84281" lon="4.69521">
        <ele>266.93265</ele>
        <time>2022-08-06T15:49:52.000Z</time>
      </trkpt>
      <trkpt lat="45.84278" lon="4.69521">
        <ele>267.14304</ele>
        <time>2022-08-06T15:49:53.000Z</time>
      </trkpt>
      <trkpt lat="45.84275" lon="4.69521">
        <ele>267.44229</ele>
        <time>2022-08-06T15:49:54.000Z</time>
      </trkpt>
      <trkpt lat="45.84272" lon="4.6952">
        <ele>267.78943</ele>
        <time>2022-08-06T15:49:55.000Z</time>
      </trkpt>
      <trkpt lat="45.8427" lon="4.69519">
        <ele>268.16879</ele>
        <time>2022-08-06T15:49:56.000Z</time>
      </trkpt>
      <trkpt lat="45.84267" lon="4.69516">
        <ele>268.56174</ele>
        <time>2022-08-06T15:49:58.000Z</time>
      </trkpt>
      <trkpt lat="45.84265" lon="4.69515">
        <ele>268.89984</ele>
        <time>2022-08-06T15:49:59.000Z</time>
      </trkpt>
      <trkpt lat="45.84261" lon="4.69514">
        <ele>269.16519</ele>
        <time>2022-08-06T15:50:00.000Z</time>
      </trkpt>
      <trkpt lat="45.84256" lon="4.6951">
        <ele>269.39963</ele>
        <time>2022-08-06T15:50:02.000Z</time>
      </trkpt>
      <trkpt lat="45.84254" lon="4.6951">
        <ele>269.52542</ele>
        <time>2022-08-06T15:50:03.000Z</time>
      </trkpt>
      <trkpt lat="45.84252" lon="4.69509">
        <ele>269.61685</ele>
        <time>2022-08-06T15:50:04.000Z</time>
      </trkpt>
      <trkpt lat="45.8425" lon="4.69507">
        <ele>269.57919</ele>
        <time>2022-08-06T15:50:05.000Z</time>
      </trkpt>
      <trkpt lat="45.84248" lon="4.69506">
        <ele>269.53827</ele>
        <time>2022-08-06T15:50:06.000Z</time>
      </trkpt>
      <trkpt lat="45.84245" lon="4.69505">
        <ele>269.45959</ele>
        <time>2022-08-06T15:50:07.000Z</time>
      </trkpt>
      <trkpt lat="45.84243" lon="4.69504">
        <ele>269.42517</ele>
        <time>2022-08-06T15:50:08.000Z</time>
      </trkpt>
      <trkpt lat="45.84238" lon="4.69503">
        <ele>269.42654</ele>
        <time>2022-08-06T15:50:10.000Z</time>
      </trkpt>
      <trkpt lat="45.84235" lon="4.69503">
        <ele>269.36542</ele>
        <time>2022-08-06T15:50:11.000Z</time>
      </trkpt>
      <trkpt lat="45.84231" lon="4.69502">
        <ele>269.29633</ele>
        <time>2022-08-06T15:50:12.000Z</time>
      </trkpt>
      <trkpt lat="45.84228" lon="4.69502">
        <ele>269.2525</ele>
        <time>2022-08-06T15:50:13.000Z</time>
      </trkpt>
      <trkpt lat="45.84225" lon="4.69502">
        <ele>269.17892</ele>
        <time>2022-08-06T15:50:14.000Z</time>
      </trkpt>
      <trkpt lat="45.84221" lon="4.69502">
        <ele>269.09567</ele>
        <time>2022-08-06T15:50:15.000Z</time>
      </trkpt>
      <trkpt lat="45.84218" lon="4.69501">
        <ele>269.01984</ele>
        <time>2022-08-06T15:50:16.000Z</time>
      </trkpt>
      <trkpt lat="45.84215" lon="4.695">
        <ele>268.91644</ele>
        <time>2022-08-06T15:50:17.000Z</time>
      </trkpt>
      <trkpt lat="45.84212" lon="4.69498">
        <ele>268.73935</ele>
        <time>2022-08-06T15:50:18.000Z</time>
      </trkpt>
      <trkpt lat="45.8421" lon="4.69496">
        <ele>268.53522</ele>
        <time>2022-08-06T15:50:19.000Z</time>
      </trkpt>
      <trkpt lat="45.84207" lon="4.69494">
        <ele>268.31244</ele>
        <time>2022-08-06T15:50:20.000Z</time>
      </trkpt>
      <trkpt lat="45.84205" lon="4.69492">
        <ele>268.02097</ele>
        <time>2022-08-06T15:50:21.000Z</time>
      </trkpt>
      <trkpt lat="45.84201" lon="4.6949">
        <ele>267.83374</ele>
        <time>2022-08-06T15:50:22.000Z</time>
      </trkpt>
      <trkpt lat="45.84198" lon="4.69487">
        <ele>267.69946</ele>
        <time>2022-08-06T15:50:23.000Z</time>
      </trkpt>
      <trkpt lat="45.84195" lon="4.69485">
        <ele>267.6181</ele>
        <time>2022-08-06T15:50:24.000Z</time>
      </trkpt>
      <trkpt lat="45.84191" lon="4.69483">
        <ele>267.60367</ele>
        <time>2022-08-06T15:50:25.000Z</time>
      </trkpt>
      <trkpt lat="45.84188" lon="4.69481">
        <ele>267.62933</ele>
        <time>2022-08-06T15:50:26.000Z</time>
      </trkpt>
      <trkpt lat="45.84185" lon="4.6948">
        <ele>267.63306</ele>
        <time>2022-08-06T15:50:27.000Z</time>
      </trkpt>
      <trkpt lat="45.84182" lon="4.69479">
        <ele>267.63553</ele>
        <time>2022-08-06T15:50:28.000Z</time>
      </trkpt>
      <trkpt lat="45.8418" lon="4.69477">
        <ele>267.71036</ele>
        <time>2022-08-06T15:50:29.000Z</time>
      </trkpt>
      <trkpt lat="45.84176" lon="4.69476">
        <ele>267.75873</ele>
        <time>2022-08-06T15:50:30.000Z</time>
      </trkpt>
      <trkpt lat="45.84174" lon="4.69475">
        <ele>267.75043</ele>
        <time>2022-08-06T15:50:31.000Z</time>
      </trkpt>
      <trkpt lat="45.84168" lon="4.69475">
        <ele>267.79245</ele>
        <time>2022-08-06T15:50:33.000Z</time>
      </trkpt>
      <trkpt lat="45.84165" lon="4.69475">
        <ele>267.89996</ele>
        <time>2022-08-06T15:50:34.000Z</time>
      </trkpt>
      <trkpt lat="45.84162" lon="4.69477">
        <ele>268.01166</ele>
        <time>2022-08-06T15:50:35.000Z</time>
      </trkpt>
      <trkpt lat="45.84159" lon="4.69479">
        <ele>268.14178</ele>
        <time>2022-08-06T15:50:36.000Z</time>
      </trkpt>
      <trkpt lat="45.84157" lon="4.6948">
        <ele>268.25449</ele>
        <time>2022-08-06T15:50:37.000Z</time>
      </trkpt>
      <trkpt lat="45.84155" lon="4.6948">
        <ele>268.29791</ele>
        <time>2022-08-06T15:50:38.000Z</time>
      </trkpt>
      <trkpt lat="45.84151" lon="4.6948">
        <ele>268.61816</ele>
        <time>2022-08-06T15:50:40.000Z</time>
      </trkpt>
      <trkpt lat="45.84149" lon="4.6948">
        <ele>268.93298</ele>
        <time>2022-08-06T15:50:41.000Z</time>
      </trkpt>
      <trkpt lat="45.84147" lon="4.6948">
        <ele>269.28125</ele>
        <time>2022-08-06T15:50:42.000Z</time>
      </trkpt>
      <trkpt lat="45.84144" lon="4.69481">
        <ele>269.56705</ele>
        <time>2022-08-06T15:50:43.000Z</time>
      </trkpt>
      <trkpt lat="45.84142" lon="4.69482">
        <ele>269.90216</ele>
        <time>2022-08-06T15:50:44.000Z</time>
      </trkpt>
      <trkpt lat="45.8414" lon="4.69483">
        <ele>270.26584</ele>
        <time>2022-08-06T15:50:45.000Z</time>
      </trkpt>
      <trkpt lat="45.84138" lon="4.69483">
        <ele>270.63098</ele>
        <time>2022-08-06T15:50:46.000Z</time>
      </trkpt>
      <trkpt lat="45.84136" lon="4.69484">
        <ele>270.96481</ele>
        <time>2022-08-06T15:50:47.000Z</time>
      </trkpt>
      <trkpt lat="45.84132" lon="4.69485">
        <ele>271.23047</ele>
        <time>2022-08-06T15:50:49.000Z</time>
      </trkpt>
      <trkpt lat="45.8413" lon="4.69485">
        <ele>271.52936</ele>
        <time>2022-08-06T15:50:50.000Z</time>
      </trkpt>
      <trkpt lat="45.84126" lon="4.69485">
        <ele>271.82574</ele>
        <time>2022-08-06T15:50:52.000Z</time>
      </trkpt>
      <trkpt lat="45.84123" lon="4.69485">
        <ele>272.10205</ele>
        <time>2022-08-06T15:50:53.000Z</time>
      </trkpt>
      <trkpt lat="45.84121" lon="4.69485">
        <ele>272.34491</ele>
        <time>2022-08-06T15:50:54.000Z</time>
      </trkpt>
      <trkpt lat="45.84118" lon="4.69486">
        <ele>272.60846</ele>
        <time>2022-08-06T15:50:55.000Z</time>
      </trkpt>
      <trkpt lat="45.84116" lon="4.69486">
        <ele>272.85742</ele>
        <time>2022-08-06T15:50:56.000Z</time>
      </trkpt>
      <trkpt lat="45.84114" lon="4.69487">
        <ele>273.07034</ele>
        <time>2022-08-06T15:50:57.000Z</time>
      </trkpt>
      <trkpt lat="45.84111" lon="4.69487">
        <ele>273.2796</ele>
        <time>2022-08-06T15:50:58.000Z</time>
      </trkpt>
      <trkpt lat="45.84108" lon="4.69487">
        <ele>273.53558</ele>
        <time>2022-08-06T15:50:59.000Z</time>
      </trkpt>
      <trkpt lat="45.84106" lon="4.69487">
        <ele>273.92862</ele>
        <time>2022-08-06T15:51:00.000Z</time>
      </trkpt>
      <trkpt lat="45.84103" lon="4.69487">
        <ele>274.42874</ele>
        <time>2022-08-06T15:51:01.000Z</time>
      </trkpt>
      <trkpt lat="45.84101" lon="4.69487">
        <ele>274.70853</ele>
        <time>2022-08-06T15:51:02.000Z</time>
      </trkpt>
      <trkpt lat="45.84099" lon="4.69487">
        <ele>274.92249</ele>
        <time>2022-08-06T15:51:03.000Z</time>
      </trkpt>
      <trkpt lat="45.84096" lon="4.69488">
        <ele>275.02484</ele>
        <time>2022-08-06T15:51:04.000Z</time>
      </trkpt>
      <trkpt lat="45.84093" lon="4.69488">
        <ele>275.22702</ele>
        <time>2022-08-06T15:51:05.000Z</time>
      </trkpt>
      <trkpt lat="45.8409" lon="4.69489">
        <ele>275.41238</ele>
        <time>2022-08-06T15:51:06.000Z</time>
      </trkpt>
      <trkpt lat="45.84087" lon="4.69488">
        <ele>275.56134</ele>
        <time>2022-08-06T15:51:07.000Z</time>
      </trkpt>
      <trkpt lat="45.84085" lon="4.69488">
        <ele>275.75964</ele>
        <time>2022-08-06T15:51:08.000Z</time>
      </trkpt>
      <trkpt lat="45.84082" lon="4.69487">
        <ele>275.90884</ele>
        <time>2022-08-06T15:51:09.000Z</time>
      </trkpt>
      <trkpt lat="45.84079" lon="4.69486">
        <ele>276.12195</ele>
        <time>2022-08-06T15:51:10.000Z</time>
      </trkpt>
      <trkpt lat="45.84075" lon="4.69485">
        <ele>276.35101</ele>
        <time>2022-08-06T15:51:12.000Z</time>
      </trkpt>
      <trkpt lat="45.84073" lon="4.69486">
        <ele>276.60577</ele>
        <time>2022-08-06T15:51:13.000Z</time>
      </trkpt>
      <trkpt lat="45.84071" lon="4.69486">
        <ele>276.93762</ele>
        <time>2022-08-06T15:51:14.000Z</time>
      </trkpt>
      <trkpt lat="45.84068" lon="4.69487">
        <ele>277.30606</ele>
        <time>2022-08-06T15:51:15.000Z</time>
      </trkpt>
      <trkpt lat="45.84064" lon="4.69487">
        <ele>277.68335</ele>
        <time>2022-08-06T15:51:16.000Z</time>
      </trkpt>
      <trkpt lat="45.84061" lon="4.69486">
        <ele>277.97559</ele>
        <time>2022-08-06T15:51:17.000Z</time>
      </trkpt>
      <trkpt lat="45.84057" lon="4.69486">
        <ele>278.2652</ele>
        <time>2022-08-06T15:51:18.000Z</time>
      </trkpt>
      <trkpt lat="45.84054" lon="4.69486">
        <ele>278.5509</ele>
        <time>2022-08-06T15:51:19.000Z</time>
      </trkpt>
      <trkpt lat="45.8405" lon="4.69487">
        <ele>278.80731</ele>
        <time>2022-08-06T15:51:20.000Z</time>
      </trkpt>
      <trkpt lat="45.84046" lon="4.69488">
        <ele>279.01422</ele>
        <time>2022-08-06T15:51:21.000Z</time>
      </trkpt>
      <trkpt lat="45.84042" lon="4.6949">
        <ele>279.11249</ele>
        <time>2022-08-06T15:51:22.000Z</time>
      </trkpt>
      <trkpt lat="45.84038" lon="4.69491">
        <ele>279.24307</ele>
        <time>2022-08-06T15:51:23.000Z</time>
      </trkpt>
      <trkpt lat="45.84032" lon="4.69493">
        <ele>279.40329</ele>
        <time>2022-08-06T15:51:24.000Z</time>
      </trkpt>
      <trkpt lat="45.84028" lon="4.69497">
        <ele>279.60883</ele>
        <time>2022-08-06T15:51:25.000Z</time>
      </trkpt>
      <trkpt lat="45.84023" lon="4.695">
        <ele>279.7735</ele>
        <time>2022-08-06T15:51:26.000Z</time>
      </trkpt>
      <trkpt lat="45.84019" lon="4.69501">
        <ele>279.89386</ele>
        <time>2022-08-06T15:51:27.000Z</time>
      </trkpt>
      <trkpt lat="45.84014" lon="4.69501">
        <ele>280.03232</ele>
        <time>2022-08-06T15:51:28.000Z</time>
      </trkpt>
      <trkpt lat="45.84009" lon="4.69503">
        <ele>280.06366</ele>
        <time>2022-08-06T15:51:29.000Z</time>
      </trkpt>
      <trkpt lat="45.84002" lon="4.69505">
        <ele>280.20465</ele>
        <time>2022-08-06T15:51:30.000Z</time>
      </trkpt>
      <trkpt lat="45.83999" lon="4.6951">
        <ele>280.30304</ele>
        <time>2022-08-06T15:51:31.000Z</time>
      </trkpt>
      <trkpt lat="45.83992" lon="4.6951">
        <ele>280.41312</ele>
        <time>2022-08-06T15:51:32.000Z</time>
      </trkpt>
      <trkpt lat="45.83988" lon="4.69514">
        <ele>280.56564</ele>
        <time>2022-08-06T15:51:33.000Z</time>
      </trkpt>
      <trkpt lat="45.83982" lon="4.69518">
        <ele>280.62836</ele>
        <time>2022-08-06T15:51:34.000Z</time>
      </trkpt>
      <trkpt lat="45.83977" lon="4.69522">
        <ele>280.68903</ele>
        <time>2022-08-06T15:51:35.000Z</time>
      </trkpt>
      <trkpt lat="45.83973" lon="4.69526">
        <ele>280.76694</ele>
        <time>2022-08-06T15:51:36.000Z</time>
      </trkpt>
      <trkpt lat="45.83969" lon="4.69531">
        <ele>280.79956</ele>
        <time>2022-08-06T15:51:37.000Z</time>
      </trkpt>
      <trkpt lat="45.83966" lon="4.69535">
        <ele>280.79718</ele>
        <time>2022-08-06T15:51:38.000Z</time>
      </trkpt>
      <trkpt lat="45.83961" lon="4.69538">
        <ele>280.76163</ele>
        <time>2022-08-06T15:51:39.000Z</time>
      </trkpt>
      <trkpt lat="45.83955" lon="4.6954">
        <ele>280.67834</ele>
        <time>2022-08-06T15:51:40.000Z</time>
      </trkpt>
      <trkpt lat="45.83949" lon="4.69543">
        <ele>280.50043</ele>
        <time>2022-08-06T15:51:41.000Z</time>
      </trkpt>
      <trkpt lat="45.83946" lon="4.69545">
        <ele>280.31671</ele>
        <time>2022-08-06T15:51:42.000Z</time>
      </trkpt>
      <trkpt lat="45.83941" lon="4.69549">
        <ele>280.11307</ele>
        <time>2022-08-06T15:51:43.000Z</time>
      </trkpt>
      <trkpt lat="45.83937" lon="4.69547">
        <ele>279.96735</ele>
        <time>2022-08-06T15:51:44.000Z</time>
      </trkpt>
      <trkpt lat="45.83933" lon="4.69549">
        <ele>279.8089</ele>
        <time>2022-08-06T15:51:45.000Z</time>
      </trkpt>
      <trkpt lat="45.83929" lon="4.69551">
        <ele>279.74603</ele>
        <time>2022-08-06T15:51:46.000Z</time>
      </trkpt>
      <trkpt lat="45.83926" lon="4.69553">
        <ele>279.70651</ele>
        <time>2022-08-06T15:51:47.000Z</time>
      </trkpt>
      <trkpt lat="45.83921" lon="4.69554">
        <ele>279.71094</ele>
        <time>2022-08-06T15:51:48.000Z</time>
      </trkpt>
      <trkpt lat="45.83917" lon="4.69558">
        <ele>279.74103</ele>
        <time>2022-08-06T15:51:49.000Z</time>
      </trkpt>
      <trkpt lat="45.83914" lon="4.69561">
        <ele>279.67606</ele>
        <time>2022-08-06T15:51:50.000Z</time>
      </trkpt>
      <trkpt lat="45.8391" lon="4.69565">
        <ele>279.55585</ele>
        <time>2022-08-06T15:51:51.000Z</time>
      </trkpt>
      <trkpt lat="45.83905" lon="4.69567">
        <ele>279.2821</ele>
        <time>2022-08-06T15:51:52.000Z</time>
      </trkpt>
      <trkpt lat="45.83902" lon="4.69569">
        <ele>278.94543</ele>
        <time>2022-08-06T15:51:53.000Z</time>
      </trkpt>
      <trkpt lat="45.83899" lon="4.69571">
        <ele>278.5788</ele>
        <time>2022-08-06T15:51:54.000Z</time>
      </trkpt>
      <trkpt lat="45.83895" lon="4.69574">
        <ele>278.22137</ele>
        <time>2022-08-06T15:51:55.000Z</time>
      </trkpt>
      <trkpt lat="45.83892" lon="4.69577">
        <ele>277.86002</ele>
        <time>2022-08-06T15:51:56.000Z</time>
      </trkpt>
      <trkpt lat="45.83888" lon="4.6958">
        <ele>277.63092</ele>
        <time>2022-08-06T15:51:57.000Z</time>
      </trkpt>
      <trkpt lat="45.83883" lon="4.69582">
        <ele>277.45465</ele>
        <time>2022-08-06T15:51:58.000Z</time>
      </trkpt>
      <trkpt lat="45.83879" lon="4.69584">
        <ele>277.3204</ele>
        <time>2022-08-06T15:51:59.000Z</time>
      </trkpt>
      <trkpt lat="45.83875" lon="4.69586">
        <ele>277.20938</ele>
        <time>2022-08-06T15:52:00.000Z</time>
      </trkpt>
      <trkpt lat="45.83871" lon="4.69588">
        <ele>277.112</ele>
        <time>2022-08-06T15:52:01.000Z</time>
      </trkpt>
      <trkpt lat="45.83867" lon="4.6959">
        <ele>277.03839</ele>
        <time>2022-08-06T15:52:02.000Z</time>
      </trkpt>
      <trkpt lat="45.83863" lon="4.69591">
        <ele>276.90118</ele>
        <time>2022-08-06T15:52:03.000Z</time>
      </trkpt>
      <trkpt lat="45.83858" lon="4.69593">
        <ele>276.66504</ele>
        <time>2022-08-06T15:52:04.000Z</time>
      </trkpt>
      <trkpt lat="45.83854" lon="4.69594">
        <ele>276.44467</ele>
        <time>2022-08-06T15:52:05.000Z</time>
      </trkpt>
      <trkpt lat="45.8385" lon="4.69596">
        <ele>276.17459</ele>
        <time>2022-08-06T15:52:06.000Z</time>
      </trkpt>
      <trkpt lat="45.83846" lon="4.69598">
        <ele>275.84296</ele>
        <time>2022-08-06T15:52:07.000Z</time>
      </trkpt>
      <trkpt lat="45.83842" lon="4.696">
        <ele>275.53604</ele>
        <time>2022-08-06T15:52:08.000Z</time>
      </trkpt>
      <trkpt lat="45.83839" lon="4.69602">
        <ele>275.24442</ele>
        <time>2022-08-06T15:52:09.000Z</time>
      </trkpt>
      <trkpt lat="45.83836" lon="4.69604">
        <ele>274.97198</ele>
        <time>2022-08-06T15:52:10.000Z</time>
      </trkpt>
      <trkpt lat="45.83832" lon="4.69605">
        <ele>274.78986</ele>
        <time>2022-08-06T15:52:11.000Z</time>
      </trkpt>
      <trkpt lat="45.83828" lon="4.69607">
        <ele>274.72839</ele>
        <time>2022-08-06T15:52:12.000Z</time>
      </trkpt>
      <trkpt lat="45.83824" lon="4.69609">
        <ele>274.74329</ele>
        <time>2022-08-06T15:52:13.000Z</time>
      </trkpt>
      <trkpt lat="45.8382" lon="4.69611">
        <ele>274.82483</ele>
        <time>2022-08-06T15:52:14.000Z</time>
      </trkpt>
      <trkpt lat="45.83816" lon="4.69613">
        <ele>274.90128</ele>
        <time>2022-08-06T15:52:15.000Z</time>
      </trkpt>
      <trkpt lat="45.8381" lon="4.69616">
        <ele>274.97284</ele>
        <time>2022-08-06T15:52:17.000Z</time>
      </trkpt>
      <trkpt lat="45.83807" lon="4.69618">
        <ele>274.97</ele>
        <time>2022-08-06T15:52:18.000Z</time>
      </trkpt>
      <trkpt lat="45.83803" lon="4.6962">
        <ele>274.97516</ele>
        <time>2022-08-06T15:52:19.000Z</time>
      </trkpt>
      <trkpt lat="45.838" lon="4.69622">
        <ele>275.0256</ele>
        <time>2022-08-06T15:52:20.000Z</time>
      </trkpt>
      <trkpt lat="45.83796" lon="4.69623">
        <ele>275.09259</ele>
        <time>2022-08-06T15:52:21.000Z</time>
      </trkpt>
      <trkpt lat="45.83792" lon="4.69625">
        <ele>275.19977</ele>
        <time>2022-08-06T15:52:22.000Z</time>
      </trkpt>
      <trkpt lat="45.83788" lon="4.69627">
        <ele>275.28949</ele>
        <time>2022-08-06T15:52:23.000Z</time>
      </trkpt>
      <trkpt lat="45.83785" lon="4.69629">
        <ele>275.49472</ele>
        <time>2022-08-06T15:52:24.000Z</time>
      </trkpt>
      <trkpt lat="45.83782" lon="4.69631">
        <ele>275.71185</ele>
        <time>2022-08-06T15:52:25.000Z</time>
      </trkpt>
      <trkpt lat="45.83779" lon="4.69634">
        <ele>275.95517</ele>
        <time>2022-08-06T15:52:26.000Z</time>
      </trkpt>
      <trkpt lat="45.83776" lon="4.69636">
        <ele>276.21677</ele>
        <time>2022-08-06T15:52:27.000Z</time>
      </trkpt>
      <trkpt lat="45.83772" lon="4.69638">
        <ele>276.51688</ele>
        <time>2022-08-06T15:52:28.000Z</time>
      </trkpt>
      <trkpt lat="45.83769" lon="4.69641">
        <ele>276.7569</ele>
        <time>2022-08-06T15:52:29.000Z</time>
      </trkpt>
      <trkpt lat="45.83767" lon="4.69643">
        <ele>277.02271</ele>
        <time>2022-08-06T15:52:30.000Z</time>
      </trkpt>
      <trkpt lat="45.83764" lon="4.69645">
        <ele>277.27899</ele>
        <time>2022-08-06T15:52:31.000Z</time>
      </trkpt>
      <trkpt lat="45.83762" lon="4.69646">
        <ele>277.53284</ele>
        <time>2022-08-06T15:52:32.000Z</time>
      </trkpt>
      <trkpt lat="45.8376" lon="4.69647">
        <ele>277.83923</ele>
        <time>2022-08-06T15:52:33.000Z</time>
      </trkpt>
      <trkpt lat="45.83758" lon="4.69649">
        <ele>278.13733</ele>
        <time>2022-08-06T15:52:34.000Z</time>
      </trkpt>
      <trkpt lat="45.83755" lon="4.69652">
        <ele>278.3974</ele>
        <time>2022-08-06T15:52:35.000Z</time>
      </trkpt>
      <trkpt lat="45.83752" lon="4.69655">
        <ele>278.64911</ele>
        <time>2022-08-06T15:52:36.000Z</time>
      </trkpt>
      <trkpt lat="45.83748" lon="4.69658">
        <ele>278.88611</ele>
        <time>2022-08-06T15:52:37.000Z</time>
      </trkpt>
      <trkpt lat="45.83744" lon="4.6966">
        <ele>279.1778</ele>
        <time>2022-08-06T15:52:38.000Z</time>
      </trkpt>
      <trkpt lat="45.83741" lon="4.69663">
        <ele>279.43515</ele>
        <time>2022-08-06T15:52:39.000Z</time>
      </trkpt>
      <trkpt lat="45.83737" lon="4.69665">
        <ele>279.65762</ele>
        <time>2022-08-06T15:52:40.000Z</time>
      </trkpt>
      <trkpt lat="45.83734" lon="4.69667">
        <ele>279.87784</ele>
        <time>2022-08-06T15:52:41.000Z</time>
      </trkpt>
      <trkpt lat="45.8373" lon="4.69669">
        <ele>280.06058</ele>
        <time>2022-08-06T15:52:42.000Z</time>
      </trkpt>
      <trkpt lat="45.83727" lon="4.69671">
        <ele>280.27841</ele>
        <time>2022-08-06T15:52:43.000Z</time>
      </trkpt>
      <trkpt lat="45.83724" lon="4.69673">
        <ele>280.42917</ele>
        <time>2022-08-06T15:52:44.000Z</time>
      </trkpt>
      <trkpt lat="45.8372" lon="4.69675">
        <ele>280.616</ele>
        <time>2022-08-06T15:52:45.000Z</time>
      </trkpt>
      <trkpt lat="45.83717" lon="4.69677">
        <ele>280.80157</ele>
        <time>2022-08-06T15:52:46.000Z</time>
      </trkpt>
      <trkpt lat="45.83714" lon="4.69679">
        <ele>281.00354</ele>
        <time>2022-08-06T15:52:47.000Z</time>
      </trkpt>
      <trkpt lat="45.8371" lon="4.6968">
        <ele>281.29498</ele>
        <time>2022-08-06T15:52:48.000Z</time>
      </trkpt>
      <trkpt lat="45.83708" lon="4.69682">
        <ele>281.62592</ele>
        <time>2022-08-06T15:52:49.000Z</time>
      </trkpt>
      <trkpt lat="45.83705" lon="4.69684">
        <ele>282.01672</ele>
        <time>2022-08-06T15:52:50.000Z</time>
      </trkpt>
      <trkpt lat="45.83703" lon="4.69686">
        <ele>282.43369</ele>
        <time>2022-08-06T15:52:51.000Z</time>
      </trkpt>
      <trkpt lat="45.83702" lon="4.69689">
        <ele>282.76422</ele>
        <time>2022-08-06T15:52:52.000Z</time>
      </trkpt>
      <trkpt lat="45.837" lon="4.69692">
        <ele>283.04144</ele>
        <time>2022-08-06T15:52:53.000Z</time>
      </trkpt>
      <trkpt lat="45.83699" lon="4.69696">
        <ele>283.21686</ele>
        <time>2022-08-06T15:52:54.000Z</time>
      </trkpt>
      <trkpt lat="45.83697" lon="4.69699">
        <ele>283.35297</ele>
        <time>2022-08-06T15:52:55.000Z</time>
      </trkpt>
      <trkpt lat="45.83694" lon="4.69701">
        <ele>283.44434</ele>
        <time>2022-08-06T15:52:56.000Z</time>
      </trkpt>
      <trkpt lat="45.83691" lon="4.69703">
        <ele>283.50665</ele>
        <time>2022-08-06T15:52:57.000Z</time>
      </trkpt>
      <trkpt lat="45.83688" lon="4.69704">
        <ele>283.55042</ele>
        <time>2022-08-06T15:52:58.000Z</time>
      </trkpt>
      <trkpt lat="45.83684" lon="4.69704">
        <ele>283.58438</ele>
        <time>2022-08-06T15:52:59.000Z</time>
      </trkpt>
      <trkpt lat="45.83681" lon="4.69704">
        <ele>283.62482</ele>
        <time>2022-08-06T15:53:00.000Z</time>
      </trkpt>
      <trkpt lat="45.83679" lon="4.69704">
        <ele>283.73737</ele>
        <time>2022-08-06T15:53:01.000Z</time>
      </trkpt>
      <trkpt lat="45.83676" lon="4.69704">
        <ele>283.90463</ele>
        <time>2022-08-06T15:53:02.000Z</time>
      </trkpt>
      <trkpt lat="45.83673" lon="4.69704">
        <ele>284.08524</ele>
        <time>2022-08-06T15:53:03.000Z</time>
      </trkpt>
      <trkpt lat="45.83671" lon="4.69705">
        <ele>284.3591</ele>
        <time>2022-08-06T15:53:04.000Z</time>
      </trkpt>
      <trkpt lat="45.83668" lon="4.69707">
        <ele>284.59473</ele>
        <time>2022-08-06T15:53:05.000Z</time>
      </trkpt>
      <trkpt lat="45.83666" lon="4.6971">
        <ele>284.83609</ele>
        <time>2022-08-06T15:53:06.000Z</time>
      </trkpt>
      <trkpt lat="45.83663" lon="4.69713">
        <ele>284.99298</ele>
        <time>2022-08-06T15:53:07.000Z</time>
      </trkpt>
      <trkpt lat="45.8366" lon="4.69716">
        <ele>285.05173</ele>
        <time>2022-08-06T15:53:08.000Z</time>
      </trkpt>
      <trkpt lat="45.83658" lon="4.69719">
        <ele>285.08249</ele>
        <time>2022-08-06T15:53:09.000Z</time>
      </trkpt>
      <trkpt lat="45.83655" lon="4.69722">
        <ele>284.97003</ele>
        <time>2022-08-06T15:53:10.000Z</time>
      </trkpt>
      <trkpt lat="45.83653" lon="4.69725">
        <ele>284.80811</ele>
        <time>2022-08-06T15:53:11.000Z</time>
      </trkpt>
      <trkpt lat="45.8365" lon="4.69727">
        <ele>284.74008</ele>
        <time>2022-08-06T15:53:12.000Z</time>
      </trkpt>
      <trkpt lat="45.83648" lon="4.6973">
        <ele>284.75745</ele>
        <time>2022-08-06T15:53:13.000Z</time>
      </trkpt>
      <trkpt lat="45.83645" lon="4.69731">
        <ele>284.83209</ele>
        <time>2022-08-06T15:53:14.000Z</time>
      </trkpt>
      <trkpt lat="45.83643" lon="4.69733">
        <ele>284.96246</ele>
        <time>2022-08-06T15:53:15.000Z</time>
      </trkpt>
      <trkpt lat="45.8364" lon="4.69735">
        <ele>285.15302</ele>
        <time>2022-08-06T15:53:16.000Z</time>
      </trkpt>
      <trkpt lat="45.83637" lon="4.69737">
        <ele>285.3927</ele>
        <time>2022-08-06T15:53:17.000Z</time>
      </trkpt>
      <trkpt lat="45.83635" lon="4.69738">
        <ele>285.69296</ele>
        <time>2022-08-06T15:53:18.000Z</time>
      </trkpt>
      <trkpt lat="45.83633" lon="4.69739">
        <ele>285.99509</ele>
        <time>2022-08-06T15:53:19.000Z</time>
      </trkpt>
      <trkpt lat="45.8363" lon="4.69741">
        <ele>286.2319</ele>
        <time>2022-08-06T15:53:20.000Z</time>
      </trkpt>
      <trkpt lat="45.83628" lon="4.69743">
        <ele>286.42371</ele>
        <time>2022-08-06T15:53:21.000Z</time>
      </trkpt>
      <trkpt lat="45.83626" lon="4.69744">
        <ele>286.59601</ele>
        <time>2022-08-06T15:53:22.000Z</time>
      </trkpt>
      <trkpt lat="45.83623" lon="4.69745">
        <ele>286.71759</ele>
        <time>2022-08-06T15:53:23.000Z</time>
      </trkpt>
      <trkpt lat="45.83621" lon="4.69746">
        <ele>286.82339</ele>
        <time>2022-08-06T15:53:24.000Z</time>
      </trkpt>
      <trkpt lat="45.83619" lon="4.69748">
        <ele>286.92206</ele>
        <time>2022-08-06T15:53:25.000Z</time>
      </trkpt>
      <trkpt lat="45.83617" lon="4.69749">
        <ele>287.11829</ele>
        <time>2022-08-06T15:53:26.000Z</time>
      </trkpt>
      <trkpt lat="45.83614" lon="4.69751">
        <ele>287.4389</ele>
        <time>2022-08-06T15:53:27.000Z</time>
      </trkpt>
      <trkpt lat="45.83612" lon="4.69753">
        <ele>287.7796</ele>
        <time>2022-08-06T15:53:28.000Z</time>
      </trkpt>
      <trkpt lat="45.8361" lon="4.69755">
        <ele>288.05072</ele>
        <time>2022-08-06T15:53:29.000Z</time>
      </trkpt>
      <trkpt lat="45.83607" lon="4.69757">
        <ele>288.37601</ele>
        <time>2022-08-06T15:53:30.000Z</time>
      </trkpt>
      <trkpt lat="45.83604" lon="4.69759">
        <ele>288.70935</ele>
        <time>2022-08-06T15:53:31.000Z</time>
      </trkpt>
      <trkpt lat="45.83601" lon="4.69762">
        <ele>288.95871</ele>
        <time>2022-08-06T15:53:32.000Z</time>
      </trkpt>
      <trkpt lat="45.83599" lon="4.69764">
        <ele>289.08185</ele>
        <time>2022-08-06T15:53:33.000Z</time>
      </trkpt>
      <trkpt lat="45.83596" lon="4.69765">
        <ele>289.15897</ele>
        <time>2022-08-06T15:53:34.000Z</time>
      </trkpt>
      <trkpt lat="45.83594" lon="4.69767">
        <ele>289.25815</ele>
        <time>2022-08-06T15:53:35.000Z</time>
      </trkpt>
      <trkpt lat="45.83591" lon="4.6977">
        <ele>289.34903</ele>
        <time>2022-08-06T15:53:36.000Z</time>
      </trkpt>
      <trkpt lat="45.83588" lon="4.69772">
        <ele>289.3855</ele>
        <time>2022-08-06T15:53:37.000Z</time>
      </trkpt>
      <trkpt lat="45.83586" lon="4.69775">
        <ele>289.41046</ele>
        <time>2022-08-06T15:53:38.000Z</time>
      </trkpt>
      <trkpt lat="45.83583" lon="4.69777">
        <ele>289.46606</ele>
        <time>2022-08-06T15:53:39.000Z</time>
      </trkpt>
      <trkpt lat="45.8358" lon="4.69779">
        <ele>289.52927</ele>
        <time>2022-08-06T15:53:40.000Z</time>
      </trkpt>
      <trkpt lat="45.83578" lon="4.69781">
        <ele>289.59317</ele>
        <time>2022-08-06T15:53:41.000Z</time>
      </trkpt>
      <trkpt lat="45.83575" lon="4.69783">
        <ele>289.69467</ele>
        <time>2022-08-06T15:53:42.000Z</time>
      </trkpt>
      <trkpt lat="45.83573" lon="4.69785">
        <ele>289.82333</ele>
        <time>2022-08-06T15:53:43.000Z</time>
      </trkpt>
      <trkpt lat="45.83571" lon="4.69786">
        <ele>289.9104</ele>
        <time>2022-08-06T15:53:44.000Z</time>
      </trkpt>
      <trkpt lat="45.83569" lon="4.69788">
        <ele>289.98837</ele>
        <time>2022-08-06T15:53:45.000Z</time>
      </trkpt>
      <trkpt lat="45.83567" lon="4.69791">
        <ele>289.94513</ele>
        <time>2022-08-06T15:53:46.000Z</time>
      </trkpt>
      <trkpt lat="45.83564" lon="4.69794">
        <ele>289.88055</ele>
        <time>2022-08-06T15:53:47.000Z</time>
      </trkpt>
      <trkpt lat="45.8356" lon="4.69797">
        <ele>289.77704</ele>
        <time>2022-08-06T15:53:48.000Z</time>
      </trkpt>
      <trkpt lat="45.83557" lon="4.698">
        <ele>289.73349</ele>
        <time>2022-08-06T15:53:49.000Z</time>
      </trkpt>
      <trkpt lat="45.83554" lon="4.69802">
        <ele>289.66534</ele>
        <time>2022-08-06T15:53:50.000Z</time>
      </trkpt>
      <trkpt lat="45.83551" lon="4.69804">
        <ele>289.64313</ele>
        <time>2022-08-06T15:53:51.000Z</time>
      </trkpt>
      <trkpt lat="45.83549" lon="4.69805">
        <ele>289.68024</ele>
        <time>2022-08-06T15:53:52.000Z</time>
      </trkpt>
      <trkpt lat="45.83546" lon="4.69807">
        <ele>289.70691</ele>
        <time>2022-08-06T15:53:53.000Z</time>
      </trkpt>
      <trkpt lat="45.83543" lon="4.69809">
        <ele>289.81055</ele>
        <time>2022-08-06T15:53:54.000Z</time>
      </trkpt>
      <trkpt lat="45.83541" lon="4.6981">
        <ele>289.88043</ele>
        <time>2022-08-06T15:53:55.000Z</time>
      </trkpt>
      <trkpt lat="45.83538" lon="4.69812">
        <ele>289.98221</ele>
        <time>2022-08-06T15:53:56.000Z</time>
      </trkpt>
      <trkpt lat="45.83535" lon="4.69813">
        <ele>290.08777</ele>
        <time>2022-08-06T15:53:57.000Z</time>
      </trkpt>
      <trkpt lat="45.83532" lon="4.69814">
        <ele>290.15536</ele>
        <time>2022-08-06T15:53:58.000Z</time>
      </trkpt>
      <trkpt lat="45.8353" lon="4.69814">
        <ele>290.18811</ele>
        <time>2022-08-06T15:53:59.000Z</time>
      </trkpt>
      <trkpt lat="45.83528" lon="4.69815">
        <ele>290.25995</ele>
        <time>2022-08-06T15:54:00.000Z</time>
      </trkpt>
      <trkpt lat="45.83525" lon="4.69817">
        <ele>290.29083</ele>
        <time>2022-08-06T15:54:01.000Z</time>
      </trkpt>
      <trkpt lat="45.83523" lon="4.69819">
        <ele>290.24396</ele>
        <time>2022-08-06T15:54:02.000Z</time>
      </trkpt>
      <trkpt lat="45.83521" lon="4.69821">
        <ele>290.20496</ele>
        <time>2022-08-06T15:54:03.000Z</time>
      </trkpt>
      <trkpt lat="45.83519" lon="4.69823">
        <ele>290.15231</ele>
        <time>2022-08-06T15:54:04.000Z</time>
      </trkpt>
      <trkpt lat="45.83517" lon="4.69824">
        <ele>290.14377</ele>
        <time>2022-08-06T15:54:05.000Z</time>
      </trkpt>
      <trkpt lat="45.83514" lon="4.69826">
        <ele>290.19376</ele>
        <time>2022-08-06T15:54:06.000Z</time>
      </trkpt>
      <trkpt lat="45.8351" lon="4.69828">
        <ele>290.13599</ele>
        <time>2022-08-06T15:54:07.000Z</time>
      </trkpt>
      <trkpt lat="45.83505" lon="4.69832">
        <ele>290.09753</ele>
        <time>2022-08-06T15:54:09.000Z</time>
      </trkpt>
      <trkpt lat="45.83502" lon="4.69834">
        <ele>290.06479</ele>
        <time>2022-08-06T15:54:10.000Z</time>
      </trkpt>
      <trkpt lat="45.83499" lon="4.69835">
        <ele>290.08813</ele>
        <time>2022-08-06T15:54:11.000Z</time>
      </trkpt>
      <trkpt lat="45.83496" lon="4.69837">
        <ele>290.09366</ele>
        <time>2022-08-06T15:54:12.000Z</time>
      </trkpt>
      <trkpt lat="45.83492" lon="4.69839">
        <ele>290.20331</ele>
        <time>2022-08-06T15:54:13.000Z</time>
      </trkpt>
      <trkpt lat="45.83488" lon="4.6984">
        <ele>290.38062</ele>
        <time>2022-08-06T15:54:14.000Z</time>
      </trkpt>
      <trkpt lat="45.83485" lon="4.69841">
        <ele>290.48441</ele>
        <time>2022-08-06T15:54:15.000Z</time>
      </trkpt>
      <trkpt lat="45.83482" lon="4.69842">
        <ele>290.60794</ele>
        <time>2022-08-06T15:54:16.000Z</time>
      </trkpt>
      <trkpt lat="45.83479" lon="4.69844">
        <ele>290.63919</ele>
        <time>2022-08-06T15:54:17.000Z</time>
      </trkpt>
      <trkpt lat="45.83475" lon="4.69846">
        <ele>290.70761</ele>
        <time>2022-08-06T15:54:18.000Z</time>
      </trkpt>
      <trkpt lat="45.83472" lon="4.69848">
        <ele>290.83688</ele>
        <time>2022-08-06T15:54:19.000Z</time>
      </trkpt>
      <trkpt lat="45.8347" lon="4.6985">
        <ele>291.09653</ele>
        <time>2022-08-06T15:54:20.000Z</time>
      </trkpt>
      <trkpt lat="45.83468" lon="4.69851">
        <ele>291.37039</ele>
        <time>2022-08-06T15:54:21.000Z</time>
      </trkpt>
      <trkpt lat="45.83467" lon="4.69852">
        <ele>291.66071</ele>
        <time>2022-08-06T15:54:22.000Z</time>
      </trkpt>
      <trkpt lat="45.83465" lon="4.69854">
        <ele>291.94592</ele>
        <time>2022-08-06T15:54:23.000Z</time>
      </trkpt>
      <trkpt lat="45.83463" lon="4.69855">
        <ele>292.13199</ele>
        <time>2022-08-06T15:54:24.000Z</time>
      </trkpt>
      <trkpt lat="45.83461" lon="4.69857">
        <ele>292.42596</ele>
        <time>2022-08-06T15:54:25.000Z</time>
      </trkpt>
      <trkpt lat="45.83458" lon="4.6986">
        <ele>292.77731</ele>
        <time>2022-08-06T15:54:27.000Z</time>
      </trkpt>
      <trkpt lat="45.83457" lon="4.69861">
        <ele>293.06253</ele>
        <time>2022-08-06T15:54:28.000Z</time>
      </trkpt>
      <trkpt lat="45.83455" lon="4.69863">
        <ele>293.36441</ele>
        <time>2022-08-06T15:54:29.000Z</time>
      </trkpt>
      <trkpt lat="45.83453" lon="4.69865">
        <ele>293.63196</ele>
        <time>2022-08-06T15:54:30.000Z</time>
      </trkpt>
      <trkpt lat="45.83452" lon="4.69867">
        <ele>293.95236</ele>
        <time>2022-08-06T15:54:31.000Z</time>
      </trkpt>
      <trkpt lat="45.8345" lon="4.69869">
        <ele>294.23129</ele>
        <time>2022-08-06T15:54:32.000Z</time>
      </trkpt>
      <trkpt lat="45.83448" lon="4.69873">
        <ele>294.53302</ele>
        <time>2022-08-06T15:54:34.000Z</time>
      </trkpt>
      <trkpt lat="45.83447" lon="4.69876">
        <ele>294.77481</ele>
        <time>2022-08-06T15:54:35.000Z</time>
      </trkpt>
      <trkpt lat="45.83445" lon="4.69879">
        <ele>295.00156</ele>
        <time>2022-08-06T15:54:36.000Z</time>
      </trkpt>
      <trkpt lat="45.83444" lon="4.69881">
        <ele>295.28156</ele>
        <time>2022-08-06T15:54:37.000Z</time>
      </trkpt>
      <trkpt lat="45.83442" lon="4.69883">
        <ele>295.50372</ele>
        <time>2022-08-06T15:54:38.000Z</time>
      </trkpt>
      <trkpt lat="45.83441" lon="4.69886">
        <ele>295.73724</ele>
        <time>2022-08-06T15:54:39.000Z</time>
      </trkpt>
      <trkpt lat="45.83438" lon="4.69888">
        <ele>295.96143</ele>
        <time>2022-08-06T15:54:40.000Z</time>
      </trkpt>
      <trkpt lat="45.83435" lon="4.69892">
        <ele>296.1337</ele>
        <time>2022-08-06T15:54:41.000Z</time>
      </trkpt>
      <trkpt lat="45.83433" lon="4.69894">
        <ele>296.19882</ele>
        <time>2022-08-06T15:54:42.000Z</time>
      </trkpt>
      <trkpt lat="45.83431" lon="4.69897">
        <ele>296.21729</ele>
        <time>2022-08-06T15:54:43.000Z</time>
      </trkpt>
      <trkpt lat="45.8343" lon="4.69899">
        <ele>296.20612</ele>
        <time>2022-08-06T15:54:44.000Z</time>
      </trkpt>
      <trkpt lat="45.83428" lon="4.69901">
        <ele>296.18942</ele>
        <time>2022-08-06T15:54:45.000Z</time>
      </trkpt>
      <trkpt lat="45.83425" lon="4.69904">
        <ele>296.18515</ele>
        <time>2022-08-06T15:54:46.000Z</time>
      </trkpt>
      <trkpt lat="45.83423" lon="4.69907">
        <ele>296.11444</ele>
        <time>2022-08-06T15:54:47.000Z</time>
      </trkpt>
      <trkpt lat="45.8342" lon="4.6991">
        <ele>295.9455</ele>
        <time>2022-08-06T15:54:48.000Z</time>
      </trkpt>
      <trkpt lat="45.83418" lon="4.69912">
        <ele>295.78033</ele>
        <time>2022-08-06T15:54:49.000Z</time>
      </trkpt>
      <trkpt lat="45.83417" lon="4.69914">
        <ele>295.62006</ele>
        <time>2022-08-06T15:54:50.000Z</time>
      </trkpt>
      <trkpt lat="45.83415" lon="4.69917">
        <ele>295.50208</ele>
        <time>2022-08-06T15:54:51.000Z</time>
      </trkpt>
      <trkpt lat="45.83413" lon="4.6992">
        <ele>295.36713</ele>
        <time>2022-08-06T15:54:52.000Z</time>
      </trkpt>
      <trkpt lat="45.83412" lon="4.69923">
        <ele>295.34747</ele>
        <time>2022-08-06T15:54:53.000Z</time>
      </trkpt>
      <trkpt lat="45.83411" lon="4.69928">
        <ele>295.27737</ele>
        <time>2022-08-06T15:54:54.000Z</time>
      </trkpt>
      <trkpt lat="45.8341" lon="4.69932">
        <ele>295.2265</ele>
        <time>2022-08-06T15:54:55.000Z</time>
      </trkpt>
      <trkpt lat="45.83409" lon="4.69935">
        <ele>295.17084</ele>
        <time>2022-08-06T15:54:56.000Z</time>
      </trkpt>
      <trkpt lat="45.83407" lon="4.69939">
        <ele>295.10651</ele>
        <time>2022-08-06T15:54:57.000Z</time>
      </trkpt>
      <trkpt lat="45.83406" lon="4.69943">
        <ele>295.08646</ele>
        <time>2022-08-06T15:54:58.000Z</time>
      </trkpt>
      <trkpt lat="45.83405" lon="4.69947">
        <ele>295.11133</ele>
        <time>2022-08-06T15:54:59.000Z</time>
      </trkpt>
      <trkpt lat="45.83403" lon="4.69952">
        <ele>295.1539</ele>
        <time>2022-08-06T15:55:00.000Z</time>
      </trkpt>
      <trkpt lat="45.83402" lon="4.69956">
        <ele>295.18744</ele>
        <time>2022-08-06T15:55:01.000Z</time>
      </trkpt>
      <trkpt lat="45.83402" lon="4.6996">
        <ele>295.21747</ele>
        <time>2022-08-06T15:55:02.000Z</time>
      </trkpt>
      <trkpt lat="45.83401" lon="4.69965">
        <ele>295.28851</ele>
        <time>2022-08-06T15:55:03.000Z</time>
      </trkpt>
      <trkpt lat="45.83401" lon="4.69969">
        <ele>295.38333</ele>
        <time>2022-08-06T15:55:04.000Z</time>
      </trkpt>
      <trkpt lat="45.83401" lon="4.69974">
        <ele>295.5033</ele>
        <time>2022-08-06T15:55:05.000Z</time>
      </trkpt>
      <trkpt lat="45.83401" lon="4.69979">
        <ele>295.69852</ele>
        <time>2022-08-06T15:55:06.000Z</time>
      </trkpt>
      <trkpt lat="45.83401" lon="4.69983">
        <ele>295.80981</ele>
        <time>2022-08-06T15:55:07.000Z</time>
      </trkpt>
      <trkpt lat="45.834" lon="4.69988">
        <ele>295.90567</ele>
        <time>2022-08-06T15:55:08.000Z</time>
      </trkpt>
      <trkpt lat="45.834" lon="4.69992">
        <ele>296.01871</ele>
        <time>2022-08-06T15:55:09.000Z</time>
      </trkpt>
      <trkpt lat="45.834" lon="4.69996">
        <ele>296.18796</ele>
        <time>2022-08-06T15:55:10.000Z</time>
      </trkpt>
      <trkpt lat="45.834" lon="4.70001">
        <ele>296.3808</ele>
        <time>2022-08-06T15:55:11.000Z</time>
      </trkpt>
      <trkpt lat="45.83401" lon="4.70005">
        <ele>296.57941</ele>
        <time>2022-08-06T15:55:12.000Z</time>
      </trkpt>
      <trkpt lat="45.83402" lon="4.70009">
        <ele>296.71198</ele>
        <time>2022-08-06T15:55:13.000Z</time>
      </trkpt>
      <trkpt lat="45.83402" lon="4.70012">
        <ele>296.88867</ele>
        <time>2022-08-06T15:55:14.000Z</time>
      </trkpt>
      <trkpt lat="45.83402" lon="4.70015">
        <ele>297.02594</ele>
        <time>2022-08-06T15:55:15.000Z</time>
      </trkpt>
      <trkpt lat="45.83401" lon="4.70018">
        <ele>297.11301</ele>
        <time>2022-08-06T15:55:16.000Z</time>
      </trkpt>
      <trkpt lat="45.83401" lon="4.70022">
        <ele>297.26263</ele>
        <time>2022-08-06T15:55:17.000Z</time>
      </trkpt>
      <trkpt lat="45.834" lon="4.70026">
        <ele>297.47577</ele>
        <time>2022-08-06T15:55:18.000Z</time>
      </trkpt>
      <trkpt lat="45.83399" lon="4.7003">
        <ele>297.65704</ele>
        <time>2022-08-06T15:55:19.000Z</time>
      </trkpt>
      <trkpt lat="45.83398" lon="4.70034">
        <ele>297.77328</ele>
        <time>2022-08-06T15:55:20.000Z</time>
      </trkpt>
      <trkpt lat="45.83397" lon="4.70038">
        <ele>297.8775</ele>
        <time>2022-08-06T15:55:21.000Z</time>
      </trkpt>
      <trkpt lat="45.83397" lon="4.70042">
        <ele>297.94525</ele>
        <time>2022-08-06T15:55:22.000Z</time>
      </trkpt>
      <trkpt lat="45.83397" lon="4.70046">
        <ele>297.98361</ele>
        <time>2022-08-06T15:55:23.000Z</time>
      </trkpt>
      <trkpt lat="45.83397" lon="4.7005">
        <ele>298.07959</ele>
        <time>2022-08-06T15:55:24.000Z</time>
      </trkpt>
      <trkpt lat="45.83397" lon="4.70054">
        <ele>298.15259</ele>
        <time>2022-08-06T15:55:25.000Z</time>
      </trkpt>
      <trkpt lat="45.83396" lon="4.70058">
        <ele>298.18942</ele>
        <time>2022-08-06T15:55:26.000Z</time>
      </trkpt>
      <trkpt lat="45.83395" lon="4.70062">
        <ele>298.24448</ele>
        <time>2022-08-06T15:55:27.000Z</time>
      </trkpt>
      <trkpt lat="45.83395" lon="4.70067">
        <ele>298.39948</ele>
        <time>2022-08-06T15:55:28.000Z</time>
      </trkpt>
      <trkpt lat="45.83394" lon="4.70072">
        <ele>298.61716</ele>
        <time>2022-08-06T15:55:29.000Z</time>
      </trkpt>
      <trkpt lat="45.83393" lon="4.70076">
        <ele>298.85553</ele>
        <time>2022-08-06T15:55:30.000Z</time>
      </trkpt>
      <trkpt lat="45.83392" lon="4.7008">
        <ele>299.177</ele>
        <time>2022-08-06T15:55:31.000Z</time>
      </trkpt>
      <trkpt lat="45.83391" lon="4.70085">
        <ele>299.52216</ele>
        <time>2022-08-06T15:55:32.000Z</time>
      </trkpt>
      <trkpt lat="45.83391" lon="4.7009">
        <ele>299.77322</ele>
        <time>2022-08-06T15:55:33.000Z</time>
      </trkpt>
      <trkpt lat="45.8339" lon="4.70095">
        <ele>300.06616</ele>
        <time>2022-08-06T15:55:34.000Z</time>
      </trkpt>
      <trkpt lat="45.8339" lon="4.70101">
        <ele>300.40536</ele>
        <time>2022-08-06T15:55:35.000Z</time>
      </trkpt>
      <trkpt lat="45.8339" lon="4.70107">
        <ele>300.80548</ele>
        <time>2022-08-06T15:55:36.000Z</time>
      </trkpt>
      <trkpt lat="45.83389" lon="4.70112">
        <ele>301.1843</ele>
        <time>2022-08-06T15:55:37.000Z</time>
      </trkpt>
      <trkpt lat="45.83389" lon="4.70116">
        <ele>301.53882</ele>
        <time>2022-08-06T15:55:38.000Z</time>
      </trkpt>
      <trkpt lat="45.83389" lon="4.70121">
        <ele>301.95926</ele>
        <time>2022-08-06T15:55:39.000Z</time>
      </trkpt>
      <trkpt lat="45.83388" lon="4.70125">
        <ele>302.43488</ele>
        <time>2022-08-06T15:55:40.000Z</time>
      </trkpt>
      <trkpt lat="45.83386" lon="4.7013">
        <ele>302.87369</ele>
        <time>2022-08-06T15:55:41.000Z</time>
      </trkpt>
      <trkpt lat="45.83385" lon="4.70135">
        <ele>303.44006</ele>
        <time>2022-08-06T15:55:42.000Z</time>
      </trkpt>
      <trkpt lat="45.83383" lon="4.7014">
        <ele>304.02881</ele>
        <time>2022-08-06T15:55:43.000Z</time>
      </trkpt>
      <trkpt lat="45.83382" lon="4.70145">
        <ele>304.53448</ele>
        <time>2022-08-06T15:55:44.000Z</time>
      </trkpt>
      <trkpt lat="45.83381" lon="4.70151">
        <ele>305.06647</ele>
        <time>2022-08-06T15:55:45.000Z</time>
      </trkpt>
      <trkpt lat="45.8338" lon="4.70156">
        <ele>305.5824</ele>
        <time>2022-08-06T15:55:46.000Z</time>
      </trkpt>
      <trkpt lat="45.83379" lon="4.7016">
        <ele>306.12555</ele>
        <time>2022-08-06T15:55:47.000Z</time>
      </trkpt>
      <trkpt lat="45.83377" lon="4.70165">
        <ele>306.66095</ele>
        <time>2022-08-06T15:55:48.000Z</time>
      </trkpt>
      <trkpt lat="45.83376" lon="4.7017">
        <ele>307.10342</ele>
        <time>2022-08-06T15:55:49.000Z</time>
      </trkpt>
      <trkpt lat="45.83374" lon="4.70174">
        <ele>307.49982</ele>
        <time>2022-08-06T15:55:50.000Z</time>
      </trkpt>
      <trkpt lat="45.83372" lon="4.70179">
        <ele>307.81912</ele>
        <time>2022-08-06T15:55:51.000Z</time>
      </trkpt>
      <trkpt lat="45.8337" lon="4.70183">
        <ele>308.02841</ele>
        <time>2022-08-06T15:55:52.000Z</time>
      </trkpt>
      <trkpt lat="45.83369" lon="4.70188">
        <ele>308.33218</ele>
        <time>2022-08-06T15:55:53.000Z</time>
      </trkpt>
      <trkpt lat="45.83367" lon="4.70192">
        <ele>308.49924</ele>
        <time>2022-08-06T15:55:54.000Z</time>
      </trkpt>
      <trkpt lat="45.83365" lon="4.70197">
        <ele>308.59219</ele>
        <time>2022-08-06T15:55:55.000Z</time>
      </trkpt>
      <trkpt lat="45.83363" lon="4.70202">
        <ele>308.68103</ele>
        <time>2022-08-06T15:55:56.000Z</time>
      </trkpt>
      <trkpt lat="45.83361" lon="4.70207">
        <ele>308.72198</ele>
        <time>2022-08-06T15:55:57.000Z</time>
      </trkpt>
      <trkpt lat="45.8336" lon="4.70212">
        <ele>308.65131</ele>
        <time>2022-08-06T15:55:58.000Z</time>
      </trkpt>
      <trkpt lat="45.83358" lon="4.70217">
        <ele>308.53888</ele>
        <time>2022-08-06T15:55:59.000Z</time>
      </trkpt>
      <trkpt lat="45.83356" lon="4.70223">
        <ele>308.36423</ele>
        <time>2022-08-06T15:56:00.000Z</time>
      </trkpt>
      <trkpt lat="45.83352" lon="4.70229">
        <ele>308.22501</ele>
        <time>2022-08-06T15:56:01.000Z</time>
      </trkpt>
      <trkpt lat="45.8335" lon="4.70235">
        <ele>307.95007</ele>
        <time>2022-08-06T15:56:02.000Z</time>
      </trkpt>
      <trkpt lat="45.83349" lon="4.70241">
        <ele>307.63635</ele>
        <time>2022-08-06T15:56:03.000Z</time>
      </trkpt>
      <trkpt lat="45.83348" lon="4.70246">
        <ele>307.33603</ele>
        <time>2022-08-06T15:56:04.000Z</time>
      </trkpt>
      <trkpt lat="45.83345" lon="4.7025">
        <ele>307.03369</ele>
        <time>2022-08-06T15:56:05.000Z</time>
      </trkpt>
      <trkpt lat="45.8334" lon="4.70261">
        <ele>306.86578</ele>
        <time>2022-08-06T15:56:07.000Z</time>
      </trkpt>
      <trkpt lat="45.83338" lon="4.70268">
        <ele>306.67978</ele>
        <time>2022-08-06T15:56:08.000Z</time>
      </trkpt>
      <trkpt lat="45.83336" lon="4.70273">
        <ele>306.47821</ele>
        <time>2022-08-06T15:56:09.000Z</time>
      </trkpt>
      <trkpt lat="45.83334" lon="4.70279">
        <ele>306.27383</ele>
        <time>2022-08-06T15:56:10.000Z</time>
      </trkpt>
      <trkpt lat="45.83332" lon="4.70287">
        <ele>306.00128</ele>
        <time>2022-08-06T15:56:11.000Z</time>
      </trkpt>
      <trkpt lat="45.83329" lon="4.70294">
        <ele>305.75507</ele>
        <time>2022-08-06T15:56:12.000Z</time>
      </trkpt>
      <trkpt lat="45.83326" lon="4.703">
        <ele>305.58783</ele>
        <time>2022-08-06T15:56:13.000Z</time>
      </trkpt>
      <trkpt lat="45.83323" lon="4.70308">
        <ele>305.40063</ele>
        <time>2022-08-06T15:56:14.000Z</time>
      </trkpt>
      <trkpt lat="45.83321" lon="4.70315">
        <ele>305.23184</ele>
        <time>2022-08-06T15:56:15.000Z</time>
      </trkpt>
      <trkpt lat="45.83322" lon="4.70323">
        <ele>305.02121</ele>
        <time>2022-08-06T15:56:16.000Z</time>
      </trkpt>
      <trkpt lat="45.83322" lon="4.7033">
        <ele>304.81326</ele>
        <time>2022-08-06T15:56:17.000Z</time>
      </trkpt>
      <trkpt lat="45.83321" lon="4.70336">
        <ele>304.62592</ele>
        <time>2022-08-06T15:56:18.000Z</time>
      </trkpt>
      <trkpt lat="45.83323" lon="4.70343">
        <ele>304.573</ele>
        <time>2022-08-06T15:56:19.000Z</time>
      </trkpt>
      <trkpt lat="45.83323" lon="4.70351">
        <ele>304.53763</ele>
        <time>2022-08-06T15:56:20.000Z</time>
      </trkpt>
      <trkpt lat="45.83323" lon="4.70362">
        <ele>304.52231</ele>
        <time>2022-08-06T15:56:21.000Z</time>
      </trkpt>
      <trkpt lat="45.83325" lon="4.7037">
        <ele>304.50504</ele>
        <time>2022-08-06T15:56:22.000Z</time>
      </trkpt>
      <trkpt lat="45.83326" lon="4.70383">
        <ele>304.33206</ele>
        <time>2022-08-06T15:56:24.000Z</time>
      </trkpt>
      <trkpt lat="45.83328" lon="4.70389">
        <ele>304.20566</ele>
        <time>2022-08-06T15:56:25.000Z</time>
      </trkpt>
      <trkpt lat="45.83328" lon="4.70395">
        <ele>304.11444</ele>
        <time>2022-08-06T15:56:26.000Z</time>
      </trkpt>
      <trkpt lat="45.83328" lon="4.70403">
        <ele>304.06732</ele>
        <time>2022-08-06T15:56:27.000Z</time>
      </trkpt>
      <trkpt lat="45.8333" lon="4.70412">
        <ele>303.96548</ele>
        <time>2022-08-06T15:56:28.000Z</time>
      </trkpt>
      <trkpt lat="45.83331" lon="4.70426">
        <ele>303.8248</ele>
        <time>2022-08-06T15:56:30.000Z</time>
      </trkpt>
      <trkpt lat="45.83332" lon="4.70434">
        <ele>303.66266</ele>
        <time>2022-08-06T15:56:31.000Z</time>
      </trkpt>
      <trkpt lat="45.83334" lon="4.70443">
        <ele>303.43008</ele>
        <time>2022-08-06T15:56:32.000Z</time>
      </trkpt>
      <trkpt lat="45.83335" lon="4.70452">
        <ele>303.22607</ele>
        <time>2022-08-06T15:56:33.000Z</time>
      </trkpt>
      <trkpt lat="45.83337" lon="4.70459">
        <ele>302.99371</ele>
        <time>2022-08-06T15:56:34.000Z</time>
      </trkpt>
      <trkpt lat="45.83339" lon="4.70467">
        <ele>302.76245</ele>
        <time>2022-08-06T15:56:35.000Z</time>
      </trkpt>
      <trkpt lat="45.83341" lon="4.70475">
        <ele>302.56482</ele>
        <time>2022-08-06T15:56:36.000Z</time>
      </trkpt>
      <trkpt lat="45.83342" lon="4.70484">
        <ele>302.44086</ele>
        <time>2022-08-06T15:56:37.000Z</time>
      </trkpt>
      <trkpt lat="45.83345" lon="4.70493">
        <ele>302.39197</ele>
        <time>2022-08-06T15:56:38.000Z</time>
      </trkpt>
      <trkpt lat="45.83343" lon="4.70499">
        <ele>302.3157</ele>
        <time>2022-08-06T15:56:39.000Z</time>
      </trkpt>
      <trkpt lat="45.83342" lon="4.70507">
        <ele>302.1192</ele>
        <time>2022-08-06T15:56:40.000Z</time>
      </trkpt>
      <trkpt lat="45.83343" lon="4.70516">
        <ele>301.84406</ele>
        <time>2022-08-06T15:56:41.000Z</time>
      </trkpt>
      <trkpt lat="45.83343" lon="4.70522">
        <ele>301.59747</ele>
        <time>2022-08-06T15:56:42.000Z</time>
      </trkpt>
      <trkpt lat="45.83345" lon="4.70529">
        <ele>301.36624</ele>
        <time>2022-08-06T15:56:43.000Z</time>
      </trkpt>
      <trkpt lat="45.83347" lon="4.70535">
        <ele>301.21854</ele>
        <time>2022-08-06T15:56:44.000Z</time>
      </trkpt>
      <trkpt lat="45.83348" lon="4.70541">
        <ele>301.2822</ele>
        <time>2022-08-06T15:56:45.000Z</time>
      </trkpt>
      <trkpt lat="45.83345" lon="4.7055">
        <ele>301.31879</ele>
        <time>2022-08-06T15:56:46.000Z</time>
      </trkpt>
      <trkpt lat="45.83345" lon="4.7056">
        <ele>301.27008</ele>
        <time>2022-08-06T15:56:48.000Z</time>
      </trkpt>
      <trkpt lat="45.83347" lon="4.70569">
        <ele>301.11993</ele>
        <time>2022-08-06T15:56:50.000Z</time>
      </trkpt>
      <trkpt lat="45.83344" lon="4.70574">
        <ele>300.93744</ele>
        <time>2022-08-06T15:56:51.000Z</time>
      </trkpt>
      <trkpt lat="45.83346" lon="4.70579">
        <ele>300.84653</ele>
        <time>2022-08-06T15:56:52.000Z</time>
      </trkpt>
      <trkpt lat="45.83348" lon="4.70585">
        <ele>300.74902</ele>
        <time>2022-08-06T15:56:53.000Z</time>
      </trkpt>
      <trkpt lat="45.8335" lon="4.70597">
        <ele>300.84854</ele>
        <time>2022-08-06T15:56:55.000Z</time>
      </trkpt>
      <trkpt lat="45.83351" lon="4.70603">
        <ele>301.00708</ele>
        <time>2022-08-06T15:56:56.000Z</time>
      </trkpt>
      <trkpt lat="45.83351" lon="4.70611">
        <ele>301.1727</ele>
        <time>2022-08-06T15:56:57.000Z</time>
      </trkpt>
      <trkpt lat="45.83351" lon="4.70617">
        <ele>301.32187</ele>
        <time>2022-08-06T15:56:58.000Z</time>
      </trkpt>
      <trkpt lat="45.8335" lon="4.70624">
        <ele>301.38596</ele>
        <time>2022-08-06T15:56:59.000Z</time>
      </trkpt>
      <trkpt lat="45.83348" lon="4.7063">
        <ele>301.526</ele>
        <time>2022-08-06T15:57:00.000Z</time>
      </trkpt>
      <trkpt lat="45.83346" lon="4.70637">
        <ele>301.71048</ele>
        <time>2022-08-06T15:57:01.000Z</time>
      </trkpt>
      <trkpt lat="45.83345" lon="4.70644">
        <ele>301.9433</ele>
        <time>2022-08-06T15:57:02.000Z</time>
      </trkpt>
      <trkpt lat="45.83342" lon="4.7065">
        <ele>302.27121</ele>
        <time>2022-08-06T15:57:03.000Z</time>
      </trkpt>
      <trkpt lat="45.83342" lon="4.70656">
        <ele>302.62808</ele>
        <time>2022-08-06T15:57:04.000Z</time>
      </trkpt>
      <trkpt lat="45.83343" lon="4.70664">
        <ele>302.90314</ele>
        <time>2022-08-06T15:57:05.000Z</time>
      </trkpt>
      <trkpt lat="45.83343" lon="4.7067">
        <ele>303.17349</ele>
        <time>2022-08-06T15:57:06.000Z</time>
      </trkpt>
      <trkpt lat="45.83346" lon="4.7068">
        <ele>303.43069</ele>
        <time>2022-08-06T15:57:08.000Z</time>
      </trkpt>
      <trkpt lat="45.83345" lon="4.70684">
        <ele>303.66385</ele>
        <time>2022-08-06T15:57:09.000Z</time>
      </trkpt>
      <trkpt lat="45.83345" lon="4.70691">
        <ele>303.92938</ele>
        <time>2022-08-06T15:57:10.000Z</time>
      </trkpt>
      <trkpt lat="45.83344" lon="4.70696">
        <ele>304.26849</ele>
        <time>2022-08-06T15:57:11.000Z</time>
      </trkpt>
      <trkpt lat="45.83343" lon="4.70702">
        <ele>304.66129</ele>
        <time>2022-08-06T15:57:12.000Z</time>
      </trkpt>
      <trkpt lat="45.83344" lon="4.70707">
        <ele>305.06082</ele>
        <time>2022-08-06T15:57:13.000Z</time>
      </trkpt>
      <trkpt lat="45.83342" lon="4.70717">
        <ele>305.40784</ele>
        <time>2022-08-06T15:57:15.000Z</time>
      </trkpt>
      <trkpt lat="45.83342" lon="4.70723">
        <ele>305.72922</ele>
        <time>2022-08-06T15:57:16.000Z</time>
      </trkpt>
      <trkpt lat="45.83341" lon="4.70729">
        <ele>305.90582</ele>
        <time>2022-08-06T15:57:17.000Z</time>
      </trkpt>
      <trkpt lat="45.8334" lon="4.70735">
        <ele>306.05685</ele>
        <time>2022-08-06T15:57:18.000Z</time>
      </trkpt>
      <trkpt lat="45.8334" lon="4.70741">
        <ele>306.1701</ele>
        <time>2022-08-06T15:57:19.000Z</time>
      </trkpt>
      <trkpt lat="45.8334" lon="4.70749">
        <ele>306.27621</ele>
        <time>2022-08-06T15:57:20.000Z</time>
      </trkpt>
      <trkpt lat="45.83339" lon="4.70756">
        <ele>306.49908</ele>
        <time>2022-08-06T15:57:21.000Z</time>
      </trkpt>
      <trkpt lat="45.83339" lon="4.70763">
        <ele>306.61945</ele>
        <time>2022-08-06T15:57:22.000Z</time>
      </trkpt>
      <trkpt lat="45.83338" lon="4.7077">
        <ele>306.63324</ele>
        <time>2022-08-06T15:57:23.000Z</time>
      </trkpt>
      <trkpt lat="45.83338" lon="4.70777">
        <ele>306.61734</ele>
        <time>2022-08-06T15:57:24.000Z</time>
      </trkpt>
      <trkpt lat="45.83337" lon="4.70784">
        <ele>306.64209</ele>
        <time>2022-08-06T15:57:25.000Z</time>
      </trkpt>
      <trkpt lat="45.8334" lon="4.7079">
        <ele>306.70337</ele>
        <time>2022-08-06T15:57:26.000Z</time>
      </trkpt>
      <trkpt lat="45.83344" lon="4.70796">
        <ele>306.83078</ele>
        <time>2022-08-06T15:57:27.000Z</time>
      </trkpt>
      <trkpt lat="45.83345" lon="4.70806">
        <ele>306.98557</ele>
        <time>2022-08-06T15:57:28.000Z</time>
      </trkpt>
      <trkpt lat="45.8334" lon="4.70816">
        <ele>306.94305</ele>
        <time>2022-08-06T15:57:29.000Z</time>
      </trkpt>
      <trkpt lat="45.83341" lon="4.70831">
        <ele>307.0705</ele>
        <time>2022-08-06T15:57:31.000Z</time>
      </trkpt>
      <trkpt lat="45.83338" lon="4.70842">
        <ele>307.2182</ele>
        <time>2022-08-06T15:57:33.000Z</time>
      </trkpt>
      <trkpt lat="45.83337" lon="4.70847">
        <ele>307.36575</ele>
        <time>2022-08-06T15:57:34.000Z</time>
      </trkpt>
      <trkpt lat="45.83337" lon="4.70852">
        <ele>307.46466</ele>
        <time>2022-08-06T15:57:35.000Z</time>
      </trkpt>
      <trkpt lat="45.83336" lon="4.70857">
        <ele>307.56158</ele>
        <time>2022-08-06T15:57:36.000Z</time>
      </trkpt>
      <trkpt lat="45.83335" lon="4.70862">
        <ele>307.67892</ele>
        <time>2022-08-06T15:57:37.000Z</time>
      </trkpt>
      <trkpt lat="45.83334" lon="4.70864">
        <ele>307.81281</ele>
        <time>2022-08-06T15:57:38.000Z</time>
      </trkpt>
      <trkpt lat="45.83333" lon="4.70867">
        <ele>308.02011</ele>
        <time>2022-08-06T15:57:39.000Z</time>
      </trkpt>
      <trkpt lat="45.83332" lon="4.7087">
        <ele>308.21173</ele>
        <time>2022-08-06T15:57:41.000Z</time>
      </trkpt>
    </trkseg>
  </trk>
</gpx>